[[{"header":{"parameterUnit":"m.s-1","parameterCategory":1,"la1":30.6,"la2":29.2853,"lo1":-89.7004,"lo2":-87.6739,"dy":0.0162,"dx":0.0183,"nx":112,"ny":82,"refTime":"2025-04-10T06:00:00:Z","depth":0,"parameterNumber":2,"parameterNumberName":"U-component_of_WINDS"},"data":[0.0,0.0,0.0,0.0,0.0,0.0,0.0,0.0,0.0,0.0,0.0,0.0,0.0,0.0,0.0,0.0,0.0,0.0,0.0,0.0,0.0,0.0,0.0,0.0,0.0,0.0,0.0,0.0,0.0,0.0,0.0,0.0,0.0,0.0,0.0,0.0,0.0,0.0,0.0,0.0,0.0,0.0,0.0,0.0,0.0,0.0,0.0,0.0,0.0,0.0,0.0,0.0,0.0,0.0,0.0,0.0,0.0,0.0,0.0,0.0,0.0,0.0,0.0,0.0,0.0,0.0,0.0,0.0,0.0,0.0,0.0,0.0,0.0,0.0,0.0,0.0,0.0,0.0,0.0,0.0,0.0,0.0,0.0,0.0,0.0,0.0,0.0,0.0,0.0,0.0,0.0,0.3345,0.3965,0.448,0.4477,0.4522,0.4519,0.4625,0.0,0.0,0.0,0.0,0.0,0.0,0.0,0.0,0.0,0.0,0.0,0.0,0.0,0.0,0.0,0.0,0.0,0.0,0.0,0.0,0.0,0.0,0.0,0.0,0.0,0.0,0.0,0.0,0.0,0.0,0.0,0.0,0.0,0.0,0.0,0.0,0.0,0.0,0.0,0.0,0.0,0.0,0.0,0.0,0.0,0.0,0.0,0.0,0.0,0.0,0.0,0.0,0.0,0.0,0.0,0.0,0.0,0.0,0.0,0.0,0.0,0.0,0.0,0.0,0.0,0.0,0.0,0.0,0.0,0.0,0.0,0.0,0.0,0.0,0.0,0.0,0.0,0.0,0.0,0.0,0.0,0.0,0.0,0.0,0.0,0.0,0.0,0.0,0.0,0.0,0.0,0.0,0.0,0.0,0.0,0.0,0.0,0.0,0.0,0.0,0.0,0.0,0.0,0.0,0.4425,0.4307,0.4421,0.4477,0.4522,0.4519,0.4732,0.5328,0.0,0.0,0.0,0.0,0.0,0.0,0.0,0.0,0.0,0.0,0.0,0.0,0.0,0.0,0.0,0.0,0.0,0.0,0.0,0.0,0.0,0.0,0.0,0.0,0.0,0.0,0.0,0.0,0.0,0.0,0.0,0.0,0.0,0.0,0.0,0.0,0.0,0.0,0.0,0.0,0.0,0.0,0.0,0.0,0.0,0.0,0.0,0.0,0.0,0.0,0.0,0.0,0.0,0.0,0.0,0.0,0.0,0.0,0.0,0.0,0.0,0.0,0.0,0.0,0.0,0.0,0.0,0.0,0.0,0.0,0.0,0.0,0.0,0.0,0.0,0.0,0.0,0.0,0.0,0.0,0.0,0.0,0.0,0.0,0.0,0.0,0.0,0.0,0.0,0.0,0.0,0.0,0.0,0.0,0.0,0.0,0.0,0.0,0.0,0.0,0.0,0.0,0.0,0.4538,0.4562,0.4536,0.493,0.5166,0.5066,0.5386,0.5769,0.6091,0.5823,0.0,0.0,0.0,0.0,0.0,0.0,0.0,0.0,0.0,0.0,0.0,0.0,0.0,0.0,0.0,0.0,0.0,0.0,0.0,0.0,0.0,0.0,0.0,0.0,0.0,0.0,0.0,0.0,0.0,0.0,0.0,0.0,0.0,0.0,0.0,0.0,0.0,0.0,0.0,0.0,0.0,0.0,0.0,0.0,0.0,0.0,0.0,0.0,0.0,0.0,0.0,0.0,0.0,0.0,0.0,0.0,0.0,0.0,0.0,0.0,0.0,0.0,0.0,0.0,0.0,0.0,0.0,0.0,0.0,0.0,0.0,0.0,0.0,0.0,0.0,0.0,0.0,0.0,0.0,0.0,0.0,0.0,0.0,0.0,0.0,0.0,0.0,0.0,0.0,0.0,0.0,0.0,0.0,0.0,0.0,0.0,0.0,0.0,0.0,0.0,0.0,0.0,0.4619,0.4704,0.4804,0.5405,0.5806,0.5778,0.6258,0.6588,0.6588,0.675,0.0,0.0,0.0,0.0,0.0,0.0,0.0,0.0,0.0,0.0,0.0,0.0,0.0,0.0,0.0,0.0,0.0,0.0,0.0,0.0,0.0,0.0,0.0,0.0,0.0,0.0,0.0,0.0,0.0,0.0,0.0,0.0,0.0,0.0,0.0,0.0,0.0,0.0,0.0,0.0,0.0,0.0,0.0,0.0,0.0,0.0,0.0,0.0,0.0,0.0,0.0,0.0,0.0,0.0,0.0,0.0,0.0,0.0,0.0,0.0,0.0,0.0,0.0,0.0,0.0,0.0,0.0,0.0,0.0,0.0,0.0,0.0,0.0,0.0,0.0,0.0,0.0,0.0,0.0,0.0,0.0,0.0,0.0,0.0,0.0,0.0,0.0,0.0,0.0,0.0,0.0,0.0,0.0,0.0,0.0,0.0,0.0,0.0,0.0,0.0,0.0,0.0,0.4684,0.497,0.5641,0.5764,0.598,0.6495,0.6588,0.6588,0.6588,0.7235,0.0,0.0,0.0,0.0,0.0,0.0,0.0,0.0,0.0,0.0,0.0,0.0,0.0,0.0,0.0,0.0,0.0,0.0,0.0,0.0,0.0,0.0,0.0,0.0,0.0,0.0,0.0,0.0,0.0,0.0,0.0,0.0,0.0,0.0,0.0,0.0,0.0,0.0,0.0,0.0,0.0,0.0,0.0,0.0,0.0,0.0,0.0,0.0,0.0,0.0,0.0,0.0,0.0,0.0,0.0,0.0,0.0,0.0,0.0,0.0,0.0,0.0,0.0,0.0,0.0,0.0,0.0,0.0,0.0,0.0,0.0,0.0,0.0,0.0,0.0,0.0,0.0,0.0,0.0,0.0,0.0,0.0,0.0,0.0,0.0,0.0,0.0,0.0,0.0,0.0,0.0,0.0,0.0,0.0,0.0,0.0,0.0,0.0,0.0,0.0,0.0,0.0,0.5236,0.5766,0.0,0.6876,0.7485,0.7594,0.7817,0.7996,0.7996,0.0,0.0,0.0,0.0,0.0,0.0,0.0,0.0,0.0,0.0,0.0,0.0,0.0,0.0,0.0,0.0,0.0,0.0,0.0,0.0,0.0,0.0,0.0,0.0,0.0,0.0,0.0,0.0,0.0,0.0,0.0,0.0,0.0,0.0,0.0,0.0,0.0,0.0,0.0,0.0,0.0,0.0,0.0,0.0,0.0,0.0,0.0,0.0,0.0,0.0,0.0,0.0,0.0,0.0,0.0,0.0,0.0,0.0,0.0,0.0,0.0,0.0,0.0,0.0,0.0,0.0,0.0,0.0,0.0,0.0,0.0,0.0,0.0,0.0,0.0,0.0,0.0,0.0,0.0,0.0,0.0,0.0,0.0,0.0,0.0,0.0,0.0,0.0,0.0,0.0,0.0,0.0,0.0,0.0,0.0,0.0,0.0,0.0,0.0,0.0,0.0,0.0,0.4735,0.5616,0.6306,0.0,0.7693,0.8433,0.8527,0.8702,0.8804,0.8804,0.0,0.0,0.0,0.0,0.0,0.0,0.0,0.0,0.0,0.0,0.0,0.0,0.0,0.0,0.0,0.0,0.0,0.0,0.0,0.0,0.0,0.0,0.0,0.0,0.0,0.0,0.0,0.0,0.0,0.0,0.0,0.0,0.0,0.0,0.0,0.0,0.0,0.0,0.0,0.0,0.0,0.0,0.0,0.0,0.0,0.0,0.0,0.0,0.0,0.0,0.0,0.0,0.0,0.0,0.0,0.0,0.0,0.0,0.0,0.0,0.0,0.0,0.0,0.0,0.0,0.0,0.0,0.0,0.0,0.0,0.0,0.0,0.0,0.0,0.0,0.0,0.0,0.0,0.0,0.0,0.0,0.0,0.0,0.0,0.0,0.0,0.0,0.0,0.0,0.0,0.0,0.0,0.0,0.0,0.0,0.0,0.0,0.0,0.0,0.0,0.0,0.0,0.488,0.5691,0.6536,0.7417,0.8029,0.8607,0.9154,0.8971,0.8804,0.0,0.0,0.0,0.0,0.0,0.0,0.0,0.0,0.0,0.0,0.0,0.0,0.0,0.0,0.0,0.0,0.0,0.0,0.0,0.0,0.0,0.0,0.0,0.0,0.0,0.0,0.0,0.0,0.0,0.0,0.0,0.0,0.0,0.0,0.0,0.0,0.0,0.0,0.0,0.0,0.0,0.0,0.0,0.0,0.0,0.0,0.0,0.0,0.0,0.0,0.0,0.0,0.0,0.0,0.0,0.0,0.0,0.0,0.0,0.0,0.0,0.0,0.0,0.0,0.0,0.0,0.0,0.0,0.0,0.0,0.0,0.0,0.0,0.0,0.0,0.0,0.0,0.0,0.0,0.0,0.0,0.0,0.0,0.0,0.0,0.0,0.0,0.0,0.0,0.0,0.0,0.0,0.0,0.0,0.0,0.0,0.0,0.0,0.0,0.0,0.0,0.0,0.0,0.5704,0.6584,0.744,0.8337,0.8938,0.9266,0.921,0.8971,0.8717,0.8517,0.0,0.0,0.0,0.0,0.0,0.0,0.0,0.0,0.0,0.0,0.0,0.0,0.0,0.0,0.0,0.0,0.0,0.0,0.0,0.0,0.0,0.0,0.0,0.0,0.0,0.0,0.0,0.0,0.0,0.0,0.0,0.0,0.0,0.0,0.0,0.0,0.0,0.0,0.0,0.0,0.0,0.0,0.0,0.0,0.0,0.0,0.0,0.0,0.0,0.0,0.0,0.0,0.0,0.0,0.0,0.0,0.0,0.0,0.0,0.0,0.0,0.0,0.0,0.0,0.0,0.0,0.0,0.0,0.0,0.0,0.0,0.0,0.0,0.0,0.0,0.0,0.0,0.0,0.0,0.0,0.0,0.0,0.0,0.0,0.0,0.0,0.0,0.0,0.0,0.0,0.0,0.0,0.0,0.0,0.0,0.0,0.0,0.0,0.0,0.0,0.0,0.0,0.6054,0.6937,0.7865,0.8705,0.936,0.9674,0.9639,0.9386,0.9134,0.8952,0.0,0.0,0.0,0.0,0.0,0.0,0.0,0.0,0.0,0.0,0.0,0.0,0.0,0.0,0.0,0.0,0.0,0.0,0.0,0.0,0.0,0.0,0.0,0.0,0.0,0.0,0.0,0.0,0.0,0.0,0.0,0.0,0.0,0.0,0.0,0.0,0.0,0.0,0.0,0.0,0.0,0.0,0.0,0.0,0.0,0.0,0.0,0.0,0.0,0.0,0.0,0.0,0.0,0.0,0.0,0.0,0.0,0.0,0.0,0.0,0.0,0.0,0.0,0.0,0.0,0.0,0.0,0.0,0.0,0.0,0.0,0.0,0.0,0.0,0.0,0.0,0.0,0.0,0.0,0.0,0.0,0.0,0.0,0.0,0.0,0.0,0.0,0.0,0.0,0.0,0.0,0.0,0.0,0.0,0.0,0.0,0.0,0.0,0.0,0.0,0.0,0.0,0.6173,0.7061,0.7914,0.8798,0.9347,0.9831,1.0137,0.9888,0.9703,0.9673,0.0,0.0,0.0,0.0,0.0,0.0,0.0,0.0,0.0,0.0,0.0,0.0,0.0,0.0,0.0,0.0,0.0,0.0,0.0,0.0,0.0,0.0,0.0,0.0,0.0,0.0,0.0,0.0,0.0,0.0,0.0,0.0,0.0,0.0,0.0,0.0,0.0,0.0,0.0,0.0,0.0,0.0,0.0,0.0,0.0,0.0,0.0,0.0,0.0,0.0,0.0,0.0,0.0,0.0,0.0,0.0,0.0,0.0,0.0,0.0,-0.5546,0.0,0.0,0.0,0.0,0.0,0.0,0.0,0.0,0.0,0.0,0.0,0.0,0.0,0.0,0.0,0.0,0.0,0.0,0.0,0.0,0.0,0.0,0.0,0.0,0.0,0.0,0.0,0.0,0.0,0.0,0.0,0.0,0.0,0.0,0.0,0.0,0.0,0.0,0.0,0.0,0.0,0.7062,0.7898,0.8628,0.9401,0.9603,0.9529,0.9152,0.9042,0.8906,0.8724,0.8372,0.0,0.0,0.0,0.0,0.0,0.0,0.0,0.0,0.0,0.0,0.0,0.0,0.0,0.0,0.0,0.0,0.0,0.0,0.0,0.0,0.0,0.0,0.0,0.0,0.0,0.0,0.0,0.0,0.0,0.0,0.0,0.0,0.0,0.0,0.0,0.0,0.0,0.0,0.0,0.0,0.0,0.0,0.0,0.0,0.0,0.0,0.0,0.0,0.0,0.0,0.0,0.0,0.0,0.0,0.0,0.0,0.0,0.0,0.0,0.0,-0.5571,0.0,0.0,0.0,0.0,0.0,0.0,0.0,0.0,0.0,0.0,0.0,0.0,0.0,0.0,0.0,0.0,0.0,0.0,0.0,0.0,0.0,0.0,0.0,0.0,0.0,0.0,0.0,0.0,0.0,0.0,0.0,0.0,0.0,0.0,0.0,0.0,0.0,0.0,0.0,0.0,0.6707,0.7235,0.7887,0.8961,0.9078,0.9136,0.926,0.9263,0.9245,0.9082,0.8785,0.0,0.0,0.0,0.0,0.0,0.0,0.0,0.0,0.0,0.0,0.0,0.0,0.0,0.0,0.0,0.0,0.0,0.0,0.0,0.0,0.0,0.0,0.0,0.0,0.0,0.0,0.0,0.0,0.0,0.0,0.0,0.0,0.0,0.0,0.0,0.0,0.0,0.0,0.0,0.0,0.0,0.0,0.0,0.0,0.0,0.0,0.0,0.0,0.0,0.0,0.0,0.0,0.0,-0.7331,-0.7061,-0.6344,-0.6344,-0.6284,-0.6164,-0.5977,-0.576,-0.5541,-0.5102,0.0,0.0,0.0,0.0,0.0,0.0,0.0,0.0,0.0,0.0,0.0,0.0,0.0,0.0,0.0,0.0,0.0,0.0,0.0,0.0,0.0,0.0,0.0,0.0,0.1797,0.1964,0.0,0.0,0.0,0.0,0.0,0.0,0.0,0.0,0.0,0.0,0.0,0.0,0.5811,0.6309,0.7013,0.8293,0.8492,0.8839,0.9553,0.971,0.9814,0.9814,0.9557,0.9138,0.0,0.0,0.0,0.0,0.0,0.0,0.0,0.0,0.0,0.0,0.0,0.0,0.0,0.0,0.0,0.0,0.0,0.0,0.0,0.0,0.0,0.0,0.0,0.0,0.0,0.0,0.0,0.0,0.0,0.0,0.0,0.0,-0.5655,-0.6367,0.0,0.0,0.0,0.0,0.0,0.0,0.0,0.0,0.0,0.0,0.0,0.0,0.0,-0.6209,-0.7203,-0.7121,-0.7082,-0.7082,-0.7111,-0.7121,-0.7002,-0.7002,-0.6942,-0.6952,-0.6367,0.0,-0.5909,-0.5715,0.0,0.0,0.0,0.0,0.0,0.0,0.0,0.0,0.0,0.0,0.0,0.0,0.0,0.0,0.0,0.0,0.0,0.0,0.0,0.0,0.0,0.0,0.0561,0.0336,0.028,0.1009,0.0,0.213,0.028,0.028,0.028,0.0,0.0,0.0,0.0,0.0,0.0,0.0,0.4953,0.6702,0.8063,0.8393,0.8801,0.9048,0.8937,0.9465,0.9814,0.9814,0.9557,0.9385,0.9286,0.8372,0.0,0.0,0.0,0.0,0.0,0.0,0.0,0.0,0.0,0.0,0.0,0.0,0.0,0.0,0.0,0.0,0.0,0.0,0.0,0.0,0.0,0.0,0.0,0.0,0.0,0.0,0.0,0.0,0.0,-0.6312,-0.6258,-0.6588,-0.7235,-0.7289,0.0,0.0,0.0,0.0,0.0,0.0,0.0,0.0,0.0,-0.5982,-0.5927,-0.632,-0.7176,-0.73,-0.7299,-0.7303,-0.7489,-0.7433,-0.7079,-0.7079,-0.6763,-0.6137,-0.5891,-0.5689,-0.568,-0.5501,-0.5079,-0.4587,0.0,0.0,0.0,0.0,-0.4497,-0.4497,-0.4497,-0.4497,0.0,-0.4594,0.0,0.0,0.0,0.0,0.0,0.0,0.0,0.0,0.0,0.0,0.0521,0.2541,0.303,0.3146,0.3436,0.2975,0.229,0.0,0.1228,0.1227,0.1227,0.0,0.0,0.0,0.0,0.4721,0.487,0.5735,0.6665,0.758,0.7788,0.8165,0.8725,0.9413,0.9814,0.9814,0.9679,0.9604,0.9604,0.8721,0.8036,0.0,0.0,0.0,0.0,0.0,0.0,0.0,0.0,0.0,0.0,0.0,0.0,0.0,0.0,0.0,0.0,0.0,0.0,0.0,0.0,0.0,0.0,0.0,0.0,0.0,0.0,0.0,0.0,-0.6693,-0.6763,-0.6864,-0.7453,-0.7438,0.0,0.0,0.0,0.0,0.0,0.0,-0.4748,-0.4857,-0.5297,-0.6059,-0.588,-0.614,-0.6979,-0.6947,-0.6962,-0.6962,-0.7242,-0.7073,-0.6643,-0.6164,-0.5498,-0.4709,-0.4709,-0.4986,-0.5319,-0.4758,-0.4325,-0.4055,-0.396,-0.3888,-0.3888,-0.3888,-0.3888,-0.3888,-0.3888,-0.3888,-0.3939,-0.3939,0.0,-0.4587,-0.3614,0.0,0.0,0.0,0.0,-0.0983,-0.0178,0.0715,0.2041,0.4758,0.5417,0.5027,0.3635,0.3996,0.4312,0.0,0.2809,0.2792,0.2792,0.0,0.0,0.0,0.0,0.4807,0.4853,0.5124,0.5754,0.6915,0.7239,0.7758,0.8718,0.9413,0.9865,1.0064,1.0064,1.0115,1.0312,0.9488,0.8778,0.8276,0.0,0.0,0.0,0.0,0.0,0.0,0.0,0.0,0.0,0.0,0.0,0.0,0.0,0.0,0.0,0.0,0.0,0.0,0.0,0.0,0.0,0.0,0.0,0.0,0.0,0.0,0.0,0.0,0.0,-0.7591,-0.794,0.0,0.0,0.0,0.0,-0.5001,-0.4901,-0.4908,-0.4908,-0.4914,-0.5348,-0.6366,-0.5557,-0.5627,-0.6689,-0.5932,-0.5481,-0.5481,-0.5498,-0.5509,-0.5446,-0.3685,-0.2878,-0.2811,-0.2811,-0.383,-0.5262,-0.3522,-0.2829,-0.2752,-0.2423,-0.2335,-0.2335,-0.2335,-0.2335,-0.2335,-0.2335,-0.2335,-0.2345,-0.2347,-0.3665,-0.4693,-0.124,-0.0123,0.0,0.0,-0.2151,-0.3638,-0.0739,0.2528,0.5153,0.5352,0.5409,0.5333,0.5067,0.5057,0.4948,0.0,0.4365,0.4383,0.4383,0.0,0.4721,0.4518,0.4676,0.4827,0.4779,0.5815,0.6644,0.6904,0.8003,0.8718,0.8811,0.9413,1.0064,1.072,1.0771,1.1065,1.1665,1.1048,1.0224,0.9362,0.8977,0.0,0.0,0.0,0.0,0.0,0.0,0.0,0.0,0.0,0.0,0.0,0.0,0.0,0.0,0.0,0.0,0.0,0.0,0.0,0.0,0.0,0.0,0.0,0.0,0.0,0.0,0.0,0.0,-0.7982,-0.8256,0.0,-0.6239,-0.6298,-0.6037,-0.4975,-0.5003,-0.5053,-0.5053,-0.5148,-0.5356,-0.573,-0.548,-0.5508,-0.5892,-0.5575,-0.5382,-0.5382,-0.5386,-0.5393,-0.5399,-0.4718,-0.3161,-0.1008,-0.222,-0.3715,-0.5017,0.0332,0.1124,-0.0927,-0.0852,-0.0783,-0.0783,-0.0783,-0.0783,-0.0457,0.1894,0.2678,0.247,0.1349,0.0443,0.0062,0.1358,0.1722,0.1722,0.1723,0.0983,0.037,0.1446,0.2722,0.3953,0.5145,0.5431,0.5359,0.5281,0.5195,0.5234,0.5666,0.5224,0.4769,0.4769,0.4816,0.4893,0.4775,0.4813,0.4843,0.4843,0.5566,0.6318,0.6842,0.7597,0.8262,0.8752,0.9814,1.0568,1.0762,1.1216,1.1566,1.1814,1.1166,1.0356,0.9434,0.9264,0.855,0.0,0.0,0.0,0.0,0.0,0.0,0.0,0.0,0.0,0.0,0.0,0.0,0.0,0.0,0.0,0.0,0.0,0.0,0.0,0.0,0.0,0.0,0.0,0.0,0.0,0.0,-0.9078,-0.9134,-0.9105,-0.8437,-0.6801,-0.6619,-0.6227,-0.5126,-0.5203,-0.5264,-0.5209,-0.5399,-0.5464,-0.5369,-0.5494,-0.5158,-0.4498,-0.45,-0.4459,-0.4501,-0.5129,-0.5413,-0.5352,-0.4143,-0.1573,0.1752,0.0544,-0.1018,-0.2288,0.2484,0.3433,0.1749,0.1143,0.0941,0.0941,0.0941,0.0941,0.1277,0.3645,0.487,0.5183,0.4009,0.3608,0.3617,0.3617,0.3617,0.3617,0.3617,0.3617,0.3634,0.3635,0.3584,0.3929,0.5084,0.5376,0.5369,0.5428,0.5538,0.5837,0.6413,0.5604,0.51,0.5695,0.5563,0.5521,0.5763,0.5751,0.5671,0.5676,0.6081,0.6631,0.7133,0.7919,0.862,0.9106,1.0167,1.0914,1.1116,1.1566,1.1922,1.2187,1.1733,1.1113,1.0229,0.9913,0.8793,0.6952,0.0,0.0,0.0,0.0,0.0,0.0,0.0,0.0,0.0,0.0,0.0,0.0,0.0,0.0,0.0,0.0,0.0,0.0,0.0,0.0,0.0,0.0,0.0,-0.9555,-1.0185,-1.0751,-1.0922,-1.0408,-0.9383,-0.77,-0.7519,-0.6917,-0.5488,-0.5511,-0.5532,-0.5386,-0.5647,-0.5674,-0.5396,-0.5603,-0.4771,-0.2817,-0.2683,-0.2585,-0.2654,-0.4426,-0.5218,-0.5145,-0.1584,0.1912,0.5225,0.5369,0.4431,0.2818,0.2817,0.383,0.5262,0.3487,0.2811,0.2811,0.2811,0.2811,0.2811,0.2811,0.3961,0.5396,0.5393,0.5393,0.5393,0.5393,0.5393,0.5393,0.5393,0.5393,0.5393,0.5393,0.5386,0.5376,0.5446,0.5435,0.5428,0.5495,0.6137,0.6719,0.6785,0.5809,0.5533,0.7205,0.6946,0.6697,0.7405,0.7354,0.0,0.7115,0.7444,0.7723,0.7723,0.8981,0.9814,0.9814,1.0415,1.1116,1.1765,1.1814,1.2129,1.2881,1.2881,1.2559,1.1814,1.0905,0.922,0.6883,0.0,0.0,0.0,0.0,0.0,0.0,0.0,0.0,0.0,0.0,0.0,0.0,0.0,0.0,0.0,0.0,0.0,0.0,0.0,0.0,0.0,0.0,-1.1693,-1.103,-1.1053,-1.1137,-1.1195,-1.0227,-0.9093,-0.7999,-0.7358,-0.6609,-0.559,-0.5661,-0.5732,-0.5634,-0.5708,-0.5742,-0.5703,-0.557,-0.5216,-0.4654,-0.2046,-0.0715,-0.072,-0.1225,-0.1499,-0.1475,-0.0432,0.0573,0.1668,0.4728,0.5783,0.5293,0.4963,0.5195,0.5538,0.4882,0.4643,0.4643,0.4643,0.4643,0.464,0.4634,0.4973,0.5382,0.5372,0.5369,0.5369,0.5369,0.5369,0.5369,0.5369,0.5369,0.5369,0.5369,0.5369,0.5561,0.6207,0.6334,0.6527,0.7181,0.7502,0.7832,0.8484,0.7802,0.7272,0.778,0.7506,0.7236,0.7486,0.72,0.0,0.6976,0.7384,0.7723,0.7723,0.8981,0.9814,0.9814,1.0864,1.1616,1.1765,1.2295,1.2666,1.2881,1.2881,1.2559,1.1814,1.0905,0.9723,0.0,0.0,0.0,0.0,0.0,0.0,0.0,0.0,0.0,0.0,0.0,0.0,0.0,0.0,0.0,0.0,0.0,0.0,0.0,0.0,0.0,0.0,-1.1802,-1.2396,-1.1939,-1.1791,-1.1562,-1.102,-0.9982,-0.8812,-0.7567,-0.7096,-0.6535,-0.5658,-0.5786,-0.5808,-0.5689,-0.4975,-0.4956,-0.559,-0.5748,-0.4942,-0.3137,-0.1061,-0.0,-0.0,-0.0,0.0795,0.2286,0.2519,0.2567,0.2525,0.4985,0.6075,0.6046,0.5738,0.5614,0.0,0.0,0.0,0.0,0.0,0.5382,0.5379,0.5372,0.5372,0.5369,0.5428,0.5428,0.5428,0.5428,0.5428,0.5495,0.5815,0.5943,0.6009,0.6404,0.647,0.6597,0.7111,0.7242,0.7372,0.7897,0.8285,0.8683,0.9204,0.9198,0.0,0.9064,0.862,0.8406,0.872,0.8414,0.8086,0.8086,0.8111,0.8256,0.856,0.954,1.0312,1.061,1.1633,0.0,0.0,0.0,1.2881,1.2881,1.2881,0.0,0.0,0.0,0.0,0.0,0.0,0.0,0.0,0.6624,0.6063,0.0,0.0,0.0,0.0,0.0,0.0,0.0,0.0,0.0,0.0,0.0,0.0,0.0,0.0,0.0,0.0,-1.2043,-1.2489,-1.2228,-1.2209,-1.1782,-1.0649,-0.9627,-0.8431,-0.6881,-0.6722,-0.6433,-0.571,-0.5908,-0.5942,-0.5749,0.0,0.0,0.0,0.0,-0.381,-0.0073,-0.0,0.0213,0.0684,0.0743,0.2276,0.5155,0.588,0.6071,0.5717,0.5741,0.5791,0.581,0.5545,0.5498,0.5576,0.542,0.5428,0.5428,0.5428,0.5428,0.5428,0.5428,0.0,0.0,0.5449,0.5456,0.5456,0.5607,0.561,0.5803,0.6626,0.6881,0.7073,0.7837,0.8027,0.8027,0.8091,0.8156,0.8156,0.8285,0.8877,0.9466,0.9466,1.0047,1.0624,1.0744,1.0015,0.9679,1.0445,1.0154,0.984,0.9748,0.9391,0.9299,0.9865,0.0,0.0,1.1765,1.2501,1.2881,1.2881,1.2881,1.2881,1.2881,1.2881,1.2608,1.1922,1.2559,1.2255,1.0914,1.1516,1.1045,0.9513,0.7802,0.6923,0.0,0.0,0.0,0.0,0.0,0.0,0.0,0.0,0.0,0.0,0.0,0.0,0.0,0.0,0.0,-1.1226,-1.1966,-1.2091,-1.0993,-1.0989,-1.0887,-1.0571,-0.8581,-0.7109,-0.6865,-0.6359,-0.5957,-0.5949,-0.6129,-0.6234,-0.6157,-0.5889,-0.4232,-0.1168,-0.1189,-0.0818,-0.0,-0.0,0.1735,0.5093,0.0,0.0,0.3605,0.5195,0.5885,0.582,0.6078,0.6118,0.5993,0.5928,0.5779,0.5576,0.542,0.5428,0.5428,0.5428,0.5428,0.5428,0.5428,0.5428,0.5449,0.5504,0.5545,0.5703,0.6646,0.6966,0.0,0.7865,0.8091,0.8051,0.8007,0.8027,0.8156,0.8877,0.9075,0.9268,0.997,1.0231,1.0364,1.0364,1.0498,1.0807,1.1469,1.065,1.0017,1.0139,1.0477,1.0534,1.0228,1.0663,1.089,1.0651,1.1216,1.1665,1.1765,1.2501,1.2881,1.2881,1.2881,1.2881,1.2881,1.2881,1.2822,1.2666,1.2832,1.2452,1.1616,1.1765,1.1382,1.0505,0.8883,0.7753,0.0,0.0,0.0,0.0,0.0,0.0,0.0,0.0,0.0,0.0,0.0,-0.9397,-0.9869,0.0,-1.0897,-1.1167,-1.1426,-1.1178,-1.018,-0.9371,-0.8826,-0.8717,-0.7606,-0.6769,-0.6375,-0.6046,-0.5959,-0.5966,-0.6207,-0.6312,-0.6329,-0.4283,-0.2212,-0.0074,-0.0,-0.0,-0.0,0.2081,0.4178,0.6329,0.6325,0.5686,0.4608,0.5585,0.6003,0.5875,0.6091,0.6152,0.6146,0.6064,0.5854,0.5583,0.5504,0.543,0.5428,0.5428,0.5428,0.5439,0.545,0.5809,0.6304,0.6402,0.6802,0.7285,0.7693,0.7831,0.7995,0.8655,0.886,0.8898,0.9227,0.932,0.939,0.9849,0.9977,1.0047,1.0498,1.0624,1.0624,1.0624,1.0926,1.1351,1.171,1.1637,1.154,1.154,1.167,1.1606,1.1138,1.1312,1.1427,1.1309,1.1616,1.1972,1.2344,1.2666,1.2881,1.2881,1.2881,1.2881,1.2881,1.2881,1.2881,1.2881,1.2881,1.2725,1.2344,1.2344,1.199,1.1275,1.0507,0.9333,0.0,0.0,0.0,0.0,0.0,0.0,0.0,0.0,-0.8808,-0.8808,-0.8985,-0.9389,-0.9945,-1.0321,-1.0562,-1.0504,-1.0334,-0.994,-0.9092,-0.7892,-0.7007,-0.6794,-0.68,-0.6595,-0.5916,-0.5969,-0.5989,-0.6023,-0.6244,-0.593,-0.5129,-0.1842,-0.0,-0.0,0.066,0.1023,0.1044,0.4101,0.5825,0.6274,0.6218,0.616,0.6095,0.6217,0.6186,0.603,0.603,0.6118,0.6251,0.6125,0.5918,0.5674,0.5881,0.5834,0.5666,0.547,0.5536,0.5758,0.5851,0.6591,0.744,0.7628,0.8189,0.8865,0.8869,0.8864,0.8915,0.9557,0.9645,0.979,1.0448,1.0624,1.0624,1.0624,1.0624,1.0624,1.0624,1.0744,1.08,1.08,1.1469,1.2058,1.2112,1.2712,1.3107,1.3,1.2881,1.262,1.2167,1.1959,1.1904,1.2017,1.2021,1.2236,1.2832,1.2881,1.2881,1.2881,1.2881,1.2881,1.2881,1.2881,1.2881,1.2881,1.2881,1.2881,1.2881,1.2881,1.2569,1.2008,1.1882,1.0839,-0.1745,-0.3026,0.0,-0.4498,-0.5214,-0.608,0.0,0.0,-0.7323,-0.7323,-0.7344,-0.748,-0.7798,-0.7912,-0.7996,-0.8334,-0.8393,-0.8155,-0.7342,-0.7233,-0.7016,-0.6212,-0.6023,-0.593,-0.6006,-0.5962,-0.6043,-0.6285,-0.6318,-0.4651,-0.0942,-0.023,-0.0,-0.0,0.3143,0.4812,0.4827,0.3661,0.4109,0.6002,0.6061,0.6118,0.6237,0.6254,0.6176,0.603,0.603,0.6118,0.6335,0.624,0.6135,0.6053,0.6927,0.7078,0.6639,0.5834,0.6173,0.6941,0.7049,0.7737,0.8619,0.8846,0.8995,0.9244,1.0228,1.035,1.0337,1.0992,1.1009,1.0751,1.0628,1.0624,1.0624,1.0624,1.0624,1.0624,1.0624,1.117,1.1648,1.1648,1.2328,1.2962,1.3348,1.346,1.3401,1.302,1.3295,1.3313,1.2857,1.306,1.3128,1.2822,1.2774,1.2822,1.2881,1.2881,1.2881,1.2881,1.2881,1.2881,1.2881,1.2881,1.2881,1.2881,1.2881,1.2881,1.2881,1.2881,1.2881,1.2774,1.2129,1.1358,-0.1289,0.0,0.0,0.0,-0.4926,-0.5447,-0.6221,-0.6851,-0.7308,-0.7308,-0.7469,-0.7651,-0.7741,-0.782,-0.7832,0.0,-0.7913,-0.7624,-0.7394,-0.7005,-0.6548,-0.6247,-0.503,-0.472,-0.603,-0.6203,-0.621,-0.6276,-0.4062,-0.1874,-0.0077,0.2027,0.3268,0.3657,0.3928,0.4557,0.5599,0.5058,0.5292,0.6183,0.6176,0.6203,0.6338,0.6338,0.6227,0.6166,0.6166,0.62,0.6338,0.6945,0.7067,0.697,0.7807,0.8009,0.7763,0.7541,0.7651,0.7933,0.8198,0.9031,0.9862,1.003,1.0483,1.0998,1.1319,1.1261,1.0982,1.1114,1.0962,1.0715,1.0658,1.0624,1.0624,1.0624,1.0624,1.0744,1.1226,1.1593,1.1958,1.2389,1.2955,1.3409,1.3539,1.3774,1.3839,1.367,1.3784,1.3751,1.3284,1.3407,1.335,1.293,1.2881,1.2881,1.2881,1.2881,1.2881,1.2881,1.2881,1.2881,1.2881,1.2881,1.2881,1.2881,1.2881,1.2881,1.2881,1.2881,1.2881,1.2881,1.2559,1.2295,0.0352,0.0,0.0,-0.3679,-0.4556,-0.502,-0.564,-0.6328,-0.6899,-0.6899,-0.7145,-0.7316,-0.7256,-0.7256,-0.732,-0.7396,-0.7151,-0.6826,-0.6365,-0.5808,-0.5644,-0.6252,-0.4897,-0.4614,-0.6179,-0.5231,-0.4057,-0.2908,-0.0617,0.0772,0.084,0.3339,0.5182,0.6167,0.4727,0.4551,0.5854,0.6023,0.6169,0.621,0.62,0.622,0.6338,0.6338,0.6338,0.6338,0.6338,0.6338,0.6416,0.7403,0.7702,0.7707,0.8794,0.9092,0.905,0.9569,0.9394,0.8906,0.9253,1.0107,1.1046,1.1004,1.1516,1.2131,1.1837,1.1543,1.1263,1.1049,1.0782,1.0624,1.0624,1.0744,1.0926,1.0926,1.1108,1.1421,1.202,1.232,1.2626,1.3243,1.3664,1.3884,1.3774,1.386,1.3926,1.3809,1.3789,1.3721,1.3525,1.3408,1.3213,1.291,1.2881,1.2881,1.2881,1.2881,1.2881,1.2881,1.3065,1.3152,1.3152,1.3296,1.3382,1.3382,1.3248,1.3152,1.3152,1.2968,1.2881,1.2881,1.2881,1.2881,0.0,0.0,-0.0471,-0.2314,-0.3958,-0.5075,-0.5125,-0.5308,-0.5484,-0.5484,-0.5488,-0.5498,-0.5509,-0.5512,-0.5497,-0.5451,-0.5674,-0.5177,-0.3121,-0.3045,-0.3973,-0.6037,-0.6255,-0.6193,0.0,-0.2588,0.1483,0.5599,0.3838,0.2745,0.2961,0.3133,0.3976,0.577,0.5911,0.5971,0.5978,0.5892,0.5891,0.6037,0.6037,0.6115,0.6338,0.6338,0.6338,0.6338,0.6338,0.6338,0.6416,0.7403,0.7778,0.7999,0.9943,1.0607,1.0485,1.1719,1.1253,1.002,0.9887,1.0938,1.2118,1.156,1.165,1.183,1.153,1.1236,1.1002,1.0995,1.0782,1.0624,1.0624,1.1163,1.1772,1.1772,1.2389,1.2948,1.2948,1.3606,1.4145,1.4154,1.4486,1.4593,1.4165,1.3756,1.3389,1.2978,1.292,1.3066,1.3457,1.3154,1.2891,1.2881,1.2881,1.2881,1.2881,1.2881,1.2881,1.2881,1.3467,1.3768,1.3768,1.4329,1.4663,1.4663,1.405,1.3768,1.3768,1.32,1.2881,1.2881,1.2881,1.2881,0.0,0.0,-0.0669,-0.2321,-0.4011,-0.5298,-0.5287,-0.5325,-0.5428,-0.5428,-0.5369,-0.5372,-0.5379,-0.4428,-0.3242,-0.2008,-0.1865,-0.1728,-0.1195,-0.0071,-0.0992,-0.5728,-0.6335,0.0,0.0,0.0,0.0,0.5438,0.4944,0.4497,0.4597,0.4654,0.4994,0.5897,0.5803,0.5885,0.6187,0.6006,0.603,0.6183,0.6183,0.621,0.6338,0.6338,0.6338,0.6338,0.6338,0.6338,0.6416,0.7403,0.8161,0.8903,1.0086,1.0924,1.1417,1.1616,1.1381,1.0962,1.1153,1.1429,1.169,1.149,1.149,1.1557,1.1456,1.1223,1.0995,1.0995,1.0782,1.0624,1.0624,1.1226,1.1834,1.1834,1.2389,1.313,1.3666,1.4034,1.4392,1.4864,1.4665,1.4307,1.4107,1.3555,1.3047,1.29,1.2881,1.293,1.3076,1.2969,1.2881,1.2881,1.2881,1.3055,1.3457,1.3515,1.3647,1.4061,1.4294,1.4376,1.4376,1.4606,1.4698,1.4698,1.4514,1.419,1.3815,1.36,1.3286,1.2881,1.2881,1.2881,0.0,0.1218,-0.0877,-0.3103,-0.4569,-0.5376,-0.5432,-0.5432,-0.5369,-0.5369,-0.5376,-0.5386,-0.5389,-0.4439,-0.2433,0.1316,0.1923,0.1913,0.1734,0.2858,0.2208,-0.1679,-0.3287,-0.2947,0.0,0.0,0.0,0.3295,0.4795,0.5544,0.5493,0.5429,0.5552,0.5952,0.5823,0.5884,0.6176,0.6135,0.6162,0.6338,0.6338,0.6338,0.6338,0.6338,0.6338,0.6338,0.6338,0.6338,0.6412,0.7783,0.8694,0.9432,1.0613,1.1499,1.1991,1.1697,1.1516,1.1436,1.1523,1.1496,1.1396,1.1182,1.1189,1.1249,1.1149,1.0982,1.0835,1.0835,1.0701,1.0688,1.0926,1.1655,1.2328,1.2565,1.3295,1.4025,1.451,1.4628,1.4805,1.5294,1.4844,1.4316,1.4107,1.3437,1.2881,1.2881,1.2881,1.2881,1.2881,1.2881,1.2881,1.2881,1.3104,1.3372,1.3779,1.4003,1.4283,1.4663,1.4926,1.5017,1.5017,1.5242,1.5344,1.5344,1.5152,1.4824,1.4457,1.4236,1.392,1.3525,1.3334,1.3238,-0.0609,-0.0625,-0.1348,-0.4593,-0.5379,-0.5376,-0.5432,-0.5369,-0.5379,-0.5309,-0.5319,-0.5396,0.0,0.0,-0.2845,0.4037,0.5265,0.5411,0.5398,0.5398,0.5415,0.0,0.0,0.0,0.0,0.0,0.0,-0.0,0.0,0.5523,0.5576,0.545,0.5525,0.5813,0.5945,0.602,0.603,0.6169,0.6237,0.6237,0.6244,0.6247,0.6247,0.6257,0.6338,0.6338,0.6338,0.6416,0.6567,0.8466,0.9296,0.9599,1.1471,1.2218,1.2245,1.1971,1.167,1.1363,1.1089,1.1162,1.1289,1.0742,1.0748,1.0922,1.0705,1.0624,1.0624,1.0624,1.0624,1.0863,1.1586,1.2451,1.3243,1.4025,1.4805,1.541,1.541,1.541,1.541,1.541,1.5049,1.4619,1.418,1.3418,1.2881,1.2881,1.2881,1.2881,1.2881,1.2881,1.2929,1.2929,1.3467,1.3815,1.3909,1.4422,1.4755,1.4789,1.532,1.5632,1.5632,1.6194,1.6522,1.6522,1.5952,1.5632,1.5588,1.5017,1.4744,1.4709,1.4097,1.3815,-0.3446,-0.4088,-0.433,-0.5203,-0.5372,-0.5432,-0.5372,-0.5376,-0.5036,-0.3685,-0.4442,-0.5379,0.0,0.0,0.0,0.1055,0.3623,0.0,0.5376,0.5433,0.0,0.0,0.0,0.2959,0.0287,-0.0,0.0,0.0,0.0903,0.2053,0.3372,0.4802,0.5691,0.5747,0.5828,0.5915,0.6027,0.5956,0.5918,0.5918,0.6034,0.6088,0.6091,0.6207,0.6338,0.6338,0.7099,0.7403,0.748,0.877,0.9744,1.049,1.1013,1.1493,1.1971,1.1897,1.1543,1.1096,1.1015,1.0902,1.0755,1.0672,1.0672,1.0719,1.0645,1.0624,1.0624,1.0624,1.1045,1.1531,1.1772,1.287,1.3974,1.4145,1.4805,1.541,1.541,1.541,1.541,1.541,1.4805,1.417,1.374,1.3232,1.2881,1.2881,1.2881,1.2881,1.2881,1.2881,1.3065,1.3505,1.3732,1.4179,1.5039,1.5276,1.5555,1.602,1.6194,1.6281,1.6281,1.6423,1.6522,1.6522,1.6337,1.6051,1.5588,1.5454,1.5141,1.4698,1.4514,1.4236,-0.4835,-0.5403,-0.5404,-0.5425,-0.5376,-0.5428,-0.5367,-0.5429,-0.5081,-0.4097,-0.3439,0.0,0.0,0.0,0.0,0.0,0.0,0.0,0.5173,0.5372,0.5369,0.0,0.5369,0.0,0.1449,0.0451,-0.0,0.0,-0.0,0.0449,0.1477,0.4239,0.5864,0.5802,0.5788,0.5778,0.5928,0.5911,0.5901,0.5905,0.6057,0.6132,0.6135,0.622,0.6338,0.6338,0.0,0.7403,0.7859,0.8917,0.9895,1.0846,1.1187,1.1565,1.1837,1.1583,1.1276,1.0975,1.0848,1.0759,1.0624,1.0624,1.0624,1.0624,1.0624,1.0624,1.0624,1.0624,1.1163,1.1896,1.2205,1.3235,1.4273,1.4628,1.505,1.541,1.541,1.541,1.541,1.541,1.4717,1.4009,1.3818,1.3281,1.2881,1.2881,1.2881,1.2881,1.2881,1.2881,1.3152,1.3732,1.405,1.4595,1.5543,1.582,1.6139,1.6466,1.6522,1.6522,1.6522,1.6522,1.6522,1.6522,1.6522,1.6324,1.6008,1.6008,1.582,1.5466,1.5242,1.4915,-0.5332,-0.5415,-0.5312,-0.5106,-0.5046,-0.5084,-0.5338,-0.5385,-0.529,-0.4752,0.0,0.0,-0.0,0.0,-0.0,-0.0,0.0,0.1067,0.4223,0.5106,0.5376,0.5432,0.5418,0.4712,0.2961,0.1136,0.0078,0.0311,0.0546,0.0542,-0.0,0.3567,0.5722,0.6019,0.5823,0.5721,0.5772,0.5905,0.5973,0.5973,0.6146,0.623,0.623,0.6251,0.6338,0.6338,0.6412,0.0,0.7821,0.8949,0.998,1.0813,1.154,1.179,1.169,1.1176,1.0969,1.0902,1.0712,1.0624,1.0624,1.0624,1.0624,1.0624,1.0624,1.0624,1.0624,1.0624,1.1233,1.2143,1.2826,1.3666,1.4569,1.5225,1.541,1.541,1.541,1.541,1.541,1.541,1.4717,1.4077,1.4077,1.3437,1.2881,1.2881,1.2881,1.2929,1.3017,1.3017,1.3238,1.3862,1.4468,1.505,1.5676,1.6194,1.6522,1.6522,1.6522,1.6522,1.6522,1.6522,1.6522,1.6522,1.6522,1.6522,1.6522,1.6522,1.6522,1.6479,1.5952,1.5676,-0.5277,-0.5372,-0.5049,-0.3551,-0.3149,-0.3531,-0.5029,-0.5396,0.0,0.0,0.0,-0.0,-0.0,-0.0,0.0,-0.0,0.0,0.0,0.0,0.0,0.5379,0.0,0.0,0.0,0.0,0.0,0.0,0.0,0.0,0.3149,0.0156,0.2065,0.4077,0.5935,0.5762,0.563,0.5627,0.5654,0.5664,0.5671,0.5939,0.6071,0.6074,0.6203,0.6338,0.6338,0.7176,0.0,0.769,0.9447,1.0205,1.0301,1.1171,1.1356,1.1129,1.1029,1.0842,1.0628,1.0645,1.0624,1.0624,1.0624,1.0624,1.0624,1.0624,1.0624,1.0624,1.0624,1.1663,1.2818,1.2948,1.4085,1.5235,1.5352,1.541,1.541,1.541,1.541,1.541,1.541,1.4717,1.4077,1.4077,1.3437,1.2881,1.2881,1.2881,1.3055,1.36,1.3637,1.3873,1.4468,1.5096,1.5688,1.6281,1.6423,1.6522,1.6522,1.6522,1.6522,1.6522,1.6522,1.6522,1.6522,1.6522,1.6522,1.6522,1.6522,1.6522,1.6522,1.638,1.6095,-0.3421,-0.3852,-0.4003,-0.4072,-0.2664,-0.1536,-0.2407,0.0,0.0,0.0,0.0,-0.0,-0.0,0.0,0.0,0.0,0.0,0.0,0.0,0.0,0.0,0.0,0.0,0.0,0.0,0.0,0.0,0.0,0.0,0.4242,0.1583,0.3207,0.4719,0.5673,0.5597,0.5589,0.5589,0.5664,0.5739,0.5823,0.6044,0.6108,0.603,0.6105,0.6098,0.6094,0.6533,0.0,0.814,0.9066,0.9997,1.0786,1.1053,1.1116,1.0975,1.0822,1.0681,1.0624,1.0624,1.0624,1.0624,1.0624,1.0624,1.0624,1.0624,1.0624,1.0688,1.1108,1.2089,1.313,1.3545,1.451,1.541,1.541,1.541,1.541,1.541,1.541,1.541,1.541,1.4902,1.4404,1.4116,1.3623,1.3273,1.3364,1.3372,1.36,1.419,1.4549,1.4869,1.5141,1.541,1.582,1.6466,1.6522,1.6522,1.6522,1.6522,1.6522,1.6522,1.6522,1.6522,1.6522,1.6522,1.6522,1.6522,1.6522,1.6522,1.6522,1.6522,1.6324,-0.0545,-0.1164,-0.204,-0.3821,-0.2074,-0.0,-0.0,-0.0,0.0,0.0,0.0,-0.0,-0.0,0.0,0.0,0.0,0.0,0.0,0.0,0.0,0.0,0.0,0.0,0.0,0.0,0.0,0.0,0.0,0.0,0.0,0.3346,0.4778,0.5587,0.5398,0.5493,0.5542,0.5542,0.5715,0.5861,0.5983,0.6135,0.6146,0.6027,0.5996,0.5915,0.58,0.58,0.0,0.0,0.8414,0.9496,1.094,1.0923,1.0902,1.0875,1.0705,1.0624,1.0624,1.0624,1.0624,1.0624,1.0624,1.0624,1.0624,1.0624,1.0744,1.0989,1.1648,1.2512,1.3425,1.4025,1.4805,1.541,1.541,1.541,1.541,1.541,1.541,1.5381,1.5293,1.5044,1.4666,1.4072,1.3746,1.363,1.3784,1.3815,1.405,1.4789,1.532,1.5632,1.5776,1.5776,1.5996,1.6479,1.6522,1.6522,1.6522,1.6522,1.6522,1.6522,1.6522,1.6522,1.6522,1.6522,1.6522,1.6522,1.6522,1.6522,1.6522,1.6522,1.6522,0.3418,0.283,0.1414,-0.0123,-0.0247,-0.0,-0.0,0.0,0.0,0.0,-0.0,-0.0,-0.0,-0.0,0.0,0.0,0.0,0.0,0.0,0.0,0.0,0.0,0.0,0.0,0.0,0.0,0.0,0.0,0.0,0.0,0.5171,0.5348,0.5408,0.5392,0.5393,0.5449,0.5449,0.5661,0.581,0.5823,0.5976,0.6044,0.6023,0.5884,0.5817,0.58,0.58,0.0,0.0,0.7918,0.8748,0.9596,1.0347,1.0665,1.0658,1.0631,1.0624,1.0624,1.0624,1.0624,1.0624,1.0624,1.0624,1.0624,1.0624,1.1108,1.171,1.1772,1.2931,1.4094,1.4213,1.4805,1.541,1.541,1.541,1.541,1.541,1.541,1.5293,1.4922,1.4982,1.4748,1.3746,1.3679,1.3773,1.3779,1.3815,1.4226,1.5365,1.5588,1.582,1.638,1.6423,1.6423,1.6522,1.6522,1.6522,1.6522,1.6522,1.6522,1.6522,1.6522,1.6522,1.6522,1.6522,1.6522,1.6522,1.6522,1.6522,1.6522,1.6522,1.6522,0.4317,0.4074,0.3468,0.2872,0.1356,-0.0,-0.0,0.0,0.0,-0.0,-0.0,-0.0,-0.0,0.1457,0.2719,0.0,0.0,0.0,0.0,0.0,0.0,0.0,0.0,0.0,0.0,0.0,0.0,0.0,0.0,0.0,0.5408,0.5423,0.5389,0.5389,0.5484,0.5498,0.5498,0.5698,0.58,0.58,0.5864,0.5847,0.5762,0.5701,0.5623,0.5538,0.5538,0.0,0.0,0.7697,0.8571,0.9402,1.0238,1.0624,1.0624,1.0624,1.0624,1.0624,1.0624,1.0624,1.0681,1.117,1.1351,1.1351,1.1351,1.1531,1.2012,1.2984,1.3726,1.4323,1.4805,1.5167,1.541,1.541,1.541,1.5342,1.5088,1.5039,1.4912,1.4473,1.4783,1.4883,1.4154,1.4401,1.4741,1.4869,1.4858,1.5174,1.6051,1.6139,1.6238,1.6466,1.6522,1.6522,1.6522,1.6522,1.6522,1.6522,1.6522,1.6522,1.6522,1.6522,1.6522,1.6522,1.6522,1.6522,1.6522,1.6522,1.6522,1.6522,1.6522,1.6522,0.4518,0.4589,0.4574,0.4484,0.2899,0.1235,0.0,0.0,-0.0,-0.0,-0.0,0.028,0.1177,0.3091,0.4528,0.0,0.0,0.0,0.0,0.0,0.0,0.0,0.0,0.0,0.0,0.0,0.0,0.0,0.0,0.0,0.5428,0.5428,0.5428,0.5428,0.5511,0.5569,0.5521,0.5708,0.5779,0.5739,0.5739,0.5688,0.5589,0.5542,0.5464,0.5428,0.5428,0.0,0.0,0.7632,0.8484,0.9402,1.0238,1.0624,1.0624,1.0624,1.0624,1.0624,1.0624,1.0624,1.0744,1.1531,1.1834,1.1888,1.2381,1.2496,1.2749,1.3906,1.4382,1.4688,1.5225,1.541,1.541,1.541,1.5312,1.5204,1.5068,1.4954,1.478,1.453,1.5016,1.5271,1.4618,1.5012,1.5452,1.5591,1.5588,1.582,1.6423,1.6522,1.6522,1.6522,1.6522,1.6522,1.6522,1.6522,1.6522,1.6522,1.6522,1.6522,1.6522,1.6522,1.6522,1.6522,1.6522,1.6522,1.6522,1.6522,1.6522,1.6522,1.6522,1.6522,0.4402,0.4759,0.4657,0.4518,0.448,0.4027,0.0,0.106,-0.0,-0.0,-0.0,0.0897,0.3884,0.4458,0.4502,0.452,0.0,0.0,0.0,0.0,0.0,0.0,0.0,0.0,0.0,0.0,0.0,0.0,0.0,0.0,0.5428,0.5428,0.5428,0.5428,0.5511,0.5518,0.5432,0.5654,0.5732,0.5593,0.5593,0.5593,0.5586,0.5433,0.5428,0.0,0.0,0.0,0.0,0.7632,0.8484,0.9402,1.0238,1.0624,1.0624,1.0624,1.0624,1.0624,1.0624,1.0624,1.0744,1.1531,1.1834,1.2074,1.3717,1.4213,1.4213,1.4213,1.4746,1.541,1.541,1.541,1.541,1.541,1.5098,1.4952,1.554,1.5404,1.5151,1.5235,1.5831,1.5928,1.4891,1.5197,1.5588,1.5588,1.5588,1.582,1.6423,1.6522,1.6522,1.6522,1.6522,1.6522,1.6522,1.6522,1.6522,1.6522,1.6522,1.6522,1.6522,1.6522,1.6522,1.6522,1.6522,1.6522,1.6522,1.6522,1.6522,1.6522,1.6522,1.6522,0.2467,0.3661,0.4796,0.4573,0.449,0.4386,0.3869,0.3426,0.2471,0.0448,-0.0,0.028,0.1233,0.3091,0.4505,0.4474,0.4585,0.0,0.0,0.0,0.0,0.0,0.0,0.0,0.0,0.0,0.0,0.0,0.0,0.0,0.5428,0.5428,0.5428,0.5428,0.5511,0.5515,0.5428,0.5559,0.5583,0.5433,0.5433,0.5433,0.5433,0.5452,0.5428,0.0,0.0,0.0,0.0,0.8032,0.8683,0.8549,1.004,1.0624,1.0624,1.0624,1.0624,1.0624,1.0624,1.0624,1.0807,1.2212,1.2634,1.294,1.451,1.4628,1.4323,1.4874,1.5167,1.541,1.541,1.541,1.541,1.541,1.5088,1.4864,1.5203,1.4914,1.4694,1.4882,1.5395,1.57,1.5344,1.582,1.6238,1.6238,1.6238,1.6281,1.6479,1.6522,1.6522,1.6522,1.6522,1.6522,1.6522,1.6522,1.6522,1.6522,1.6522,1.6522,1.6522,1.6522,1.6522,1.6522,1.6522,1.6522,1.6522,1.6522,1.6522,1.6522,1.6522,1.6522,0.0,0.1762,0.3671,0.3431,0.3922,0.4333,0.3755,0.4107,0.3949,0.2076,0.0784,-0.0,-0.0,0.1512,0.2992,0.3519,0.3621,0.0,0.0,0.0,0.0,0.0,0.0,0.0,0.0,0.0,0.0,0.0,0.0,0.0,0.5428,0.5416,0.542,0.5428,0.5511,0.5545,0.545,0.5542,0.5511,0.5428,0.5428,0.5428,0.5428,0.5428,0.5554,0.0,0.0,0.0,0.0,0.849,0.9005,0.8613,1.004,1.0624,1.0624,1.0624,1.0624,1.0624,1.0624,1.0624,1.087,1.2458,1.3425,1.4085,1.5108,1.505,1.4746,1.5235,1.541,1.541,1.541,1.5293,1.5176,1.5176,1.4727,1.4487,1.5078,1.4821,1.4679,1.5255,1.5688,1.5952,1.5952,1.6238,1.6522,1.6522,1.6522,1.6522,1.6522,1.6522,1.6522,1.6522,1.6522,1.6522,1.6522,1.6522,1.6522,1.6522,1.6522,1.6522,1.6522,1.6522,1.6522,1.6522,1.6522,1.6522,1.6522,1.6522,1.6522,1.6522,1.6522,1.6409,0.0,-0.0902,0.1326,0.1285,0.2732,0.3814,0.2512,0.3251,0.0,0.4172,0.1964,-0.0,-0.0,-0.0,0.0447,0.1847,0.2069,0.0,0.0,0.0,0.0,0.0,0.0,0.0,0.0,0.0,0.0,0.0,0.0,0.0,0.5428,0.5498,0.5511,0.5449,0.5504,0.5576,0.5576,0.5576,0.5501,0.5428,0.5428,0.5428,0.5428,0.5428,0.5881,0.0,0.0,0.0,0.0,0.8941,0.9274,0.9402,1.0238,1.0624,1.0624,1.0624,1.0624,1.0624,1.0624,1.0624,1.087,1.2458,1.4094,1.541,1.541,1.541,1.541,1.541,1.541,1.54,1.5371,1.5078,1.4775,1.4746,1.4111,1.3841,1.5039,1.4987,1.5062,1.625,1.6522,1.6522,1.6522,1.6522,1.6522,1.6522,1.6522,1.6522,1.6522,1.6522,1.6522,1.6522,1.6522,1.6522,1.6522,1.6522,1.6522,1.6522,1.6522,1.6522,1.6522,1.6522,1.6522,1.6522,1.6522,1.6522,1.6522,1.6522,1.6497,1.6459,1.6497,1.6208,-0.5039,0.0,-0.2647,-0.1167,0.0111,0.1283,0.0,0.1621,0.0,0.0,0.0,-0.0,-0.0,-0.0,0.0113,0.0463,0.0527,0.0,0.0,0.0,0.0,0.0,0.0,0.0,0.0,0.0,0.0,0.0,0.0,0.5428,0.5428,0.5463,0.5454,0.5535,0.5457,0.5416,0.5416,0.5416,0.5463,0.5428,0.5428,0.5428,0.5428,0.5428,0.5881,0.0,0.0,0.0,0.8091,0.8941,0.9274,0.9402,1.0238,1.0624,1.0624,1.0624,1.0624,1.0624,1.0624,1.0624,1.087,1.2458,1.4094,1.541,1.541,1.541,1.541,1.541,1.541,1.5342,1.501,1.4863,1.4697,1.4365,1.3887,1.3841,1.5039,1.4987,1.5062,1.625,1.6522,1.6522,1.6522,1.6522,1.6522,1.6522,1.6522,1.6522,1.6522,1.6522,1.6522,1.6522,1.6522,1.6522,1.6522,1.6522,1.6522,1.6522,1.6522,1.6522,1.6522,1.6522,1.6522,1.6522,1.6522,1.6522,1.6522,1.6522,1.6308,1.5906,1.6321,1.5994,-0.5058,-0.4802,-0.4258,-0.3121,-0.2454,-0.1673,0.0,0.0,0.0,0.0,0.0,0.0,-0.0,0.0,0.0,0.0,0.0,0.0,0.0,0.0,0.0,0.0,0.0,0.0,0.0,0.0,0.0,0.0,0.0,0.5428,0.5428,0.543,0.5471,0.5484,0.5471,0.5467,0.5467,0.5463,0.5428,0.5428,0.5428,0.5428,0.5428,0.5815,0.6465,0.0,0.0,0.0,0.9256,0.9716,0.9919,0.9913,1.0434,1.0537,1.0354,1.0354,1.0274,1.0221,1.0221,1.0784,1.1624,1.247,1.3826,1.5088,1.4883,1.4824,1.4902,1.5303,1.5273,1.5068,1.4844,1.4492,1.4141,1.3906,1.3709,1.3913,1.4807,1.5062,1.5377,1.6337,1.6522,1.6522,1.6522,1.6522,1.6522,1.6522,1.6522,1.6522,1.6522,1.6522,1.6522,1.6522,1.6522,1.6522,1.6522,1.6522,1.6522,1.6522,1.6522,1.6522,1.6522,1.6522,1.6522,1.6522,1.6522,1.6522,1.6522,1.6522,1.6358,1.6082,1.6371,1.607,-0.4519,-0.4525,-0.4477,-0.4477,-0.4487,-0.415,0.0,0.0,0.0,0.0,0.0,0.0,0.0,0.0,0.0,0.0,0.0,0.0,0.0,0.0,0.0,0.0,0.0,0.0,0.0,0.0,0.0,0.0,0.0,0.5428,0.5428,0.5484,0.5494,0.5432,0.5488,0.5555,0.5555,0.5426,0.5428,0.5428,0.5428,0.5491,0.562,0.633,0.7242,0.8226,0.0,0.0,1.0561,1.0428,1.0498,1.0618,1.0571,1.0341,1.0114,1.0067,0.9893,0.9737,0.9795,1.0987,1.2505,1.2456,1.348,1.4629,1.4326,1.4136,1.4243,1.5098,1.501,1.4678,1.4609,1.4053,1.3486,1.3428,1.3598,1.3956,1.456,1.5186,1.5776,1.638,1.6522,1.6522,1.6522,1.6522,1.6522,1.6522,1.6522,1.6522,1.6522,1.6522,1.6522,1.6522,1.6522,1.6522,1.6522,1.6522,1.6522,1.6522,1.6522,1.6552,1.6637,1.6637,1.6637,1.6637,1.6552,1.6522,1.6522,1.6522,1.6471,1.6396,1.6471,1.6183,-0.4519,-0.4519,-0.4522,-0.4522,-0.4473,-0.4425,0.0,0.0,0.0,0.0,0.0,0.0,0.0,0.0,0.0,0.0,0.0,0.0,0.0,0.0,0.0,0.0,0.0,0.0,0.0,0.0,0.0,0.0,0.0,0.5428,0.5428,0.5452,0.5452,0.5428,0.5452,0.5463,0.5463,0.5439,0.5428,0.5428,0.5428,0.5815,0.6527,0.6654,0.7567,0.9075,0.0,0.9128,1.0561,0.9786,0.9913,1.0598,1.0281,1.016,1.0087,0.984,0.9726,0.9795,1.0351,1.1213,1.2097,1.2671,1.346,1.4287,1.459,1.4434,1.4184,1.4736,1.457,1.415,1.3799,1.3603,1.3418,1.3066,1.3423,1.3956,1.456,1.5186,1.5776,1.638,1.6522,1.6522,1.6522,1.6522,1.6522,1.6522,1.6522,1.6522,1.6522,1.6522,1.6522,1.6522,1.6522,1.6522,1.6522,1.6522,1.6522,1.6522,1.6522,1.671,1.7146,1.7188,1.7188,1.7188,1.671,1.6522,1.6522,1.6522,1.6283,1.5831,1.6308,1.5969,-0.4519,-0.4519,-0.4519,-0.4519,-0.4522,-0.4525,0.0,0.0,0.0,0.0,0.0,0.0,0.0,0.0,0.0,0.0,0.0,0.0,0.0,0.0,0.0,0.0,0.0,0.0,0.0,0.0,0.0,0.0,0.0,0.0,0.5428,0.5428,0.5428,0.5428,0.5428,0.5428,0.5428,0.5428,0.5428,0.5428,0.5881,0.6334,0.6719,0.7697,0.8549,0.9274,0.0,0.9843,1.0561,1.0174,1.0238,1.0611,1.0408,1.016,0.9846,0.9552,0.9714,1.0178,1.0571,1.1519,1.2541,1.2565,1.3097,1.3789,1.376,1.3613,1.3496,1.3701,1.3769,1.375,1.3555,1.334,1.3214,1.3326,1.3826,1.4468,1.505,1.5644,1.6194,1.6436,1.6522,1.6522,1.6522,1.6522,1.6522,1.6522,1.6522,1.6522,1.6522,1.6522,1.6522,1.6522,1.6752,1.6909,1.6909,1.7188,1.7105,1.6552,1.6522,1.6752,1.7271,1.7312,1.7312,1.7312,1.7076,1.6795,1.6522,1.6522,1.6384,1.6145,1.6409,1.6245,-0.4519,-0.4519,-0.4519,0.0,0.0,0.0,0.0,0.0,0.0,0.0,0.0,0.0,0.0,0.0,0.0,0.0,0.0,0.0,0.0,0.0,0.0,0.0,0.0,0.0,0.0,0.0,0.0,0.0,0.0,0.0,0.5428,0.5428,0.5428,0.5428,0.5428,0.5428,0.5428,0.5428,0.5428,0.5428,0.6268,0.6785,0.7046,0.8613,0.9402,0.9652,1.0229,1.0454,1.0448,1.045,1.0416,1.0409,1.0281,0.9933,0.9446,0.9384,0.9771,1.0386,1.0801,1.1756,1.2751,1.2513,1.2842,1.332,1.3096,1.2959,1.29,1.2998,1.3184,1.3359,1.3359,1.3125,1.3065,1.3637,1.4283,1.488,1.5454,1.6051,1.6522,1.6522,1.6522,1.6522,1.6522,1.6522,1.6522,1.6522,1.6522,1.6522,1.6522,1.6522,1.6522,1.6522,1.6993,1.7353,1.7463,1.7867,1.7747,1.6909,1.6993,1.7229,1.7666,1.7666,1.7666,1.7666,1.7422,1.7118,1.668,1.6552,1.6522,1.6522,1.6522,1.6522,-0.4519,-0.4519,-0.4519,-0.4477,0.0,0.0,0.0,0.0,0.0,0.0,0.0,0.0,0.0,0.0,0.0,0.0,0.0,0.0,0.0,0.0,0.0,0.0,0.0,0.0,0.0,0.0,0.0,0.0,0.0,0.0,0.5428,0.5428,0.5428,0.5428,0.5428,0.5428,0.5428,0.5428,0.5428,0.5428,0.6268,0.7111,0.7962,0.8877,0.9722,1.0478,1.0267,1.0147,1.0127,0.986,0.9746,0.9719,0.9446,0.9145,0.8918,0.9553,0.9799,1.0058,1.1285,1.1796,1.2004,1.2665,1.2871,1.2998,1.335,1.3193,1.2959,1.335,1.3203,1.293,1.293,1.29,1.3065,1.3637,1.4283,1.488,1.5454,1.6051,1.6522,1.6522,1.6522,1.6522,1.6522,1.6522,1.6522,1.6522,1.6522,1.6522,1.6522,1.6522,1.6522,1.6522,1.6993,1.7504,1.7987,1.8066,1.8066,1.7987,1.8458,1.8727,1.8779,1.8779,1.8779,1.8779,1.7827,1.7271,1.7229,1.6752,1.6522,1.6522,1.6522,1.6522,-0.4525,-0.4473,-0.4477,0.0,0.0,0.0,0.0,0.0,0.0,0.0,0.0,0.0,0.0,0.0,0.0,0.0,0.0,0.0,0.0,0.0,0.0,0.0,0.0,0.0,0.0,0.0,0.0,0.0,0.0,0.0,0.5428,0.5428,0.5428,0.5428,0.5428,0.5686,0.6203,0.6203,0.6465,0.7055,0.7372,0.7962,0.8812,0.9716,1.014,1.0281,1.0167,1.0013,0.984,0.9733,0.9686,0.9653,0.9352,0.9117,0.9126,0.986,1.0431,1.1003,1.1843,1.2415,1.2843,1.291,1.2881,1.291,1.3066,1.3008,1.291,1.3076,1.3272,1.3372,1.3017,1.32,1.36,1.4247,1.4824,1.541,1.6008,1.6337,1.6522,1.6522,1.6522,1.6522,1.6522,1.6522,1.6522,1.6522,1.6522,1.6522,1.6522,1.6522,1.6522,1.6522,1.7271,1.8145,1.9006,1.9095,1.9095,1.9095,1.865,1.8535,1.8893,1.8893,1.8893,1.8893,1.8496,1.8145,1.7787,1.7271,1.6993,1.6993,1.668,1.6522,-0.4477,-0.4252,-0.4082,0.0,0.0,0.0,0.0,0.0,0.0,0.0,0.0,0.0,0.0,0.0,0.0,0.0,0.0,0.0,0.0,0.0,0.0,0.0,0.0,0.0,0.0,0.0,0.0,0.0,0.0,0.0,0.0,0.5686,0.5815,0.5815,0.6079,0.6531,0.7111,0.7111,0.7567,0.8415,0.8276,0.8601,0.9332,1.0077,1.0307,1.0107,0.992,0.9726,0.9539,0.9446,0.9406,0.9385,0.9185,0.9207,0.9465,1.0203,1.093,1.1662,1.2256,1.2836,1.3262,1.2969,1.2881,1.2881,1.2881,1.2881,1.2929,1.3152,1.3457,1.3732,1.3515,1.3789,1.4236,1.4835,1.532,1.5776,1.638,1.6522,1.6522,1.6522,1.6522,1.6522,1.6522,1.6522,1.6522,1.6522,1.6522,1.6522,1.6522,1.6637,1.6879,1.7229,1.7907,1.8727,1.9603,1.969,1.969,1.969,1.9006,1.8765,1.9132,1.9169,1.9169,1.9169,1.9006,1.8727,1.8341,1.7626,1.7312,1.7312,1.6752,1.6522,-0.448,-0.3741,0.0,0.0,0.0,0.0,0.0,0.0,0.0,0.0,0.0,0.0,0.0,0.0,0.0,0.0,0.0,0.0,0.0,0.0,0.0,0.0,0.0,0.0,0.0,0.0,0.0,0.0,0.0,0.0,0.0,0.6203,0.6719,0.6719,0.7567,0.8027,0.8027,0.8021,0.8415,0.9326,0.8986,0.8998,0.9326,0.9871,1.0107,1.0074,0.9435,0.9183,0.9157,0.8925,0.8804,0.8804,0.8804,0.9211,0.9865,1.0559,1.1216,1.1922,1.2657,1.2881,1.2881,1.2881,1.2881,1.2881,1.2881,1.2881,1.3017,1.3637,1.3815,1.3956,1.456,1.4698,1.488,1.5454,1.5588,1.5776,1.638,1.6522,1.6522,1.6522,1.6522,1.6522,1.6522,1.6522,1.6522,1.6522,1.6522,1.6522,1.6522,1.6993,1.7706,1.8779,1.8893,1.9132,1.9639,1.969,1.969,1.969,1.969,1.969,1.969,1.969,1.969,1.969,1.9169,1.8893,1.8893,1.7827,1.7312,1.7312,1.6752,1.6522,-0.3624,0.0,0.0,0.0,0.0,0.0,0.0,0.0,0.0,0.0,0.0,0.0,0.0,0.0,0.0,0.0,0.0,0.0,0.0,0.0,0.0,0.0,0.0,0.0,0.0,0.0,0.0,0.0,0.0,0.0,0.0,0.6588,0.6981,0.7567,0.7897,0.8285,0.8877,0.8691,0.898,0.9865,0.9582,0.9594,0.9865,0.9827,0.9699,0.9435,0.9263,0.907,0.8931,0.8844,0.8804,0.8804,0.8804,0.9211,0.9865,1.0559,1.1216,1.1922,1.2657,1.2881,1.2881,1.2881,1.2881,1.2881,1.2881,1.2881,1.3017,1.3637,1.4097,1.456,1.5186,1.5644,1.592,1.5676,1.5908,1.6281,1.6479,1.6522,1.6522,1.6522,1.6522,1.6522,1.6522,1.6522,1.6522,1.6522,1.6837,1.7188,1.7585,1.7747,1.8145,1.8817,1.8893,1.9132,1.9639,1.969,1.969,1.969,1.969,1.969,1.969,1.969,1.969,1.969,1.953,1.9442,1.9442,1.838,1.7867,1.7827,1.6909,1.6308,-0.3738,0.0,0.0,0.0,0.0,0.0,0.0,0.0,0.0,0.0,0.0,0.0,0.0,0.0,0.0,0.0,0.0,0.0,0.0,0.0,0.0,0.0,0.0,0.0,0.0,0.0,0.0,0.0,0.0,0.0,0.0,0.7229,0.7626,0.8131,0.8511,0.8957,0.9463,0.9229,0.9443,0.994,0.9646,0.9599,0.976,0.9586,0.9412,0.9176,0.9064,0.8971,0.8804,0.8804,0.8804,0.8804,0.9106,0.9614,1.0261,1.0965,1.1625,1.2295,1.2774,1.2881,1.2881,1.2881,1.2881,1.2881,1.2881,1.3065,1.3372,1.4014,1.4595,1.5197,1.5776,1.6238,1.6423,1.6051,1.6238,1.6522,1.6522,1.6522,1.6522,1.6522,1.6522,1.6522,1.6522,1.6522,1.6522,1.6522,1.6951,1.7585,1.8341,1.8419,1.8612,1.9169,1.9207,1.9369,1.969,1.969,1.969,1.969,1.969,1.969,1.969,1.969,1.969,1.969,1.969,1.969,1.969,1.8612,1.8106,1.8066,1.6993,1.6333,0.0,0.0,0.0,0.0,0.0,0.0,0.0,0.0,0.0,0.0,0.0,0.0,0.0,0.0,0.0,0.0,0.0,0.0,0.0,0.0,0.0,0.0,0.0,0.0,0.0,0.0,0.0,0.0,0.0,0.0,0.0,0.8121,0.8416,0.8534,0.9259,0.9686,0.9686,0.9659,0.9646,0.9639,0.9345,0.9143,0.9143,0.9143,0.9143,0.913,0.8925,0.8804,0.8804,0.8804,0.8804,0.8857,0.9562,1.0218,1.0864,1.1566,1.2295,1.2881,1.2881,1.2881,1.2881,1.2881,1.2881,1.2881,1.2881,1.3324,1.392,1.4514,1.5141,1.5732,1.6324,1.6522,1.6522,1.6522,1.6522,1.6522,1.6522,1.6522,1.6522,1.6522,1.6522,1.6522,1.6522,1.6522,1.6522,1.6637,1.7076,1.7747,1.8817,1.8968,1.9169,1.9639,1.969,1.969,1.969,1.969,1.969,1.969,1.969,1.969,1.969,1.969,1.969,1.969,1.969,1.969,1.969,1.865,1.8145,1.8066,1.7034,1.6527,0.0,0.0,0.0,0.0,0.0,0.0,0.0,0.0,0.0,0.0,0.0,0.0,0.0,0.0,0.0,0.0,0.0,0.0,0.0,0.0,0.0,0.0,0.0,0.0,0.0,0.0,0.0,0.0,0.0,0.0,0.8142,0.8328,0.8715,0.9382,0.9621,0.9686,0.9686,0.9452,0.9339,0.0,0.9038,0.8898,0.8898,0.8898,0.8898,0.8898,0.8838,0.8804,0.8804,0.8804,0.8804,0.8857,0.9562,1.0218,1.0864,1.1566,1.2295,1.2881,1.2881,1.2881,1.2881,1.2881,1.2881,1.2881,1.2881,1.3324,1.392,1.4514,1.5141,1.5732,1.6324,1.6522,1.6522,1.6522,1.6522,1.6522,1.6522,1.6522,1.6522,1.6522,1.6522,1.6522,1.6522,1.6522,1.6795,1.7626,1.7867,1.8341,1.9406,1.953,1.9566,1.969,1.969,1.969,1.969,1.969,1.969,1.969,1.969,1.969,1.969,1.969,1.969,1.969,1.969,1.969,1.969,1.9043,1.8496,1.8066,1.7422,1.6677,0.0,0.0,0.0,0.0,0.0,0.0,0.0,0.0,0.0,0.0,0.0,0.0,0.0,0.0,0.0,0.0,0.0,0.0,0.0,0.0,0.0,0.0,0.0,0.0,0.0,0.0,0.0,0.0,0.0,0.789,0.8763,0.8639,0.88,0.9265,0.9265,0.9265,0.9265,0.9112,0.9031,0.9031,0.8878,0.8804,0.8804,0.8804,0.8804,0.8804,0.8804,0.8804,0.8804,0.8804,0.9008,0.9361,1.0012,1.0669,1.1366,1.2089,1.2559,1.2881,1.2881,1.2881,1.2881,1.2881,1.2881,1.2881,1.2881,1.3515,1.4283,1.4606,1.5332,1.6095,1.6423,1.6522,1.6522,1.6522,1.6522,1.6522,1.6522,1.6522,1.6522,1.6522,1.6522,1.6522,1.6522,1.671,1.7229,1.8341,1.8496,1.8779,1.9603,1.969,1.969,1.969,1.969,1.969,1.969,1.969,1.969,1.969,1.969,1.969,1.969,1.969,1.969,1.969,1.969,1.969,1.969,1.9169,1.8612,1.8106,1.7544,1.6879,0.0,0.0,0.0,0.0,0.0,0.0,0.0,0.0,0.0,0.0,0.0,0.0,0.0,0.0,0.0,0.0,0.0,0.0,0.0,0.0,0.0,0.0,0.0,0.0,0.0,0.0,0.0,0.0,0.0,0.8367,0.911,0.8938,0.8804,0.8804,0.8804,0.8804,0.8804,0.8804,0.8804,0.8804,0.8804,0.8804,0.8804,0.8804,0.8804,0.8804,0.8804,0.8804,0.8811,0.891,0.9309,0.9865,1.0669,1.1316,1.1873,1.2618,1.2881,1.2881,1.2881,1.2881,1.2881,1.2881,1.2881,1.2929,1.3017,1.3836,1.4698,1.4835,1.5656,1.6522,1.6522,1.6522,1.6522,1.6522,1.6522,1.6522,1.6522,1.6522,1.6522,1.6522,1.6522,1.6522,1.6637,1.6993,1.7666,1.8727,1.8893,1.9095,1.9639,1.969,1.969,1.969,1.969,1.969,1.969,1.969,1.969,1.969,1.969,1.969,1.969,1.969,1.969,1.969,1.969,1.969,1.969,1.9244,1.8765,1.8224,1.7706,1.7188,0.0,0.0,0.0,0.0,0.0,0.0,0.0,0.0,0.0,0.0,0.0,0.0,0.0,0.0,0.0,0.0,0.0,0.0,0.0,0.0,0.0,0.0,0.0,0.0,0.0,0.0,0.0,0.0,0.8318,0.8751,0.8864,0.8831,0.8804,0.8804,0.8804,0.8804,0.8804,0.8804,0.8804,0.8804,0.8804,0.8804,0.8804,0.8804,0.8804,0.8804,0.8804,0.8804,0.8857,0.9413,0.971,0.9917,1.1166,1.1715,1.1873,1.2618,1.2881,1.2881,1.2881,1.2881,1.2881,1.2881,1.2881,1.3017,1.3505,1.4154,1.4789,1.532,1.5964,1.6522,1.6522,1.6522,1.6522,1.6522,1.6522,1.6522,1.6522,1.6522,1.6522,1.6522,1.6522,1.6637,1.7118,1.7229,1.7666,1.8727,1.8893,1.9095,1.9639,1.969,1.969,1.969,1.969,1.969,1.969,1.969,1.969,1.969,1.969,1.969,1.969,1.969,1.969,1.969,1.969,1.969,1.969,1.9639,1.9332,1.8779,1.8263,1.7947,0.0,0.0,0.0,0.0,0.0,0.0,0.0,0.0,0.0,0.0,0.0,0.0,0.0,0.0,0.0,0.0,0.0,0.0,0.0,0.0,0.0,0.0,0.0,0.0,0.0,0.0,0.0,0.0,0.8593,0.8804,0.8804,0.8804,0.8804,0.8804,0.8804,0.8804,0.8804,0.8804,0.8804,0.8804,0.8804,0.8804,0.8804,0.8804,0.8804,0.8804,0.9211,0.9361,0.9413,1.0064,1.0568,1.0965,1.1566,1.203,1.2452,1.2774,1.2881,1.2881,1.2881,1.2881,1.2881,1.2881,1.2881,1.3017,1.3637,1.4236,1.4835,1.541,1.6051,1.6522,1.6522,1.6522,1.6522,1.6522,1.6522,1.6522,1.6522,1.6522,1.6595,1.6879,1.6951,1.7188,1.8066,1.8224,1.8458,1.9244,1.9369,1.9442,1.969,1.969,1.969,1.969,1.969,1.969,1.969,1.969,1.969,1.969,1.969,1.969,1.969,1.969,1.969,1.969,1.969,1.969,1.969,1.969,1.9406,1.8893,1.865,1.838,0.0,0.0,0.0,0.0,0.0,0.0,0.0,0.0,0.0,0.0,0.0,0.0,0.0,0.0,0.0,0.0,0.0,0.0,0.0,0.0,0.0,0.0,0.0,0.0,0.0,0.0,0.0,0.0,0.8804,0.8804,0.8804,0.8804,0.8804,0.8804,0.8804,0.8804,0.8804,0.8962,0.9061,0.9061,0.9211,0.9316,0.9316,0.9316,0.9316,0.9309,0.9666,0.9917,1.0115,1.0762,1.1366,1.1814,1.2021,1.2403,1.2881,1.2881,1.2881,1.2881,1.2881,1.2881,1.2881,1.2881,1.3017,1.3238,1.3873,1.4457,1.5062,1.5676,1.6139,1.6522,1.6522,1.6522,1.6522,1.6522,1.6522,1.6522,1.6522,1.6522,1.668,1.7188,1.7312,1.7626,1.8727,1.8893,1.908,1.9603,1.969,1.969,1.969,1.969,1.969,1.969,1.969,1.969,1.969,1.969,1.969,1.969,1.969,1.969,1.969,1.969,1.969,1.969,1.969,1.969,1.969,1.969,1.9479,1.9095,1.8968,1.8765,0.0,0.0,0.0,0.0,0.0,0.0,0.0,0.0,0.0,0.0,0.0,0.0,0.0,0.0,0.0,0.0,0.0,0.0,0.0,0.0,0.0,0.0,0.0,0.0,0.0,0.0,0.0,0.0,0.8804,0.8804,0.8804,0.8804,0.8804,0.8804,0.8804,0.8804,0.8804,0.9413,0.9762,0.9762,1.0415,1.0712,1.0712,1.0712,1.0712,1.0661,1.0064,1.0167,1.0813,1.1458,1.1765,1.1864,1.2559,1.2881,1.2881,1.2881,1.2881,1.2881,1.2881,1.2881,1.2881,1.2881,1.3286,1.3873,1.4468,1.505,1.5676,1.6281,1.6479,1.6522,1.6522,1.6522,1.6522,1.6522,1.6522,1.6522,1.6522,1.6522,1.668,1.7188,1.7312,1.7626,1.8727,1.8893,1.908,1.9603,1.969,1.969,1.969,1.969,1.969,1.969,1.969,1.969,1.969,1.969,1.969,1.969,1.969,1.969,1.969,1.969,1.969,1.969,1.969,1.969,1.969,1.969,1.969,1.9639,1.9132,1.9169,0.0,0.0,0.0,0.0,0.0,0.0,0.0,0.0,0.0,0.0,0.0,0.0,0.0,0.0,0.0,0.0,0.0,0.0,0.0,0.0,0.0,0.0,0.0,0.0,0.0,0.0,0.0,0.0,0.0,0.8804,0.8804,0.8804,0.8804,0.8804,0.8804,0.8804,0.8804,0.9465,0.9814,0.9814,1.0466,1.0813,1.0813,1.0813,1.1015,1.1416,1.1166,1.1216,1.1516,1.2187,1.2501,1.255,1.2774,1.2881,1.2881,1.2881,1.2881,1.2881,1.2881,1.2881,1.2881,1.2881,1.3334,1.3909,1.4514,1.5096,1.5732,1.6324,1.6522,1.6522,1.6522,1.6522,1.6522,1.6522,1.6522,1.6522,1.6522,1.6522,1.6752,1.7626,1.7827,1.8145,1.9244,1.9406,1.9479,1.969,1.969,1.969,1.969,1.969,1.969,1.969,1.969,1.969,1.969,1.969,1.969,1.969,1.969,1.969,1.969,1.969,1.969,1.969,1.969,1.969,1.969,1.969,1.969,1.969,1.9479,1.953,0.0,0.0,0.0,0.0,0.0,0.0,0.0,0.0,0.0,0.0,0.0,0.0,0.0,0.0,0.0,0.0,0.0,0.0,0.0,0.0,0.0,0.0,0.0,0.0,0.0,0.0,0.0,0.0,0.0,0.0,0.8804,0.8804,0.8804,0.8804,0.9008,0.9159,0.9159,0.9814,1.0269,1.0466,1.1174,1.1484,1.1484,1.1484,1.1733,1.2187,1.2187,1.2187,1.2187,1.2715,1.2881,1.2881,1.2881,1.2881,1.2881,1.2881,1.2881,1.2881,1.2881,1.2881,1.2881,1.2881,1.3467,1.419,1.456,1.5242,1.6008,1.638,1.6522,1.6522,1.6522,1.6522,1.6522,1.6522,1.6522,1.6522,1.6522,1.6522,1.6837,1.7907,1.8106,1.8458,1.953,1.969,1.969,1.969,1.969,1.969,1.969,1.969,1.969,1.969,1.969,1.969,1.969,1.969,1.969,1.969,1.969,1.969,1.969,1.969,1.969,1.969,1.969,1.969,1.969,1.969,1.969,1.969,1.969,1.945,0.0,0.0,0.0,0.0,0.0,0.0,0.0,0.0,0.0,0.0,0.0,0.0,0.0,0.0,0.0,0.0,0.0,0.0,0.0,0.0,0.0,0.0,0.0,0.0,0.0,0.0,0.0,0.0,0.8804,0.8804,0.8804,0.8804,0.8857,0.8857,0.951,0.9814,0.9814,1.0517,1.1166,1.1814,1.2559,1.2881,1.2881,1.2881,1.2881,1.2881,1.2881,1.2881,1.2881,1.2881,1.2881,1.2881,1.2881,1.2881,1.2881,1.2881,1.2881,1.2881,1.2881,1.2881,1.2881,1.2929,1.3752,1.4698,1.4698,1.5567,1.6522,1.6522,1.6522,1.6522,1.6522,1.6522,1.6522,1.6522,1.6522,1.6522,1.6522,1.6552,1.6879,1.7907,1.8106,1.8458,1.953,1.969,1.969,1.969,1.969,1.969,1.969,1.969,1.969,1.969,1.969,1.969,1.969,1.969,1.969,1.969,1.969,1.969,1.969,1.969,1.969,1.969,1.969,1.969,1.969,1.969,1.969,1.969,1.966,1.8957,-0.4033,0.0,0.0,0.0,0.0,0.0,0.0,0.0,0.0,0.0,0.0,0.0,0.0,0.0,0.0,0.0,0.0,0.0,0.0,0.0,0.0,0.0,0.0,0.0,0.0,0.0,0.0,0.0,0.8804,0.8804,0.8804,0.9263,0.9762,1.021,1.0415,1.0517,1.0517,1.1166,1.1616,1.1814,1.2559,1.2881,1.2881,1.2881,1.2881,1.2881,1.2881,1.2881,1.2881,1.2881,1.2881,1.2881,1.2881,1.2881,1.2881,1.2881,1.2881,1.2881,1.2881,1.2881,1.2968,1.342,1.4061,1.4789,1.5231,1.5876,1.6522,1.6522,1.6522,1.6522,1.6522,1.6522,1.6522,1.6522,1.6795,1.7076,1.7076,1.7394,1.7747,1.8027,1.8419,1.8893,1.9566,1.969,1.969,1.969,1.969,1.969,1.969,1.969,1.969,1.969,1.969,1.969,1.969,1.969,1.969,1.969,1.969,1.969,1.969,1.969,1.969,1.969,1.969,1.969,1.969,1.969,1.969,1.9675,1.9196,1.8268,0.0,0.0,0.0,0.0,0.0,0.0,0.0,-0.0891,0.0,0.0,0.0,0.0,0.0,0.0,0.0,0.0,0.0,0.0,0.0,0.0,0.0,0.0,0.0,0.0,0.0,0.8804,0.8804,0.8804,0.8804,0.891,0.9211,1.0115,1.0669,1.0813,1.1065,1.1216,1.1216,1.1616,1.1972,1.2236,1.2715,1.2881,1.2881,1.2881,1.2881,1.2881,1.2881,1.2881,1.2881,1.2881,1.2881,1.2881,1.2881,1.2881,1.2881,1.2881,1.2881,1.2929,1.32,1.3286,1.3372,1.3967,1.4595,1.5141,1.5499,1.6008,1.6522,1.6522,1.6522,1.6522,1.6522,1.6522,1.6552,1.6795,1.7076,1.7353,1.7585,1.8066,1.8419,1.8419,1.8688,1.908,1.9603,1.969,1.969,1.969,1.969,1.969,1.969,1.969,1.969,1.969,1.969,1.969,1.969,1.969,1.969,1.969,1.969,1.969,1.969,1.969,1.969,1.969,1.969,1.9555,1.9271,1.9555,1.954,1.9256,1.8612,1.7697,0.0,0.0,0.0,0.0,0.0,0.0,-0.4463,-0.2291,0.0,0.0,0.0,0.0,0.0,0.0,0.0,0.0,0.0,0.0,0.0,0.0,0.0,0.0,0.0,0.0,0.8804,0.8857,0.8903,0.8903,0.8956,0.9309,0.9969,1.1166,1.1566,1.1074,1.1616,1.1922,1.1922,1.1922,1.2236,1.2881,1.2881,1.2881,1.2881,1.2881,1.2881,1.2881,1.2881,1.2881,1.2881,1.2881,1.2881,1.2881,1.2881,1.2881,1.2881,1.2881,1.2881,1.2968,1.36,1.3815,1.3909,1.456,1.5141,1.5632,1.5676,1.6051,1.6522,1.6522,1.6522,1.6522,1.6522,1.6522,1.6637,1.7118,1.7312,1.7504,1.7987,1.8574,1.9006,1.9006,1.9006,1.9132,1.9603,1.969,1.969,1.969,1.969,1.969,1.969,1.969,1.969,1.969,1.969,1.969,1.969,1.969,1.969,1.969,1.969,1.969,1.969,1.969,1.969,1.969,1.9615,1.9286,1.8702,1.9286,1.9196,1.8463,1.7861,1.7234,0.0,0.0,0.0,0.0,0.0,0.0,-0.4487,-0.3077,0.0,0.0,0.0,0.0,0.0,0.0,0.0,0.0,0.0,0.0,0.0,0.0,0.0,0.0,0.0,0.0,0.8804,0.9316,0.9614,0.9614,1.0115,1.0712,1.1366,1.1665,1.203,1.2461,1.2618,1.2666,1.2666,1.2666,1.2774,1.2881,1.2881,1.2881,1.2881,1.2881,1.2881,1.2881,1.2881,1.2881,1.2881,1.2881,1.2881,1.2881,1.2881,1.2881,1.2881,1.2881,1.2881,1.2968,1.36,1.3815,1.4003,1.5096,1.5499,1.5676,1.6194,1.6423,1.6522,1.6522,1.6522,1.6522,1.6522,1.6522,1.6522,1.6637,1.7312,1.7987,1.8066,1.8855,1.953,1.953,1.953,1.9566,1.969,1.969,1.969,1.969,1.969,1.969,1.969,1.969,1.969,1.969,1.969,1.969,1.969,1.969,1.969,1.969,1.969,1.969,1.969,1.969,1.969,1.969,1.9166,1.8837,1.8702,1.8837,1.8283,1.71,1.6965,1.6547,0.0,0.0,0.0,-0.4473,0.0,0.0,0.0,0.0,-0.1783,0.0,0.0,0.0,0.0,0.0,0.0,0.0,0.0,0.0,0.0,0.0,0.0,0.0,0.0,0.0,0.9762,1.0115,1.0312,1.0312,1.0914,1.1466,1.1765,1.2129,1.251,1.2881,1.2881,1.2881,1.2881,1.2881,1.2881,1.2881,1.2881,1.2881,1.2881,1.2881,1.2881,1.2881,1.2881,1.2881,1.2881,1.2881,1.2881,1.2881,1.2881,1.2881,1.2881,1.2881,1.3104,1.342,1.4061,1.4457,1.4869,1.5732,1.6051,1.6095,1.6423,1.6522,1.6522,1.6522,1.6522,1.6522,1.6522,1.6522,1.6552,1.6837,1.7504,1.8185,1.8458,1.9132,1.969,1.969,1.969,1.969,1.969,1.969,1.969,1.969,1.969,1.969,1.969,1.969,1.969,1.969,1.969,1.969,1.969,1.969,1.969,1.969,1.969,1.969,1.969,1.969,1.969,1.969,1.9031,1.8553,1.8208,1.7861,1.7354,1.6712,1.6712,1.6368,0.0,0.0,0.0,0.0,0.0,-0.4252,0.0,0.0,0.0,-0.039,0.0,0.0,0.0,0.0,0.0,0.0,0.0,0.0,0.0,0.0,0.0,0.0,0.0,0.0,0.0,1.1007,1.1258,1.1358,1.2003,1.2346,1.2346,1.2929,1.3248,1.3248,1.3152,1.3065,1.3065,1.2968,1.2881,1.2881,1.2881,1.2881,1.2881,1.2881,1.2881,1.2881,1.2881,1.2881,1.2881,1.2881,1.2881,1.2881,1.2881,1.2881,1.2881,1.2881,1.319,1.3732,1.4468,1.5017,1.5543,1.6281,1.6522,1.6522,1.6522,1.6522,1.6522,1.6522,1.6522,1.6522,1.6522,1.6522,1.6637,1.7146,1.7706,1.8263,1.8779,1.9332,1.969,1.969,1.969,1.969,1.969,1.969,1.969,1.969,1.969,1.969,1.969,1.969,1.969,1.969,1.969,1.969,1.969,1.969,1.969,1.969,1.969,1.969,1.969,1.969,1.963,1.9495,1.8852,1.8194,1.7503,1.6846,1.6532,1.6532,1.6532,1.6278,0.0,0.0,0.0,0.0,-0.3846,0.0,0.0,0.0,-0.3416,-0.0558,0.0,0.0,0.0,0.0,0.0,0.0,0.0,0.0,0.0,0.0,0.0,0.0,0.0,0.0,0.0,1.1895,1.2822,1.3416,1.4039,1.4365,1.4365,1.4468,1.4479,1.4479,1.3967,1.3684,1.3684,1.3152,1.2881,1.2881,1.2881,1.2881,1.2881,1.2881,1.2881,1.2881,1.2881,1.2881,1.2881,1.2881,1.2881,1.2881,1.2881,1.2881,1.2881,1.2881,1.2929,1.3152,1.4294,1.4744,1.4971,1.6107,1.6522,1.6522,1.6522,1.6522,1.6522,1.6522,1.6522,1.6522,1.6522,1.6522,1.6637,1.7146,1.7706,1.8263,1.8779,1.9332,1.969,1.969,1.969,1.969,1.969,1.969,1.969,1.969,1.969,1.969,1.969,1.969,1.969,1.969,1.969,1.969,1.969,1.969,1.969,1.969,1.969,1.969,1.969,1.969,1.9405,1.8837,1.8164,1.7473,1.6816,1.6204,1.5903,1.5903,1.5903,1.5873,0.0,0.0,0.0,0.0,0.0,0.0,-0.4383,0.0,-0.4163,0.0,0.0,0.0,0.0,0.0,0.0,0.0,0.0,0.0,0.0,0.0,0.0,0.0,0.0,0.0,0.0,0.0,0.0,0.0,1.4376,1.4698,1.4698,1.4698,1.4698,1.4698,1.4468,1.4143,1.3815,1.3552,1.3238,1.2881,1.2881,1.2881,1.2881,1.2881,1.2881,1.2881,1.2881,1.2881,1.2881,1.2881,1.2881,1.2881,1.2881,1.2881,1.2881,1.2881,1.3334,1.4025,1.4525,1.5152,1.5844,1.6337,1.6522,1.6522,1.6522,1.6522,1.6522,1.6522,1.6522,1.6522,1.6522,1.671,1.7034,1.7229,1.7947,1.8612,1.8855,1.9332,1.969,1.969,1.969,1.969,1.969,1.969,1.969,1.969,1.969,1.969,1.969,1.969,1.969,1.969,1.969,1.969,1.969,1.969,1.969,1.969,1.969,1.969,1.969,1.969,1.9375,1.8717,1.8059,1.7369,1.6712,1.6084,1.5799,1.5799,1.5799,1.5799,-0.4298,0.0,0.0,0.0,0.0,0.0,0.0,0.0,0.0,0.0,0.0,0.0,0.0,0.0,0.0,0.0,0.0,0.0,0.0,0.0,0.0,0.0,0.0,0.0,0.0,0.0,0.0,0.0,0.0,1.5219,1.5398,1.5564,1.5552,1.5398,1.5264,1.4915,1.4318,1.4143,1.3732,1.3152,1.3152,1.3065,1.2881,1.2881,1.2881,1.2881,1.2881,1.2881,1.2881,1.2881,1.2881,1.2881,1.2881,1.3017,1.3152,1.3152,1.3789,1.4698,1.488,1.5656,1.6522,1.6522,1.6522,1.6522,1.6522,1.6522,1.6522,1.6522,1.6522,1.6522,1.668,1.6993,1.7394,1.7666,1.8341,1.893,1.9095,1.9442,1.969,1.969,1.969,1.969,1.969,1.969,1.969,1.969,1.969,1.969,1.969,1.969,1.969,1.969,1.969,1.969,1.969,1.969,1.969,1.969,1.969,1.969,1.969,1.969,1.9375,1.8717,1.8059,1.7369,1.6712,1.6084,1.5799,1.5799,1.5799,1.5799,0.0,0.0,0.0,-0.4411,0.0,0.0,0.0,0.0,-0.2683,0.0,0.0,0.0,0.0,0.0,0.0,0.0,0.0,0.0,0.0,0.0,0.0,0.0,0.0,0.0,0.0,0.0,0.0,0.0,0.0,0.0,1.7175,1.7706,1.7733,1.7216,1.6646,1.6089,1.5543,1.496,1.4376,1.3768,1.3768,1.3467,1.2881,1.2881,1.2881,1.2881,1.2881,1.2881,1.2881,1.2881,1.2881,1.2881,1.2881,1.3238,1.3768,1.3768,1.4143,1.4789,1.5365,1.5964,1.6522,1.6522,1.6522,1.6522,1.6522,1.6522,1.6522,1.6522,1.6522,1.6637,1.7146,1.7312,1.7544,1.8612,1.8855,1.9043,1.9566,1.969,1.969,1.969,1.969,1.969,1.969,1.969,1.969,1.969,1.969,1.969,1.969,1.969,1.969,1.969,1.969,1.969,1.969,1.969,1.969,1.969,1.969,1.969,1.969,1.969,1.9375,1.8717,1.8059,1.7369,1.6712,1.6084,1.5799,1.5799,1.5799,1.5799,0.0,0.0,-0.4473,-0.4473,0.0,0.0,0.0,0.0,0.0,0.0,0.0,0.0,0.0,0.0,0.0,0.0,0.0,0.0,0.0,0.0,0.0,0.0,0.0,0.0,0.0,0.0,0.0,0.0,0.0,0.0,0.0,1.7759,1.8157,1.8271,1.7464,1.6744,1.6133,1.5576,1.4767,1.3815,1.3815,1.3457,1.2881,1.2881,1.2881,1.2881,1.2881,1.2881,1.2881,1.2881,1.2881,1.2929,1.3334,1.3873,1.4329,1.3956,1.4411,1.5365,1.6008,1.6324,1.6522,1.6522,1.6522,1.6522,1.6522,1.6522,1.6522,1.6522,1.6522,1.6637,1.7146,1.7544,1.8027,1.8727,1.9169,1.9479,1.9639,1.969,1.969,1.969,1.969,1.969,1.969,1.969,1.969,1.969,1.969,1.969,1.969,1.969,1.969,1.969,1.969,1.969,1.969,1.969,1.969,1.969,1.969,1.969,1.969,1.969,1.9375,1.8717,1.8493,1.7802,1.6712,1.6502,1.6189,1.5799,1.5799,1.5799,-0.4519,-0.4519,0.0,-0.4525,-0.4473,0.0,-0.4487,0.0,0.0,0.0,0.0,0.0,0.0,0.0,0.0,0.0,0.0,0.0,0.0,0.0,0.0,0.0,0.0,0.0,0.0,0.0,1.2176,1.2764,0.0,0.0,0.0,0.0,1.8933,1.9067,1.8478,1.7666,1.6731,1.6403,1.5608,1.4457,1.4236,1.3779,1.319,1.3017,1.2881,1.2881,1.2881,1.2881,1.2929,1.3152,1.3238,1.3286,1.3873,1.4514,1.496,1.4595,1.5096,1.5964,1.638,1.6522,1.6522,1.6522,1.6522,1.6522,1.6522,1.6522,1.6522,1.6522,1.6637,1.6909,1.7463,1.7987,1.8535,1.9043,1.9442,1.969,1.969,1.969,1.969,1.969,1.969,1.969,1.969,1.969,1.969,1.969,1.969,1.969,1.969,1.969,1.969,1.969,1.969,1.969,1.969,1.969,1.969,1.969,1.969,1.969,1.969,1.969,1.9495,1.9061,1.8822,1.8283,1.7413,1.6936,1.6502,1.6099,1.5903,1.5799]},{"header":{"parameterUnit":"m.s-1","parameterCategory":1,"la1":30.6,"la2":29.2853,"lo1":-89.7004,"lo2":-87.6739,"dy":0.0162,"dx":0.0183,"nx":112,"ny":82,"refTime":"2025-04-10T06:00:00:Z","depth":0,"parameterNumber":3,"parameterNumberName":"V-component_of_WINDS"},"data":[0.0,0.0,0.0,0.0,0.0,0.0,0.0,0.0,0.0,0.0,0.0,0.0,0.0,0.0,0.0,0.0,0.0,0.0,0.0,0.0,0.0,0.0,0.0,0.0,0.0,0.0,0.0,0.0,0.0,0.0,0.0,0.0,0.0,0.0,0.0,0.0,0.0,0.0,0.0,0.0,0.0,0.0,0.0,0.0,0.0,0.0,0.0,0.0,0.0,0.0,0.0,0.0,0.0,0.0,0.0,0.0,0.0,0.0,0.0,0.0,0.0,0.0,0.0,0.0,0.0,0.0,0.0,0.0,0.0,0.0,0.0,0.0,0.0,0.0,0.0,0.0,0.0,0.0,0.0,0.0,0.0,0.0,0.0,0.0,0.0,0.0,0.0,0.0,0.0,0.0,0.0,-2.5406,-2.5395,-2.5409,-2.539,-2.5322,-2.5303,-2.5264,0.0,0.0,0.0,0.0,0.0,0.0,0.0,0.0,0.0,0.0,0.0,0.0,0.0,0.0,0.0,0.0,0.0,0.0,0.0,0.0,0.0,0.0,0.0,0.0,0.0,0.0,0.0,0.0,0.0,0.0,0.0,0.0,0.0,0.0,0.0,0.0,0.0,0.0,0.0,0.0,0.0,0.0,0.0,0.0,0.0,0.0,0.0,0.0,0.0,0.0,0.0,0.0,0.0,0.0,0.0,0.0,0.0,0.0,0.0,0.0,0.0,0.0,0.0,0.0,0.0,0.0,0.0,0.0,0.0,0.0,0.0,0.0,0.0,0.0,0.0,0.0,0.0,0.0,0.0,0.0,0.0,0.0,0.0,0.0,0.0,0.0,0.0,0.0,0.0,0.0,0.0,0.0,0.0,0.0,0.0,0.0,0.0,0.0,0.0,0.0,0.0,0.0,0.0,0.0,-2.5418,-2.5399,-2.5399,-2.539,-2.5322,-2.5303,-2.5224,-2.5065,0.0,0.0,0.0,0.0,0.0,0.0,0.0,0.0,0.0,0.0,0.0,0.0,0.0,0.0,0.0,0.0,0.0,0.0,0.0,0.0,0.0,0.0,0.0,0.0,0.0,0.0,0.0,0.0,0.0,0.0,0.0,0.0,0.0,0.0,0.0,0.0,0.0,0.0,0.0,0.0,0.0,0.0,0.0,0.0,0.0,0.0,0.0,0.0,0.0,0.0,0.0,0.0,0.0,0.0,0.0,0.0,0.0,0.0,0.0,0.0,0.0,0.0,0.0,0.0,0.0,0.0,0.0,0.0,0.0,0.0,0.0,0.0,0.0,0.0,0.0,0.0,0.0,0.0,0.0,0.0,0.0,0.0,0.0,0.0,0.0,0.0,0.0,0.0,0.0,0.0,0.0,0.0,0.0,0.0,0.0,0.0,0.0,0.0,0.0,0.0,0.0,0.0,0.0,-2.5736,-2.587,-2.5399,-2.5663,-2.5677,-2.5179,-2.5072,-2.4987,-2.4891,-2.4975,0.0,0.0,0.0,0.0,0.0,0.0,0.0,0.0,0.0,0.0,0.0,0.0,0.0,0.0,0.0,0.0,0.0,0.0,0.0,0.0,0.0,0.0,0.0,0.0,0.0,0.0,0.0,0.0,0.0,0.0,0.0,0.0,0.0,0.0,0.0,0.0,0.0,0.0,0.0,0.0,0.0,0.0,0.0,0.0,0.0,0.0,0.0,0.0,0.0,0.0,0.0,0.0,0.0,0.0,0.0,0.0,0.0,0.0,0.0,0.0,0.0,0.0,0.0,0.0,0.0,0.0,0.0,0.0,0.0,0.0,0.0,0.0,0.0,0.0,0.0,0.0,0.0,0.0,0.0,0.0,0.0,0.0,0.0,0.0,0.0,0.0,0.0,0.0,0.0,0.0,0.0,0.0,0.0,0.0,0.0,0.0,0.0,0.0,0.0,0.0,0.0,0.0,-2.6197,-2.6341,-2.5608,-2.5987,-2.592,-2.5025,-2.4869,-2.4804,-2.4804,-2.476,0.0,0.0,0.0,0.0,0.0,0.0,0.0,0.0,0.0,0.0,0.0,0.0,0.0,0.0,0.0,0.0,0.0,0.0,0.0,0.0,0.0,0.0,0.0,0.0,0.0,0.0,0.0,0.0,0.0,0.0,0.0,0.0,0.0,0.0,0.0,0.0,0.0,0.0,0.0,0.0,0.0,0.0,0.0,0.0,0.0,0.0,0.0,0.0,0.0,0.0,0.0,0.0,0.0,0.0,0.0,0.0,0.0,0.0,0.0,0.0,0.0,0.0,0.0,0.0,0.0,0.0,0.0,0.0,0.0,0.0,0.0,0.0,0.0,0.0,0.0,0.0,0.0,0.0,0.0,0.0,0.0,0.0,0.0,0.0,0.0,0.0,0.0,0.0,0.0,0.0,0.0,0.0,0.0,0.0,0.0,0.0,0.0,0.0,0.0,0.0,0.0,0.0,-2.6563,-2.6491,-2.6256,-2.627,-2.5901,-2.4889,-2.4804,-2.4804,-2.4804,-2.4623,0.0,0.0,0.0,0.0,0.0,0.0,0.0,0.0,0.0,0.0,0.0,0.0,0.0,0.0,0.0,0.0,0.0,0.0,0.0,0.0,0.0,0.0,0.0,0.0,0.0,0.0,0.0,0.0,0.0,0.0,0.0,0.0,0.0,0.0,0.0,0.0,0.0,0.0,0.0,0.0,0.0,0.0,0.0,0.0,0.0,0.0,0.0,0.0,0.0,0.0,0.0,0.0,0.0,0.0,0.0,0.0,0.0,0.0,0.0,0.0,0.0,0.0,0.0,0.0,0.0,0.0,0.0,0.0,0.0,0.0,0.0,0.0,0.0,0.0,0.0,0.0,0.0,0.0,0.0,0.0,0.0,0.0,0.0,0.0,0.0,0.0,0.0,0.0,0.0,0.0,0.0,0.0,0.0,0.0,0.0,0.0,0.0,0.0,0.0,0.0,0.0,0.0,-2.6937,-2.7128,0.0,-2.6828,-2.632,-2.5433,-2.4793,-2.4428,-2.4428,0.0,0.0,0.0,0.0,0.0,0.0,0.0,0.0,0.0,0.0,0.0,0.0,0.0,0.0,0.0,0.0,0.0,0.0,0.0,0.0,0.0,0.0,0.0,0.0,0.0,0.0,0.0,0.0,0.0,0.0,0.0,0.0,0.0,0.0,0.0,0.0,0.0,0.0,0.0,0.0,0.0,0.0,0.0,0.0,0.0,0.0,0.0,0.0,0.0,0.0,0.0,0.0,0.0,0.0,0.0,0.0,0.0,0.0,0.0,0.0,0.0,0.0,0.0,0.0,0.0,0.0,0.0,0.0,0.0,0.0,0.0,0.0,0.0,0.0,0.0,0.0,0.0,0.0,0.0,0.0,0.0,0.0,0.0,0.0,0.0,0.0,0.0,0.0,0.0,0.0,0.0,0.0,0.0,0.0,0.0,0.0,0.0,0.0,0.0,0.0,0.0,0.0,-2.6851,-2.7299,-2.7589,0.0,-2.7276,-2.6544,-2.5672,-2.4745,-2.419,-2.419,0.0,0.0,0.0,0.0,0.0,0.0,0.0,0.0,0.0,0.0,0.0,0.0,0.0,0.0,0.0,0.0,0.0,0.0,0.0,0.0,0.0,0.0,0.0,0.0,0.0,0.0,0.0,0.0,0.0,0.0,0.0,0.0,0.0,0.0,0.0,0.0,0.0,0.0,0.0,0.0,0.0,0.0,0.0,0.0,0.0,0.0,0.0,0.0,0.0,0.0,0.0,0.0,0.0,0.0,0.0,0.0,0.0,0.0,0.0,0.0,0.0,0.0,0.0,0.0,0.0,0.0,0.0,0.0,0.0,0.0,0.0,0.0,0.0,0.0,0.0,0.0,0.0,0.0,0.0,0.0,0.0,0.0,0.0,0.0,0.0,0.0,0.0,0.0,0.0,0.0,0.0,0.0,0.0,0.0,0.0,0.0,0.0,0.0,0.0,0.0,0.0,0.0,-2.7678,-2.7663,-2.7756,-2.8423,-2.7545,-2.6488,-2.5496,-2.4649,-2.419,0.0,0.0,0.0,0.0,0.0,0.0,0.0,0.0,0.0,0.0,0.0,0.0,0.0,0.0,0.0,0.0,0.0,0.0,0.0,0.0,0.0,0.0,0.0,0.0,0.0,0.0,0.0,0.0,0.0,0.0,0.0,0.0,0.0,0.0,0.0,0.0,0.0,0.0,0.0,0.0,0.0,0.0,0.0,0.0,0.0,0.0,0.0,0.0,0.0,0.0,0.0,0.0,0.0,0.0,0.0,0.0,0.0,0.0,0.0,0.0,0.0,0.0,0.0,0.0,0.0,0.0,0.0,0.0,0.0,0.0,0.0,0.0,0.0,0.0,0.0,0.0,0.0,0.0,0.0,0.0,0.0,0.0,0.0,0.0,0.0,0.0,0.0,0.0,0.0,0.0,0.0,0.0,0.0,0.0,0.0,0.0,0.0,0.0,0.0,0.0,0.0,0.0,0.0,-2.7421,-2.7424,-2.7528,-2.8147,-2.7305,-2.6348,-2.5476,-2.4649,-2.3951,-2.34,0.0,0.0,0.0,0.0,0.0,0.0,0.0,0.0,0.0,0.0,0.0,0.0,0.0,0.0,0.0,0.0,0.0,0.0,0.0,0.0,0.0,0.0,0.0,0.0,0.0,0.0,0.0,0.0,0.0,0.0,0.0,0.0,0.0,0.0,0.0,0.0,0.0,0.0,0.0,0.0,0.0,0.0,0.0,0.0,0.0,0.0,0.0,0.0,0.0,0.0,0.0,0.0,0.0,0.0,0.0,0.0,0.0,0.0,0.0,0.0,0.0,0.0,0.0,0.0,0.0,0.0,0.0,0.0,0.0,0.0,0.0,0.0,0.0,0.0,0.0,0.0,0.0,0.0,0.0,0.0,0.0,0.0,0.0,0.0,0.0,0.0,0.0,0.0,0.0,0.0,0.0,0.0,0.0,0.0,0.0,0.0,0.0,0.0,0.0,0.0,0.0,0.0,-2.7306,-2.7316,-2.743,-2.8035,-2.7184,-2.6222,-2.5275,-2.4452,-2.3795,-2.3321,0.0,0.0,0.0,0.0,0.0,0.0,0.0,0.0,0.0,0.0,0.0,0.0,0.0,0.0,0.0,0.0,0.0,0.0,0.0,0.0,0.0,0.0,0.0,0.0,0.0,0.0,0.0,0.0,0.0,0.0,0.0,0.0,0.0,0.0,0.0,0.0,0.0,0.0,0.0,0.0,0.0,0.0,0.0,0.0,0.0,0.0,0.0,0.0,0.0,0.0,0.0,0.0,0.0,0.0,0.0,0.0,0.0,0.0,0.0,0.0,0.0,0.0,0.0,0.0,0.0,0.0,0.0,0.0,0.0,0.0,0.0,0.0,0.0,0.0,0.0,0.0,0.0,0.0,0.0,0.0,0.0,0.0,0.0,0.0,0.0,0.0,0.0,0.0,0.0,0.0,0.0,0.0,0.0,0.0,0.0,0.0,0.0,0.0,0.0,0.0,0.0,0.0,-2.7279,-2.7305,-2.7375,-2.7904,-2.7147,-2.6121,-2.4932,-2.4169,-2.3717,-2.3645,0.0,0.0,0.0,0.0,0.0,0.0,0.0,0.0,0.0,0.0,0.0,0.0,0.0,0.0,0.0,0.0,0.0,0.0,0.0,0.0,0.0,0.0,0.0,0.0,0.0,0.0,0.0,0.0,0.0,0.0,0.0,0.0,0.0,0.0,0.0,0.0,0.0,0.0,0.0,0.0,0.0,0.0,0.0,0.0,0.0,0.0,0.0,0.0,0.0,0.0,0.0,0.0,0.0,0.0,0.0,0.0,0.0,0.0,0.0,0.0,-2.5018,0.0,0.0,0.0,0.0,0.0,0.0,0.0,0.0,0.0,0.0,0.0,0.0,0.0,0.0,0.0,0.0,0.0,0.0,0.0,0.0,0.0,0.0,0.0,0.0,0.0,0.0,0.0,0.0,0.0,0.0,0.0,0.0,0.0,0.0,0.0,0.0,0.0,0.0,0.0,0.0,0.0,-2.7062,-2.7095,-2.6953,-2.6921,-2.6746,-2.6004,-2.4478,-2.4185,-2.3819,-2.3178,-2.2392,0.0,0.0,0.0,0.0,0.0,0.0,0.0,0.0,0.0,0.0,0.0,0.0,0.0,0.0,0.0,0.0,0.0,0.0,0.0,0.0,0.0,0.0,0.0,0.0,0.0,0.0,0.0,0.0,0.0,0.0,0.0,0.0,0.0,0.0,0.0,0.0,0.0,0.0,0.0,0.0,0.0,0.0,0.0,0.0,0.0,0.0,0.0,0.0,0.0,0.0,0.0,0.0,0.0,0.0,0.0,0.0,0.0,0.0,0.0,0.0,-2.5392,0.0,0.0,0.0,0.0,0.0,0.0,0.0,0.0,0.0,0.0,0.0,0.0,0.0,0.0,0.0,0.0,0.0,0.0,0.0,0.0,0.0,0.0,0.0,0.0,0.0,0.0,0.0,0.0,0.0,0.0,0.0,0.0,0.0,0.0,0.0,0.0,0.0,0.0,0.0,0.0,-2.7153,-2.7239,-2.7058,-2.6783,-2.6743,-2.5979,-2.4124,-2.3976,-2.3773,-2.3355,-2.259,0.0,0.0,0.0,0.0,0.0,0.0,0.0,0.0,0.0,0.0,0.0,0.0,0.0,0.0,0.0,0.0,0.0,0.0,0.0,0.0,0.0,0.0,0.0,0.0,0.0,0.0,0.0,0.0,0.0,0.0,0.0,0.0,0.0,0.0,0.0,0.0,0.0,0.0,0.0,0.0,0.0,0.0,0.0,0.0,0.0,0.0,0.0,0.0,0.0,0.0,0.0,0.0,0.0,-2.689,-2.7305,-2.748,-2.748,-2.7494,-2.7521,-2.6962,-2.6251,-2.5519,-2.6247,0.0,0.0,0.0,0.0,0.0,0.0,0.0,0.0,0.0,0.0,0.0,0.0,0.0,0.0,0.0,0.0,0.0,0.0,0.0,0.0,0.0,0.0,0.0,0.0,-2.5699,-2.5667,0.0,0.0,0.0,0.0,0.0,0.0,0.0,0.0,0.0,0.0,0.0,0.0,-2.7338,-2.7328,-2.7116,-2.6915,-2.673,-2.5855,-2.3946,-2.3735,-2.3692,-2.3692,-2.2932,-2.2618,0.0,0.0,0.0,0.0,0.0,0.0,0.0,0.0,0.0,0.0,0.0,0.0,0.0,0.0,0.0,0.0,0.0,0.0,0.0,0.0,0.0,0.0,0.0,0.0,0.0,0.0,0.0,0.0,0.0,0.0,0.0,0.0,-2.4993,-2.4842,0.0,0.0,0.0,0.0,0.0,0.0,0.0,0.0,0.0,0.0,0.0,0.0,0.0,-2.6369,-2.6884,-2.7047,-2.7138,-2.7138,-2.7251,-2.7289,-2.732,-2.732,-2.7335,-2.7373,-2.8136,0.0,-2.7217,-2.66,0.0,0.0,0.0,0.0,0.0,0.0,0.0,0.0,0.0,0.0,0.0,0.0,0.0,0.0,0.0,0.0,0.0,0.0,0.0,0.0,0.0,0.0,-2.5697,-2.5701,-2.5702,-2.5683,0.0,-2.5634,-2.5662,-2.5662,-2.5623,0.0,0.0,0.0,0.0,0.0,0.0,0.0,-2.7388,-2.6631,-2.6169,-2.6823,-2.6115,-2.5202,-2.4224,-2.3876,-2.3692,-2.3692,-2.2932,-2.2517,-2.2558,-2.1954,0.0,0.0,0.0,0.0,0.0,0.0,0.0,0.0,0.0,0.0,0.0,0.0,0.0,0.0,0.0,0.0,0.0,0.0,0.0,0.0,0.0,0.0,0.0,0.0,0.0,0.0,0.0,0.0,0.0,-2.4855,-2.4869,-2.4804,-2.4623,-2.4607,0.0,0.0,0.0,0.0,0.0,0.0,0.0,0.0,0.0,-2.6982,-2.7014,-2.7105,-2.7255,-2.7727,-2.797,-2.7988,-2.8445,-2.8742,-2.8932,-2.8932,-2.9007,-2.9186,-2.9615,-2.9615,-2.9219,-2.8298,-2.7742,-2.7412,0.0,0.0,0.0,0.0,-2.6872,-2.6872,-2.6872,-2.6872,0.0,-2.6737,0.0,0.0,0.0,0.0,0.0,0.0,0.0,0.0,0.0,0.0,-2.6538,-2.701,-2.7116,-2.7083,-2.7009,-2.6631,-2.617,0.0,-2.5556,-2.5537,-2.5537,0.0,0.0,0.0,0.0,-2.6437,-2.7621,-2.7275,-2.6982,-2.7104,-2.6293,-2.5317,-2.4301,-2.3896,-2.3692,-2.3692,-2.3368,-2.3187,-2.3187,-2.272,-2.2079,0.0,0.0,0.0,0.0,0.0,0.0,0.0,0.0,0.0,0.0,0.0,0.0,0.0,0.0,0.0,0.0,0.0,0.0,0.0,0.0,0.0,0.0,0.0,0.0,0.0,0.0,0.0,0.0,-2.4978,-2.502,-2.4749,-2.4762,-2.4909,0.0,0.0,0.0,0.0,0.0,0.0,-2.6928,-2.7544,-2.79,-2.7904,-2.7963,-2.7987,-2.7991,-2.8662,-2.9,-2.9,-2.9596,-3.0038,-3.0276,-3.0297,-3.0405,-3.0597,-3.0597,-3.0612,-3.0556,-2.962,-2.8936,-2.8403,-2.818,-2.8111,-2.8111,-2.8111,-2.8111,-2.8111,-2.8111,-2.8111,-2.8025,-2.7591,0.0,-2.7412,-2.6552,0.0,0.0,0.0,0.0,-2.6486,-2.7167,-2.7315,-2.7463,-2.8056,-2.8195,-2.8148,-2.8086,-2.7563,-2.6843,0.0,-2.5647,-2.5492,-2.5492,0.0,0.0,0.0,0.0,-2.6918,-2.7525,-2.7316,-2.7071,-2.698,-2.6105,-2.5179,-2.4283,-2.3896,-2.3671,-2.3566,-2.3566,-2.3544,-2.3437,-2.3193,-2.2719,-2.199,0.0,0.0,0.0,0.0,0.0,0.0,0.0,0.0,0.0,0.0,0.0,0.0,0.0,0.0,0.0,0.0,0.0,0.0,0.0,0.0,0.0,0.0,0.0,0.0,0.0,0.0,0.0,0.0,0.0,-2.4638,-2.5184,0.0,0.0,0.0,0.0,-2.7657,-2.7794,-2.7832,-2.7832,-2.7871,-2.8169,-2.8717,-2.8924,-2.9289,-2.9865,-3.0164,-3.0309,-3.0309,-3.0405,-3.0463,-3.0494,-3.056,-3.0587,-3.0594,-3.0594,-3.064,-3.0625,-2.9753,-2.9376,-2.9246,-2.8412,-2.8106,-2.8106,-2.8106,-2.8106,-2.8106,-2.8106,-2.8106,-2.8223,-2.9007,-2.9323,-2.9215,-2.841,-2.8125,0.0,0.0,-2.8121,-2.8105,-2.8213,-2.8188,-2.8145,-2.8188,-2.8157,-2.8092,-2.8022,-2.7964,-2.7706,0.0,-2.6083,-2.5505,-2.5505,0.0,-2.6437,-2.562,-2.6187,-2.6696,-2.6764,-2.5698,-2.5234,-2.5993,-2.5,-2.4283,-2.4208,-2.3896,-2.3566,-2.3253,-2.323,-2.3069,-2.2772,-2.3034,-2.2963,-2.2463,-2.1671,0.0,0.0,0.0,0.0,0.0,0.0,0.0,0.0,0.0,0.0,0.0,0.0,0.0,0.0,0.0,0.0,0.0,0.0,0.0,0.0,0.0,0.0,0.0,0.0,0.0,0.0,0.0,0.0,-2.5314,-2.5986,0.0,-2.7023,-2.701,-2.7229,-2.786,-2.8371,-2.8659,-2.8659,-2.9198,-2.9617,-2.9826,-2.9932,-3.0086,-3.0312,-3.0451,-3.0525,-3.0525,-3.0544,-3.0583,-3.0621,-3.0655,-3.0717,-3.0784,-3.0779,-3.0812,-3.0805,-3.0408,-3.0292,-3.0337,-3.0027,-2.9892,-2.9892,-2.9892,-2.9892,-2.9899,-2.9901,-2.9861,-2.9722,-2.9422,-2.9,-2.8555,-2.8268,-2.815,-2.815,-2.817,-2.8147,-2.8259,-2.8792,-2.8935,-2.9049,-2.9555,-2.9663,-2.9636,-2.9571,-2.9091,-2.8587,-2.8166,-2.7516,-2.7044,-2.7044,-2.7313,-2.7399,-2.7082,-2.7294,-2.7467,-2.7467,-2.6472,-2.582,-2.5989,-2.5045,-2.4339,-2.4209,-2.3692,-2.3323,-2.3212,-2.2996,-2.2822,-2.2695,-2.3021,-2.299,-2.2497,-2.2229,-2.1297,0.0,0.0,0.0,0.0,0.0,0.0,0.0,0.0,0.0,0.0,0.0,0.0,0.0,0.0,0.0,0.0,0.0,0.0,0.0,0.0,0.0,0.0,0.0,0.0,0.0,0.0,-2.5814,-2.5794,-2.6631,-2.7382,-2.7793,-2.7837,-2.8088,-2.8706,-2.9506,-2.9852,-2.9544,-3.0621,-3.0987,-3.0448,-3.0763,-3.0821,-3.055,-3.0569,-3.0753,-3.1043,-3.1064,-3.1095,-3.1145,-3.1467,-3.1328,-3.0849,-3.1148,-3.1097,-3.0794,-3.07,-3.0727,-3.081,-3.0799,-3.0806,-3.0806,-3.0806,-3.0806,-3.0794,-3.0801,-3.0749,-3.056,-2.9948,-2.9389,-2.8935,-2.8935,-2.8935,-2.8935,-2.8935,-2.8935,-2.9071,-2.9602,-2.9726,-2.984,-3.0378,-3.0487,-3.0448,-3.0398,-2.9882,-2.9347,-2.9227,-2.8497,-2.7857,-2.7682,-2.7968,-2.8076,-2.7708,-2.765,-2.7567,-2.7287,-2.6338,-2.5641,-2.5506,-2.474,-2.4173,-2.4036,-2.3522,-2.3141,-2.3045,-2.2822,-2.266,-2.2563,-2.2781,-2.2786,-2.2576,-2.2396,-2.1493,-1.977,0.0,0.0,0.0,0.0,0.0,0.0,0.0,0.0,0.0,0.0,0.0,0.0,0.0,0.0,0.0,0.0,0.0,0.0,0.0,0.0,0.0,0.0,0.0,-2.5056,-2.5691,-2.6116,-2.6045,-2.7114,-2.8042,-2.8489,-2.8558,-2.9091,-3.0348,-3.1256,-3.1371,-3.0544,-3.2025,-3.2179,-3.0602,-3.1379,-3.1457,-3.0652,-3.0664,-3.1104,-3.1941,-3.2,-3.2039,-3.2031,-3.297,-3.2424,-3.081,-3.1657,-3.1526,-3.0671,-3.0652,-3.064,-3.0625,-3.0603,-3.0594,-3.0594,-3.0594,-3.0594,-3.0594,-3.0594,-3.0604,-3.0602,-3.0583,-3.0583,-3.0583,-3.0583,-3.0583,-3.0583,-3.0583,-3.0583,-3.0583,-3.0583,-3.0544,-3.0487,-3.0494,-3.0436,-3.0398,-3.0386,-3.0163,-2.9999,-2.9984,-2.8875,-2.7814,-2.7368,-2.812,-2.8441,-2.7396,-2.7207,0.0,-2.6098,-2.5132,-2.4495,-2.4495,-2.402,-2.3692,-2.3692,-2.3392,-2.3045,-2.2721,-2.2695,-2.2573,-2.231,-2.231,-2.2426,-2.2695,-2.2235,-2.159,-2.0723,0.0,0.0,0.0,0.0,0.0,0.0,0.0,0.0,0.0,0.0,0.0,0.0,0.0,0.0,0.0,0.0,0.0,0.0,0.0,0.0,0.0,0.0,-2.4241,-2.4486,-2.5883,-2.6886,-2.6862,-2.8099,-2.906,-2.9339,-3.007,-3.0763,-3.1302,-3.2102,-3.2506,-3.2365,-3.2788,-3.2564,-3.1539,-3.2415,-3.2474,-3.1612,-3.2298,-3.2746,-3.3,-3.3005,-3.27,-3.2173,-3.3024,-3.2807,-3.1831,-3.2608,-3.2795,-3.2501,-3.1783,-3.1468,-3.141,-3.0827,-3.0607,-3.0607,-3.0607,-3.0607,-3.0588,-3.0549,-3.0535,-3.0525,-3.0467,-3.0448,-3.0448,-3.0448,-3.0448,-3.0448,-3.0448,-3.0448,-3.0448,-3.0448,-3.0448,-3.0374,-3.0169,-3.0122,-3.0061,-2.9912,-2.9813,-2.9748,-2.9589,-2.9372,-2.9166,-2.9034,-2.8763,-2.849,-2.8183,-2.7107,0.0,-2.6035,-2.5129,-2.4495,-2.4495,-2.402,-2.3692,-2.3692,-2.3165,-2.2797,-2.2721,-2.2527,-2.2388,-2.231,-2.231,-2.2426,-2.2695,-2.2235,-2.1711,0.0,0.0,0.0,0.0,0.0,0.0,0.0,0.0,0.0,0.0,0.0,0.0,0.0,0.0,0.0,0.0,0.0,0.0,0.0,0.0,0.0,0.0,-2.4882,-2.5137,-2.5314,-2.6328,-2.7238,-2.7798,-2.8787,-2.9513,-2.9796,-3.0734,-3.1417,-3.1686,-3.2814,-3.3365,-3.3108,-3.3796,-3.3661,-3.2531,-3.3019,-3.307,-3.2584,-3.2424,-3.2891,-3.3945,-3.3574,-3.3135,-3.2694,-3.3891,-3.3554,-3.2088,-3.2866,-3.3179,-3.3025,-3.1731,-3.1436,0.0,0.0,0.0,0.0,0.0,-3.0525,-3.0506,-3.0467,-3.0467,-3.0448,-3.0398,-3.0398,-3.0398,-3.0398,-3.0398,-3.0386,-3.0267,-3.0222,-3.0209,-3.0128,-3.0114,-3.0066,-2.9908,-2.9877,-2.9845,-2.9731,-2.9625,-2.9551,-2.9414,-2.9395,0.0,-2.9416,-2.9102,-2.8839,-2.8746,-2.7307,-2.6243,-2.6243,-2.515,-2.4321,-2.4174,-2.3762,-2.3437,-2.3282,-2.2832,0.0,0.0,0.0,-2.231,-2.231,-2.231,0.0,0.0,0.0,0.0,0.0,0.0,0.0,0.0,-2.054,-2.0306,0.0,0.0,0.0,0.0,0.0,0.0,0.0,0.0,0.0,0.0,0.0,0.0,0.0,0.0,0.0,0.0,-2.5826,-2.6782,-2.6988,-2.7103,-2.7589,-2.8672,-2.9196,-2.9645,-3.0102,-3.0958,-3.1618,-3.1975,-3.3506,-3.4135,-3.3455,0.0,0.0,0.0,0.0,-3.3436,-3.3398,-3.2012,-3.2519,-3.4837,-3.4054,-3.3595,-3.3492,-3.5136,-3.443,-3.2013,-3.2981,-3.3269,-3.2949,-3.1448,-3.1179,-3.1621,-3.0737,-3.0398,-3.0398,-3.0398,-3.0398,-3.0398,-3.0398,0.0,0.0,-3.0513,-3.0552,-3.0552,-3.0624,-3.0643,-3.0567,-3.02,-3.0102,-3.0038,-2.9767,-2.9696,-2.9696,-2.9678,-2.9661,-2.9661,-2.9625,-2.9494,-2.9351,-2.9351,-2.9178,-2.8994,-2.8929,-2.9086,-2.9138,-2.8893,-2.7523,-2.6493,-2.6423,-2.5118,-2.4067,-2.3671,0.0,0.0,-2.2721,-2.2436,-2.231,-2.231,-2.231,-2.231,-2.231,-2.231,-2.2398,-2.266,-2.2426,-2.2571,-2.3141,-2.2848,-2.2645,-2.2548,-2.1437,-2.1306,0.0,0.0,0.0,0.0,0.0,0.0,0.0,0.0,0.0,0.0,0.0,0.0,0.0,0.0,0.0,-2.6446,-2.672,-2.7157,-2.827,-2.9004,-2.9313,-2.8847,-2.9439,-3.019,-3.0967,-3.1971,-3.2942,-3.3737,-3.4757,-3.5353,-3.5366,-3.5669,-3.5097,-3.3437,-3.4061,-3.4092,-3.3418,-3.3789,-3.4546,-3.5673,0.0,0.0,-3.4303,-3.5284,-3.47,-3.3006,-3.4468,-3.4699,-3.3987,-3.3622,-3.2776,-3.1621,-3.0737,-3.0398,-3.0398,-3.0398,-3.0398,-3.0398,-3.0398,-3.0398,-3.0513,-3.1218,-3.1448,-3.1539,-3.1953,-3.2084,0.0,-3.097,-3.073,-3.0579,-2.9883,-2.9696,-2.9661,-2.9494,-2.9454,-2.9394,-2.9163,-2.9093,-2.9067,-2.9067,-2.904,-2.8905,-2.8565,-2.8296,-2.8092,-2.8048,-2.6941,-2.5909,-2.5316,-2.4669,-2.4035,-2.3371,-2.2996,-2.2772,-2.2721,-2.2436,-2.231,-2.231,-2.231,-2.231,-2.231,-2.231,-2.2321,-2.2388,-2.2338,-2.2463,-2.2797,-2.2721,-2.2828,-2.3051,-2.2552,-2.2201,0.0,0.0,0.0,0.0,0.0,0.0,0.0,0.0,0.0,0.0,0.0,-2.547,-2.571,0.0,-2.6309,-2.7127,-2.7929,-2.8743,-2.9566,-3.065,-3.1035,-3.0152,-3.0793,-3.1508,-3.2048,-3.3025,-3.3795,-3.427,-3.5199,-3.5795,-3.5892,-3.5524,-3.491,-3.4082,-3.4043,-3.4043,-3.4043,-3.4018,-3.4651,-3.5892,-3.5416,-3.4911,-3.4419,-3.5263,-3.4937,-3.375,-3.4545,-3.4891,-3.4853,-3.4391,-3.3199,-3.166,-3.1218,-3.0794,-3.0398,-3.0398,-3.0398,-3.0456,-3.091,-3.0964,-3.0986,-3.1823,-3.2,-3.1873,-3.1737,-3.1703,-3.1481,-3.0434,-3.0151,-3.0038,-2.9488,-2.9336,-2.9334,-2.9225,-2.9181,-2.9178,-2.904,-2.8994,-2.8994,-2.8994,-2.8839,-2.8633,-2.8446,-2.8095,-2.7861,-2.7861,-2.7,-2.6068,-2.5314,-2.4679,-2.3957,-2.306,-2.2797,-2.2634,-2.25,-2.2388,-2.231,-2.231,-2.231,-2.231,-2.231,-2.231,-2.231,-2.231,-2.231,-2.2377,-2.25,-2.25,-2.2669,-2.2989,-2.2792,-2.2813,0.0,0.0,0.0,0.0,0.0,0.0,0.0,0.0,-2.5762,-2.5762,-2.628,-2.6698,-2.66,-2.7064,-2.7515,-2.7725,-2.9181,-3.0368,-3.0693,-3.195,-3.2615,-3.1962,-3.234,-3.2781,-3.3128,-3.3853,-3.4404,-3.4597,-3.5411,-3.592,-3.5925,-3.5147,-3.4629,-3.4453,-3.3587,-3.348,-3.4164,-3.3401,-3.3898,-3.5584,-3.482,-3.4493,-3.4564,-3.5257,-3.5084,-3.4199,-3.4199,-3.4699,-3.5449,-3.4737,-3.3564,-3.2179,-3.2122,-3.1476,-3.0573,-3.0629,-3.0617,-3.0695,-3.1572,-3.1685,-3.1597,-3.2395,-3.254,-3.2241,-3.1713,-3.143,-3.1091,-3.0081,-2.9683,-2.9471,-2.9099,-2.8994,-2.8994,-2.8994,-2.8994,-2.8994,-2.8994,-2.8929,-2.8887,-2.8887,-2.8565,-2.8236,-2.8022,-2.7733,-2.7635,-2.788,-2.7159,-2.631,-2.5509,-2.4655,-2.3746,-2.2721,-2.2608,-2.2537,-2.2338,-2.231,-2.231,-2.231,-2.231,-2.231,-2.231,-2.231,-2.231,-2.231,-2.231,-2.231,-2.231,-2.231,-2.2443,-2.2703,-2.2704,-2.3112,-2.6623,-2.6055,0.0,-2.5187,-2.5627,-2.6078,0.0,0.0,-2.7094,-2.7094,-2.717,-2.7436,-2.8118,-2.8289,-2.859,-2.9307,-3.0264,-3.0976,-3.1178,-3.2626,-3.3731,-3.3928,-3.3307,-3.3205,-3.4064,-3.425,-3.4712,-3.5641,-3.5834,-3.5931,-3.5984,-3.5175,-3.4355,-3.3574,-3.2642,-3.2201,-3.2297,-3.2136,-3.2869,-3.4481,-3.4372,-3.4699,-3.5372,-3.5468,-3.5026,-3.4199,-3.4199,-3.4699,-3.5474,-3.5391,-3.4795,-3.3897,-3.367,-3.26,-3.1236,-3.1476,-3.1391,-3.131,-3.2126,-3.2229,-3.2166,-3.3015,-3.3278,-3.3332,-3.3717,-3.3332,-3.2538,-3.1476,-3.0662,-2.9945,-2.92,-2.8994,-2.8994,-2.8994,-2.8994,-2.8994,-2.8994,-2.8725,-2.8471,-2.8471,-2.8183,-2.7639,-2.6627,-2.6417,-2.6731,-2.7763,-2.6959,-2.5988,-2.5234,-2.4179,-2.3204,-2.2434,-2.2349,-2.2321,-2.231,-2.231,-2.231,-2.231,-2.231,-2.231,-2.231,-2.231,-2.231,-2.231,-2.231,-2.231,-2.231,-2.231,-2.231,-2.2349,-2.2573,-2.2905,-2.6844,0.0,0.0,0.0,-2.6579,-2.7075,-2.6947,-2.7479,-2.8007,-2.8007,-2.8369,-2.8806,-2.9146,-2.9185,-2.9485,0.0,-3.0877,-3.1452,-3.2029,-3.3314,-3.4084,-3.3703,-3.4163,-3.468,-3.5091,-3.518,-3.5218,-3.5147,-3.5648,-3.5752,-3.5273,-3.4374,-3.3944,-3.4082,-3.3186,-3.2948,-3.346,-3.3843,-3.438,-3.5064,-3.5026,-3.518,-3.5493,-3.5493,-3.5315,-3.4968,-3.4968,-3.5161,-3.5493,-3.532,-3.4737,-3.388,-3.3156,-3.2122,-3.1137,-3.1713,-3.1566,-3.1235,-3.2578,-3.2843,-3.2767,-3.3593,-3.3761,-3.3597,-3.3346,-3.2705,-3.1893,-3.0956,-3.0118,-2.9439,-2.9085,-2.8994,-2.8994,-2.8994,-2.8994,-2.8929,-2.8682,-2.8515,-2.8342,-2.8156,-2.7469,-2.6749,-2.6288,-2.5635,-2.5356,-2.5846,-2.5519,-2.4936,-2.4213,-2.3697,-2.3122,-2.2395,-2.231,-2.231,-2.231,-2.231,-2.231,-2.231,-2.231,-2.231,-2.231,-2.231,-2.231,-2.231,-2.231,-2.231,-2.231,-2.231,-2.231,-2.231,-2.2426,-2.2527,-2.6912,0.0,0.0,-2.7036,-2.7595,-2.811,-2.8032,-2.8545,-2.9015,-2.9015,-2.9478,-2.9899,-2.9934,-2.9934,-3.02,-3.1105,-3.1603,-3.2114,-3.2746,-3.3801,-3.4186,-3.3325,-3.4301,-3.5049,-3.5045,-3.5535,-3.5609,-3.4996,-3.5346,-3.5402,-3.5009,-3.3898,-3.3666,-3.4532,-3.3634,-3.3442,-3.4071,-3.4597,-3.4988,-3.5218,-3.5161,-3.5276,-3.5493,-3.5493,-3.5493,-3.5493,-3.5493,-3.5493,-3.5479,-3.5207,-3.4742,-3.4061,-3.311,-3.2238,-3.156,-3.2304,-3.1969,-3.1317,-3.2538,-3.306,-3.3252,-3.3369,-3.3444,-3.333,-3.2522,-3.1715,-3.0944,-3.0356,-2.9622,-2.8994,-2.8994,-2.8929,-2.8839,-2.8839,-2.8749,-2.8626,-2.8316,-2.8166,-2.8029,-2.7765,-2.6817,-2.5975,-2.5769,-2.4876,-2.412,-2.3917,-2.3883,-2.3765,-2.3427,-2.3224,-2.2885,-2.2361,-2.231,-2.231,-2.231,-2.231,-2.231,-2.231,-2.218,-2.2106,-2.2106,-2.202,-2.1945,-2.1945,-2.2049,-2.2106,-2.2106,-2.2237,-2.231,-2.231,-2.231,-2.231,0.0,0.0,-2.7008,-2.7853,-2.8614,-2.9151,-2.9063,-2.9725,-3.0328,-3.0328,-3.0348,-3.0405,-3.0463,-3.0482,-3.0782,-3.1723,-3.2596,-3.3153,-3.3174,-3.3946,-3.4204,-3.3384,-3.3344,-3.3415,0.0,-3.4826,-3.575,-3.5854,-3.5044,-3.4873,-3.5639,-3.4095,-3.3594,-3.4481,-3.3526,-3.3019,-3.3058,-3.2994,-3.341,-3.4237,-3.4237,-3.468,-3.5493,-3.5493,-3.5493,-3.5493,-3.5493,-3.5493,-3.5479,-3.5207,-3.5086,-3.4996,-3.4392,-3.3641,-3.3003,-3.3559,-3.2915,-3.1778,-3.184,-3.2691,-3.3521,-3.1978,-3.2008,-3.2504,-3.1678,-3.087,-3.0228,-3.021,-2.9622,-2.8994,-2.8994,-2.8707,-2.842,-2.842,-2.8156,-2.7926,-2.7926,-2.7589,-2.7317,-2.7334,-2.6404,-2.5404,-2.4659,-2.3947,-2.319,-2.2479,-2.2378,-2.2632,-2.3308,-2.2784,-2.2327,-2.231,-2.231,-2.231,-2.231,-2.231,-2.231,-2.231,-2.1869,-2.1612,-2.1612,-2.1244,-2.1039,-2.1039,-2.143,-2.1612,-2.1612,-2.2077,-2.231,-2.231,-2.231,-2.231,0.0,0.0,-2.7863,-2.8695,-2.9474,-3.0044,-2.9987,-3.0198,-3.0398,-3.0398,-3.0448,-3.0467,-3.0506,-3.054,-3.0846,-3.1694,-3.1625,-3.1652,-3.2204,-3.2558,-3.2485,-3.1674,-3.2593,0.0,0.0,0.0,0.0,-3.3388,-3.4097,-3.4158,-3.3238,-3.2599,-3.2924,-3.4321,-3.291,-3.2955,-3.4647,-3.4064,-3.4199,-3.5064,-3.5064,-3.5218,-3.5493,-3.5493,-3.5493,-3.5493,-3.5493,-3.5493,-3.5479,-3.5207,-3.4999,-3.4737,-3.378,-3.3128,-3.2693,-3.2353,-3.1918,-3.161,-3.2164,-3.2274,-3.2118,-3.1568,-3.1568,-3.1751,-3.1476,-3.0834,-3.021,-3.021,-2.9622,-2.8994,-2.8994,-2.8682,-2.8394,-2.8394,-2.8156,-2.784,-2.756,-2.7396,-2.721,-2.6954,-2.579,-2.478,-2.4557,-2.3477,-2.2598,-2.2344,-2.231,-2.2395,-2.2649,-2.2462,-2.231,-2.231,-2.231,-2.2163,-2.1853,-2.184,-2.1735,-2.1446,-2.1291,-2.1213,-2.1213,-2.1055,-2.0991,-2.0991,-2.1118,-2.1337,-2.1582,-2.1764,-2.2003,-2.231,-2.231,-2.231,0.0,-2.7903,-2.8697,-2.9525,-3.0124,-3.0487,-3.0417,-3.0417,-3.0448,-3.0448,-3.0487,-3.0544,-3.0564,-3.0617,-3.092,-3.173,-3.1445,-3.127,-3.1769,-3.1864,-3.1583,-3.0755,-3.1941,-3.2856,0.0,0.0,0.0,-3.3451,-3.4118,-3.4044,-3.2825,-3.2439,-3.2736,-3.3757,-3.3026,-3.3372,-3.5026,-3.4795,-3.4949,-3.5493,-3.5493,-3.5493,-3.5493,-3.5493,-3.5493,-3.5493,-3.5493,-3.5493,-3.546,-3.5105,-3.487,-3.4597,-3.3659,-3.316,-3.2944,-3.2137,-3.1641,-3.1421,-3.1659,-3.1586,-3.1311,-3.0723,-3.0742,-3.0907,-3.0632,-3.0173,-2.9769,-2.9769,-2.9402,-2.897,-2.8839,-2.8489,-2.8183,-2.8057,-2.7718,-2.7378,-2.7147,-2.7083,-2.6987,-2.6758,-2.571,-2.4797,-2.4557,-2.3274,-2.231,-2.231,-2.231,-2.231,-2.231,-2.231,-2.231,-2.231,-2.2135,-2.1928,-2.1628,-2.146,-2.1275,-2.1039,-2.0829,-2.0764,-2.0764,-2.0599,-2.0548,-2.0548,-2.0665,-2.0878,-2.1134,-2.1306,-2.1538,-2.1857,-2.1974,-2.2032,-2.7903,-2.8665,-2.9403,-3.0279,-3.0506,-3.0487,-3.0417,-3.0448,-3.0506,-3.0498,-3.0556,-3.0602,0.0,0.0,-3.0963,-3.1736,-3.1892,-3.1908,-3.1831,-3.1831,-3.1511,0.0,0.0,0.0,0.0,0.0,0.0,-3.584,0.0,-3.4383,-3.4236,-3.3465,-3.3017,-3.2968,-3.3718,-3.4141,-3.4199,-3.4988,-3.5372,-3.5372,-3.5411,-3.543,-3.543,-3.5488,-3.5493,-3.5493,-3.5493,-3.5479,-3.5432,-3.4926,-3.4694,-3.4612,-3.4037,-3.3797,-3.3642,-3.2889,-3.2063,-3.1219,-3.0467,-3.0668,-3.1017,-2.9512,-2.9531,-3.0008,-2.9214,-2.8994,-2.8994,-2.8994,-2.8994,-2.8863,-2.8496,-2.8129,-2.7765,-2.7378,-2.6987,-2.6691,-2.6691,-2.6691,-2.6691,-2.6691,-2.6065,-2.5321,-2.456,-2.3241,-2.231,-2.231,-2.231,-2.231,-2.231,-2.231,-2.2282,-2.2282,-2.1869,-2.1582,-2.1521,-2.1181,-2.0975,-2.0926,-2.0516,-2.028,-2.028,-1.9909,-1.969,-1.969,-2.0054,-2.028,-2.0314,-2.0764,-2.0959,-2.1007,-2.1399,-2.1582,-2.8582,-2.9089,-2.9409,-3.0279,-3.0467,-3.0417,-3.0467,-3.0487,-3.0505,-3.056,-3.0637,-3.0506,0.0,0.0,0.0,-3.0216,-3.0607,0.0,-3.0883,-3.0814,0.0,0.0,0.0,-3.2208,-3.2909,-3.4023,0.0,0.0,-3.45,-3.357,-3.3483,-3.2617,-3.2692,-3.3891,-3.3481,-3.3545,-3.418,-3.3776,-3.3564,-3.3564,-3.4218,-3.4526,-3.4545,-3.5199,-3.5493,-3.5493,-3.5289,-3.5207,-3.519,-3.4851,-3.4551,-3.4311,-3.4147,-3.3617,-3.2889,-3.2687,-3.1715,-3.0485,-3.0265,-2.9953,-2.9549,-2.9122,-2.9122,-2.925,-2.9049,-2.8994,-2.8994,-2.8994,-2.8773,-2.854,-2.842,-2.7918,-2.7426,-2.7317,-2.6987,-2.6691,-2.6691,-2.6691,-2.6691,-2.6691,-2.5642,-2.4543,-2.3799,-2.2919,-2.231,-2.231,-2.231,-2.231,-2.231,-2.231,-2.218,-2.1823,-2.1658,-2.1321,-2.0699,-2.055,-2.0364,-2.005,-1.9909,-1.9839,-1.9839,-1.9747,-1.969,-1.969,-1.9818,-2.0,-2.0314,-2.0416,-2.0649,-2.0991,-2.1118,-2.1306,-2.8895,-2.9509,-2.9886,-3.0379,-3.0487,-3.0398,-3.0052,-3.0021,-2.9963,-2.962,-2.9606,0.0,0.0,0.0,0.0,0.0,0.0,0.0,-3.0502,-3.0467,-3.0448,0.0,-3.1657,0.0,-3.3191,-3.4489,-3.5469,0.0,-3.5059,-3.4294,-3.3835,-3.3325,-3.3256,-3.3763,-3.325,-3.3192,-3.3622,-3.3526,-3.3468,-3.3487,-3.4353,-3.4776,-3.4795,-3.5276,-3.5493,-3.5493,0.0,-3.5207,-3.5088,-3.4793,-3.4508,-3.4139,-3.3679,-3.3117,-3.2522,-3.1825,-3.098,-3.0155,-2.9806,-2.936,-2.8994,-2.8994,-2.8994,-2.8994,-2.8994,-2.8994,-2.8994,-2.8994,-2.8707,-2.8368,-2.8237,-2.7747,-2.7272,-2.7083,-2.6873,-2.6691,-2.6691,-2.6691,-2.6691,-2.6691,-2.549,-2.4388,-2.3934,-2.3004,-2.231,-2.231,-2.231,-2.231,-2.231,-2.231,-2.2106,-2.1658,-2.143,-2.1039,-2.0348,-2.0158,-1.9929,-1.9711,-1.969,-1.969,-1.969,-1.969,-1.969,-1.969,-1.969,-1.9803,-2.0035,-2.0035,-2.0158,-2.0431,-2.0599,-2.0813,-2.9125,-2.9944,-3.0518,-3.0513,-3.0563,-3.0378,-2.9521,-2.9413,-2.9252,-2.8394,0.0,0.0,-2.8144,0.0,-2.9414,-2.9355,0.0,-3.0548,-3.053,-3.0513,-3.0487,-3.0417,-3.1946,-3.3005,-3.3012,-3.4708,-3.5762,-3.5643,-3.5738,-3.5504,-3.4824,-3.4661,-3.4192,-3.3288,-3.3026,-3.2865,-3.2737,-3.3487,-3.3872,-3.3872,-3.4853,-3.5334,-3.5334,-3.5449,-3.5493,-3.5493,-3.546,0.0,-3.4916,-3.4604,-3.4239,-3.378,-3.2815,-3.2394,-3.2118,-3.0705,-3.0136,-2.9953,-2.9232,-2.8994,-2.8994,-2.8994,-2.8994,-2.8994,-2.8994,-2.8994,-2.8994,-2.8994,-2.87,-2.8264,-2.7982,-2.756,-2.7115,-2.6774,-2.6691,-2.6691,-2.6691,-2.6691,-2.6691,-2.6691,-2.549,-2.4506,-2.4506,-2.3274,-2.231,-2.231,-2.231,-2.2282,-2.2209,-2.2209,-2.2032,-2.1552,-2.115,-2.0715,-2.0246,-1.9909,-1.969,-1.969,-1.969,-1.969,-1.969,-1.969,-1.969,-1.969,-1.969,-1.969,-1.969,-1.969,-1.969,-1.9726,-2.0054,-2.0246,-2.9929,-3.0467,-3.0582,-3.0576,-3.06,-3.0401,-2.9655,-2.9471,0.0,0.0,0.0,-2.8086,-2.7363,-2.7949,0.0,-2.8516,0.0,0.0,0.0,0.0,-3.0506,0.0,0.0,0.0,0.0,0.0,0.0,0.0,0.0,-3.5113,-3.5722,-3.5017,-3.4447,-3.4097,-3.2679,-3.1929,-3.191,-3.2064,-3.2122,-3.216,-3.368,-3.443,-3.4449,-3.518,-3.5493,-3.5493,-3.5273,0.0,-3.3985,-3.3498,-3.2866,-3.218,-3.1765,-3.1201,-3.0577,-3.0301,-2.9787,-2.92,-2.9049,-2.8994,-2.8994,-2.8994,-2.8994,-2.8994,-2.8994,-2.8994,-2.8994,-2.8994,-2.8507,-2.7964,-2.7926,-2.7348,-2.6791,-2.6725,-2.6691,-2.6691,-2.6691,-2.6691,-2.6691,-2.6691,-2.549,-2.4506,-2.4506,-2.3274,-2.231,-2.231,-2.231,-2.2163,-2.1764,-2.1718,-2.1568,-2.115,-2.0682,-2.0261,-1.9839,-1.9747,-1.969,-1.969,-1.969,-1.969,-1.969,-1.969,-1.969,-1.969,-1.969,-1.969,-1.969,-1.969,-1.969,-1.969,-1.9782,-1.9965,-2.89,-2.9259,-2.9416,-2.9919,-2.9705,-2.9315,-2.8963,0.0,0.0,0.0,0.0,-2.6816,-2.6406,0.0,0.0,0.0,0.0,0.0,0.0,0.0,0.0,0.0,0.0,0.0,0.0,0.0,0.0,0.0,0.0,-3.4545,-3.4534,-3.4088,-3.3576,-3.3012,-3.2153,-3.1698,-3.1698,-3.2122,-3.2545,-3.3026,-3.4276,-3.4641,-3.4199,-3.4622,-3.4584,-3.4128,-3.4007,0.0,-3.2955,-3.2692,-3.2195,-3.1547,-3.0998,-3.054,-3.0155,-2.9732,-2.9347,-2.8994,-2.8994,-2.8994,-2.8994,-2.8994,-2.8994,-2.8994,-2.8994,-2.8994,-2.897,-2.8749,-2.8308,-2.784,-2.7619,-2.7147,-2.6691,-2.6691,-2.6691,-2.6691,-2.6691,-2.6691,-2.6691,-2.6691,-2.5812,-2.4949,-2.4574,-2.3596,-2.2647,-2.2024,-2.1928,-2.1764,-2.1337,-2.107,-2.0846,-2.0649,-2.0449,-2.0158,-1.9711,-1.969,-1.969,-1.969,-1.969,-1.969,-1.969,-1.969,-1.969,-1.969,-1.969,-1.969,-1.969,-1.969,-1.969,-1.969,-1.969,-1.9803,-2.7768,-2.8062,-2.8286,-2.9027,-2.8753,-2.8223,-2.8066,-2.748,0.0,0.0,0.0,-2.5703,-2.5703,0.0,0.0,0.0,0.0,0.0,0.0,0.0,0.0,0.0,0.0,0.0,0.0,0.0,0.0,0.0,0.0,0.0,-3.323,-3.2956,-3.2512,-3.1831,-3.1557,-3.1429,-3.1429,-3.241,-3.3237,-3.393,-3.4795,-3.4853,-3.418,-3.4007,-3.3545,-3.2891,-3.2891,0.0,0.0,-3.1958,-3.1551,-3.0894,-3.0215,-2.9953,-2.9879,-2.9214,-2.8994,-2.8994,-2.8994,-2.8994,-2.8994,-2.8994,-2.8994,-2.8994,-2.8994,-2.8929,-2.8815,-2.8471,-2.8102,-2.7678,-2.7378,-2.6987,-2.6691,-2.6691,-2.6691,-2.6691,-2.6691,-2.6691,-2.664,-2.6488,-2.5797,-2.5023,-2.4374,-2.357,-2.2685,-2.1741,-2.1582,-2.143,-2.0926,-2.0516,-2.028,-2.0193,-2.0193,-2.0019,-1.9726,-1.969,-1.969,-1.969,-1.969,-1.969,-1.969,-1.969,-1.969,-1.969,-1.969,-1.969,-1.969,-1.969,-1.969,-1.969,-1.969,-1.969,-2.7838,-2.81,-2.8148,-2.8281,-2.8261,-2.8027,-2.7285,0.0,0.0,0.0,-2.5703,-2.5703,-2.5703,-2.5762,0.0,0.0,0.0,0.0,0.0,0.0,0.0,0.0,0.0,0.0,0.0,0.0,0.0,0.0,0.0,0.0,-3.3114,-3.2393,-3.1888,-3.1792,-3.0979,-3.0513,-3.0513,-3.2102,-3.2949,-3.3026,-3.3891,-3.4276,-3.416,-3.3372,-3.2987,-3.2891,-3.2891,0.0,0.0,-3.1178,-3.0509,-2.9535,-2.9218,-2.9104,-2.9085,-2.9012,-2.8994,-2.8994,-2.8994,-2.8994,-2.8994,-2.8994,-2.8994,-2.8994,-2.8994,-2.8749,-2.8446,-2.842,-2.789,-2.7365,-2.7303,-2.6987,-2.6691,-2.6691,-2.6691,-2.6691,-2.6691,-2.6691,-2.6488,-2.5845,-2.4812,-2.3948,-2.357,-2.2542,-2.1724,-2.1628,-2.1582,-2.129,-2.0483,-2.0314,-2.0158,-1.9782,-1.9747,-1.9747,-1.969,-1.969,-1.969,-1.969,-1.969,-1.969,-1.969,-1.969,-1.969,-1.969,-1.969,-1.969,-1.969,-1.969,-1.969,-1.969,-1.969,-1.969,-2.6506,-2.6861,-2.7261,-2.733,-2.6997,-2.6699,-2.6894,0.0,0.0,-2.5762,-2.5703,-2.5703,-2.5703,-2.5662,-2.5873,0.0,0.0,0.0,0.0,0.0,0.0,0.0,0.0,0.0,0.0,0.0,0.0,0.0,0.0,0.0,-3.1472,-3.1153,-3.096,-3.096,-3.1102,-3.1179,-3.1179,-3.2314,-3.2891,-3.2891,-3.3256,-3.316,-3.2679,-3.2333,-3.1891,-3.141,-3.141,0.0,0.0,-3.0307,-2.9889,-2.9372,-2.9112,-2.8994,-2.8994,-2.8994,-2.8994,-2.8994,-2.8994,-2.8994,-2.8952,-2.8725,-2.8633,-2.8633,-2.8633,-2.854,-2.8298,-2.7844,-2.753,-2.7224,-2.6987,-2.6808,-2.6691,-2.6691,-2.6691,-2.6573,-2.6133,-2.6048,-2.5828,-2.5067,-2.4362,-2.3703,-2.3098,-2.2389,-2.1649,-2.0942,-2.083,-2.0601,-2.0,-1.9929,-1.9874,-1.9711,-1.969,-1.969,-1.969,-1.969,-1.969,-1.969,-1.969,-1.969,-1.969,-1.969,-1.969,-1.969,-1.969,-1.969,-1.969,-1.969,-1.969,-1.969,-1.969,-1.969,-2.562,-2.6024,-2.6622,-2.6439,-2.5952,-2.5712,0.0,0.0,-2.5664,-2.5664,-2.5684,-2.5682,-2.5676,-2.5635,-2.5678,0.0,0.0,0.0,0.0,0.0,0.0,0.0,0.0,0.0,0.0,0.0,0.0,0.0,0.0,0.0,-3.0398,-3.0398,-3.0398,-3.0398,-3.1256,-3.1583,-3.1314,-3.2372,-3.2776,-3.2545,-3.2545,-3.2256,-3.1698,-3.1429,-3.0987,-3.0398,-3.0398,0.0,0.0,-2.978,-2.9589,-2.9372,-2.9112,-2.8994,-2.8994,-2.8994,-2.8994,-2.8994,-2.8994,-2.8994,-2.8929,-2.854,-2.8394,-2.835,-2.8139,-2.8066,-2.7974,-2.7439,-2.7192,-2.7051,-2.6774,-2.6691,-2.6691,-2.6691,-2.6522,-2.6201,-2.558,-2.5261,-2.4842,-2.3944,-2.3457,-2.2964,-2.2295,-2.1843,-2.1268,-2.041,-2.0314,-2.0158,-1.9747,-1.969,-1.969,-1.969,-1.969,-1.969,-1.969,-1.969,-1.969,-1.969,-1.969,-1.969,-1.969,-1.969,-1.969,-1.969,-1.969,-1.969,-1.969,-1.969,-1.969,-1.969,-1.969,-1.969,-2.5621,-2.5994,-2.6409,-2.562,-2.5409,-2.5425,0.0,-2.5564,-2.5605,-2.5605,-2.5644,-2.5687,-2.5605,-2.5611,-2.5861,-2.6651,0.0,0.0,0.0,0.0,0.0,0.0,0.0,0.0,0.0,0.0,0.0,0.0,0.0,0.0,-3.0398,-3.0398,-3.0398,-3.0398,-3.1256,-3.1295,-3.0417,-3.2064,-3.2506,-3.1718,-3.1718,-3.1718,-3.1679,-3.0814,-3.0398,0.0,0.0,0.0,0.0,-2.978,-2.9589,-2.9372,-2.9112,-2.8994,-2.8994,-2.8994,-2.8994,-2.8994,-2.8994,-2.8994,-2.8929,-2.854,-2.8394,-2.8272,-2.7512,-2.7303,-2.7303,-2.7303,-2.7019,-2.6691,-2.6691,-2.6691,-2.6691,-2.6691,-2.615,-2.5511,-2.5112,-2.4414,-2.3556,-2.2376,-2.179,-2.1428,-2.107,-2.0632,-2.0314,-2.0314,-2.0314,-2.0158,-1.9747,-1.969,-1.969,-1.969,-1.969,-1.969,-1.969,-1.969,-1.969,-1.969,-1.969,-1.969,-1.969,-1.969,-1.969,-1.969,-1.969,-1.969,-1.969,-1.969,-1.969,-1.969,-1.969,-1.969,-2.5624,-2.6052,-2.6523,-2.561,-2.5466,-2.5524,-2.5509,-2.5592,-2.5662,-2.566,-2.5684,-2.5682,-2.5673,-2.5635,-2.588,-2.6738,-2.7036,0.0,0.0,0.0,0.0,0.0,0.0,0.0,0.0,0.0,0.0,0.0,0.0,0.0,-3.0398,-3.0398,-3.0398,-3.0398,-3.1256,-3.1275,-3.0398,-3.1525,-3.166,-3.0814,-3.0814,-3.0814,-3.0814,-3.0533,-3.0398,0.0,0.0,0.0,0.0,-2.9715,-2.9551,-2.957,-2.916,-2.8994,-2.8994,-2.8994,-2.8994,-2.8994,-2.8994,-2.8994,-2.8905,-2.8255,-2.8047,-2.7908,-2.7147,-2.7083,-2.7224,-2.6971,-2.6808,-2.6691,-2.6691,-2.6691,-2.6691,-2.6691,-2.6133,-2.536,-2.4448,-2.3637,-2.2735,-2.1553,-2.0996,-2.0646,-2.0548,-2.0158,-1.9874,-1.9874,-1.9874,-1.9839,-1.9726,-1.969,-1.969,-1.969,-1.969,-1.969,-1.969,-1.969,-1.969,-1.969,-1.969,-1.969,-1.969,-1.969,-1.969,-1.969,-1.969,-1.969,-1.969,-1.969,-1.969,-1.969,-1.969,-1.969,0.0,-2.6015,-2.6544,-2.5631,-2.5481,-2.5553,-2.5506,-2.5571,-2.5655,-2.5658,-2.5672,-2.5684,-2.5664,-2.5639,-2.5764,-2.6289,-2.661,0.0,0.0,0.0,0.0,0.0,0.0,0.0,0.0,0.0,0.0,0.0,0.0,0.0,-3.0398,-3.0717,-3.0737,-3.0398,-3.1256,-3.1448,-3.091,-3.1429,-3.1256,-3.0398,-3.0398,-3.0398,-3.0398,-3.0398,-3.0336,0.0,0.0,0.0,0.0,-2.9608,-2.9455,-2.9551,-2.916,-2.8994,-2.8994,-2.8994,-2.8994,-2.8994,-2.8994,-2.8994,-2.8881,-2.8147,-2.7678,-2.7348,-2.6841,-2.6873,-2.7019,-2.6791,-2.6691,-2.6691,-2.6691,-2.6488,-2.6285,-2.6285,-2.5507,-2.4471,-2.3441,-2.2606,-2.1762,-2.0711,-2.0261,-2.0054,-2.0054,-1.9874,-1.969,-1.969,-1.969,-1.969,-1.969,-1.969,-1.969,-1.969,-1.969,-1.969,-1.969,-1.969,-1.969,-1.969,-1.969,-1.969,-1.969,-1.969,-1.969,-1.969,-1.969,-1.969,-1.969,-1.969,-1.969,-1.969,-1.969,-1.9555,0.0,-2.5844,-2.6412,-2.5593,-2.5459,-2.5517,-2.5502,-2.5556,0.0,-2.5619,-2.5667,-2.5684,-2.5625,-2.5605,-2.5602,-2.5617,-2.6286,0.0,0.0,0.0,0.0,0.0,0.0,0.0,0.0,0.0,0.0,0.0,0.0,0.0,-3.0398,-3.1179,-3.1256,-3.0513,-3.1218,-3.1621,-3.1621,-3.1621,-3.1198,-3.0398,-3.0398,-3.0398,-3.0398,-3.0398,-3.0254,0.0,0.0,0.0,0.0,-2.9474,-2.9412,-2.9372,-2.9112,-2.8994,-2.8994,-2.8994,-2.8994,-2.8994,-2.8994,-2.8994,-2.8881,-2.8147,-2.7365,-2.6691,-2.6691,-2.6691,-2.6691,-2.6691,-2.6691,-2.6674,-2.6623,-2.6116,-2.5592,-2.5541,-2.4441,-2.315,-2.2297,-2.1503,-2.0731,-1.9889,-1.969,-1.969,-1.969,-1.969,-1.969,-1.969,-1.969,-1.969,-1.969,-1.969,-1.969,-1.969,-1.969,-1.969,-1.969,-1.969,-1.969,-1.969,-1.969,-1.969,-1.969,-1.969,-1.969,-1.969,-1.969,-1.969,-1.969,-1.969,-1.966,-1.9615,-1.966,-1.9316,-2.5045,0.0,-2.5723,-2.5461,-2.5488,-2.5554,0.0,-2.5593,0.0,0.0,0.0,-2.5703,-2.5684,-2.5684,-2.5898,-2.6539,-2.6811,0.0,0.0,0.0,0.0,0.0,0.0,0.0,0.0,0.0,0.0,0.0,0.0,-3.0398,-3.0398,-3.059,-3.0929,-3.1391,-3.0948,-3.0717,-3.0717,-3.0717,-3.059,-3.0398,-3.0398,-3.0398,-3.0398,-3.0398,-3.0254,0.0,0.0,0.0,-2.9678,-2.9474,-2.9412,-2.9372,-2.9112,-2.8994,-2.8994,-2.8994,-2.8994,-2.8994,-2.8994,-2.8994,-2.8881,-2.8147,-2.7365,-2.6691,-2.6691,-2.6691,-2.6691,-2.6691,-2.6691,-2.6573,-2.5998,-2.5744,-2.5456,-2.4881,-2.4052,-2.315,-2.2297,-2.1503,-2.0731,-1.9889,-1.969,-1.969,-1.969,-1.969,-1.969,-1.969,-1.969,-1.969,-1.969,-1.969,-1.969,-1.969,-1.969,-1.969,-1.969,-1.969,-1.969,-1.969,-1.969,-1.969,-1.969,-1.969,-1.969,-1.969,-1.969,-1.969,-1.969,-1.969,-1.9435,-1.8957,-1.945,-1.9061,-2.5141,-2.529,-2.5447,-2.5415,-2.5488,-2.5531,0.0,0.0,0.0,0.0,0.0,0.0,-2.5684,0.0,0.0,0.0,0.0,0.0,0.0,0.0,0.0,0.0,0.0,0.0,0.0,0.0,0.0,0.0,0.0,-3.0398,-3.0398,-3.0794,-3.1025,-3.1102,-3.1025,-3.1006,-3.1006,-3.059,-3.0398,-3.0398,-3.0398,-3.0398,-3.0398,-3.0267,-3.0095,0.0,0.0,0.0,-2.9357,-2.9249,-2.9222,-2.9203,-2.9062,-2.8755,-2.8448,-2.8448,-2.8227,-2.7893,-2.7893,-2.7911,-2.789,-2.7522,-2.6844,-2.6133,-2.5778,-2.5676,-2.5812,-2.6505,-2.6454,-2.6099,-2.571,-2.5101,-2.4492,-2.4086,-2.3274,-2.2374,-2.1746,-2.1116,-2.0499,-1.9818,-1.969,-1.969,-1.969,-1.969,-1.969,-1.969,-1.969,-1.969,-1.969,-1.969,-1.969,-1.969,-1.969,-1.969,-1.969,-1.969,-1.969,-1.969,-1.969,-1.969,-1.969,-1.969,-1.969,-1.969,-1.969,-1.969,-1.969,-1.969,-1.9495,-1.9166,-1.951,-1.9151,-2.5303,-2.5341,-2.539,-2.539,-2.5447,-2.5484,0.0,0.0,0.0,0.0,0.0,0.0,0.0,0.0,0.0,0.0,0.0,0.0,0.0,0.0,0.0,0.0,0.0,0.0,0.0,0.0,0.0,0.0,0.0,-3.0398,-3.0398,-3.1102,-3.116,-3.0417,-3.1121,-3.1506,-3.1506,-3.0775,-3.0398,-3.0398,-3.0398,-3.0367,-3.0323,-3.0103,-2.9877,-2.9662,0.0,0.0,-2.9017,-2.9044,-2.904,-2.8975,-2.8847,-2.8411,-2.7787,-2.7658,-2.7181,-2.6573,-2.6551,-2.6525,-2.6515,-2.656,-2.6033,-2.5338,-2.4814,-2.4608,-2.4794,-2.615,-2.5998,-2.5423,-2.5304,-2.434,-2.3359,-2.3257,-2.2408,-2.1491,-2.1086,-2.0616,-2.0193,-1.9782,-1.969,-1.969,-1.969,-1.969,-1.969,-1.969,-1.969,-1.969,-1.969,-1.969,-1.969,-1.969,-1.969,-1.969,-1.969,-1.969,-1.969,-1.969,-1.969,-1.9639,-1.9566,-1.9566,-1.9566,-1.9566,-1.9639,-1.969,-1.969,-1.969,-1.963,-1.954,-1.963,-1.9286,-2.5303,-2.5303,-2.5322,-2.5322,-2.537,-2.5418,0.0,0.0,0.0,0.0,0.0,0.0,0.0,0.0,0.0,0.0,0.0,0.0,0.0,0.0,0.0,0.0,0.0,0.0,0.0,0.0,0.0,0.0,0.0,-3.0398,-3.0398,-3.0533,-3.0533,-3.0398,-3.0533,-3.059,-3.059,-3.0456,-3.0398,-3.0398,-3.0398,-3.0267,-3.0061,-3.0013,-2.9796,-2.9454,0.0,-2.9397,-2.9017,-2.9246,-2.9203,-2.892,-2.8246,-2.7915,-2.7714,-2.7034,-2.6722,-2.6551,-2.6277,-2.5942,-2.565,-2.5415,-2.505,-2.4746,-2.527,-2.5,-2.4692,-2.5524,-2.5236,-2.4509,-2.39,-2.3562,-2.3241,-2.2632,-2.2011,-2.1491,-2.1086,-2.0616,-2.0193,-1.9782,-1.969,-1.969,-1.969,-1.969,-1.969,-1.969,-1.969,-1.969,-1.969,-1.969,-1.969,-1.969,-1.969,-1.969,-1.969,-1.969,-1.969,-1.969,-1.969,-1.9479,-1.9043,-1.9006,-1.9006,-1.9006,-1.9479,-1.969,-1.969,-1.969,-1.9405,-1.8867,-1.9435,-1.9031,-2.5303,-2.5303,-2.5303,-2.5303,-2.5322,-2.5341,0.0,0.0,0.0,0.0,0.0,0.0,0.0,0.0,0.0,0.0,0.0,0.0,0.0,0.0,0.0,0.0,0.0,0.0,0.0,0.0,0.0,0.0,0.0,0.0,-3.0398,-3.0398,-3.0398,-3.0398,-3.0398,-3.0398,-3.0398,-3.0398,-3.0398,-3.0398,-3.0254,-3.0122,-2.9999,-2.9763,-2.957,-2.9412,0.0,-2.9206,-2.9017,-2.9134,-2.9112,-2.8957,-2.8594,-2.7915,-2.7053,-2.6245,-2.581,-2.5673,-2.6,-2.5722,-2.5152,-2.4659,-2.4248,-2.3883,-2.3833,-2.3579,-2.3376,-2.3731,-2.3849,-2.3816,-2.3477,-2.3105,-2.2659,-2.207,-2.1598,-2.115,-2.0715,-2.0296,-1.9909,-1.9762,-1.969,-1.969,-1.969,-1.969,-1.969,-1.969,-1.969,-1.969,-1.969,-1.969,-1.969,-1.969,-1.9442,-1.9281,-1.9281,-1.9006,-1.908,-1.9639,-1.969,-1.9442,-1.893,-1.8893,-1.8893,-1.8893,-1.9132,-1.9406,-1.969,-1.969,-1.9525,-1.9241,-1.9555,-1.9361,-2.5303,-2.5303,-2.5303,0.0,0.0,0.0,0.0,0.0,0.0,0.0,0.0,0.0,0.0,0.0,0.0,0.0,0.0,0.0,0.0,0.0,0.0,0.0,0.0,0.0,0.0,0.0,0.0,0.0,0.0,0.0,-3.0398,-3.0398,-3.0398,-3.0398,-3.0398,-3.0398,-3.0398,-3.0398,-3.0398,-3.0398,-3.0136,-2.9984,-2.9924,-2.9551,-2.9372,-2.927,-2.8887,-2.8723,-2.8705,-2.8517,-2.8425,-2.8407,-2.8246,-2.7291,-2.5952,-2.5267,-2.4805,-2.4617,-2.5141,-2.4925,-2.4365,-2.3784,-2.3408,-2.3071,-2.2682,-2.2446,-2.2344,-2.2513,-2.2835,-2.3139,-2.3139,-2.2733,-2.218,-2.1718,-2.1275,-2.0862,-2.0416,-2.0,-1.969,-1.969,-1.969,-1.969,-1.969,-1.969,-1.969,-1.969,-1.969,-1.969,-1.969,-1.969,-1.969,-1.969,-1.9207,-1.8855,-1.8727,-1.8341,-1.8458,-1.9281,-1.9207,-1.8968,-1.8535,-1.8535,-1.8535,-1.8535,-1.8765,-1.9095,-1.953,-1.9639,-1.969,-1.969,-1.969,-1.969,-2.5303,-2.5303,-2.5303,-2.539,0.0,0.0,0.0,0.0,0.0,0.0,0.0,0.0,0.0,0.0,0.0,0.0,0.0,0.0,0.0,0.0,0.0,0.0,0.0,0.0,0.0,0.0,0.0,0.0,0.0,0.0,-3.0398,-3.0398,-3.0398,-3.0398,-3.0398,-3.0398,-3.0398,-3.0398,-3.0398,-3.0398,-3.0136,-2.9908,-2.9713,-2.9494,-2.9267,-2.8984,-2.8209,-2.7879,-2.7824,-2.709,-2.6778,-2.6704,-2.5952,-2.5126,-2.4335,-2.3946,-2.3804,-2.3696,-2.3137,-2.2903,-2.2816,-2.25,-2.2406,-2.2513,-2.3122,-2.2852,-2.2446,-2.3122,-2.2868,-2.2395,-2.2395,-2.2344,-2.218,-2.1718,-2.1275,-2.0862,-2.0416,-2.0,-1.969,-1.969,-1.969,-1.969,-1.969,-1.969,-1.969,-1.969,-1.969,-1.969,-1.969,-1.969,-1.969,-1.969,-1.9207,-1.8688,-1.8224,-1.8145,-1.8145,-1.8224,-1.7747,-1.7463,-1.7435,-1.7435,-1.7435,-1.7435,-1.838,-1.893,-1.8968,-1.9442,-1.969,-1.969,-1.969,-1.969,-2.5341,-2.537,-2.539,0.0,0.0,0.0,0.0,0.0,0.0,0.0,0.0,0.0,0.0,0.0,0.0,0.0,0.0,0.0,0.0,0.0,0.0,0.0,0.0,0.0,0.0,0.0,0.0,0.0,0.0,0.0,-3.0398,-3.0398,-3.0398,-3.0398,-3.0398,-3.0311,-3.015,-3.015,-3.0095,-2.9962,-2.9845,-2.9713,-2.9513,-2.9249,-2.8835,-2.8246,-2.7934,-2.7512,-2.7034,-2.6741,-2.6612,-2.6521,-2.5695,-2.5219,-2.4904,-2.4559,-2.428,-2.4005,-2.3624,-2.335,-2.305,-2.2474,-2.231,-2.2361,-2.2632,-2.253,-2.2361,-2.2649,-2.2308,-2.1928,-2.2209,-2.2077,-2.1764,-2.1323,-2.0878,-2.0449,-2.0035,-1.9818,-1.969,-1.969,-1.969,-1.969,-1.969,-1.969,-1.969,-1.969,-1.969,-1.969,-1.969,-1.969,-1.969,-1.969,-1.893,-1.8066,-1.7188,-1.7118,-1.7118,-1.7118,-1.7544,-1.7666,-1.7312,-1.7312,-1.7312,-1.7312,-1.7706,-1.8066,-1.8419,-1.893,-1.9207,-1.9207,-1.953,-1.969,-2.539,-2.5408,-2.5416,0.0,0.0,0.0,0.0,0.0,0.0,0.0,0.0,0.0,0.0,0.0,0.0,0.0,0.0,0.0,0.0,0.0,0.0,0.0,0.0,0.0,0.0,0.0,0.0,0.0,0.0,0.0,0.0,-3.0311,-3.0267,-3.0267,-3.0215,-3.008,-2.9908,-2.9908,-2.9796,-2.9588,-2.9344,-2.927,-2.9373,-2.8857,-2.8319,-2.7769,-2.7255,-2.6722,-2.6209,-2.5952,-2.5841,-2.5786,-2.5236,-2.4957,-2.4819,-2.4482,-2.4124,-2.3779,-2.3544,-2.3277,-2.297,-2.2462,-2.231,-2.231,-2.231,-2.231,-2.2282,-2.2106,-2.1853,-2.1658,-2.184,-2.1645,-2.1306,-2.0894,-2.0516,-2.0193,-1.9782,-1.969,-1.969,-1.969,-1.969,-1.969,-1.969,-1.969,-1.969,-1.969,-1.969,-1.969,-1.969,-1.9566,-1.9332,-1.8968,-1.8302,-1.7463,-1.6595,-1.6522,-1.6522,-1.6522,-1.7188,-1.7422,-1.7076,-1.7034,-1.7034,-1.7034,-1.7188,-1.7463,-1.7867,-1.8574,-1.8893,-1.8893,-1.9442,-1.969,-2.5409,-2.541,0.0,0.0,0.0,0.0,0.0,0.0,0.0,0.0,0.0,0.0,0.0,0.0,0.0,0.0,0.0,0.0,0.0,0.0,0.0,0.0,0.0,0.0,0.0,0.0,0.0,0.0,0.0,0.0,0.0,-3.015,-2.9999,-2.9999,-2.9796,-2.9696,-2.9696,-2.9677,-2.9588,-2.9355,-2.85,-2.8537,-2.9355,-2.8267,-2.7769,-2.7677,-2.6101,-2.5403,-2.5329,-2.452,-2.419,-2.419,-2.419,-2.3996,-2.3671,-2.3305,-2.2996,-2.266,-2.2371,-2.231,-2.231,-2.231,-2.231,-2.231,-2.231,-2.231,-2.2209,-2.1718,-2.1582,-2.1491,-2.1086,-2.0991,-2.0862,-2.0416,-2.0314,-2.0193,-1.9782,-1.969,-1.969,-1.969,-1.969,-1.969,-1.969,-1.969,-1.969,-1.969,-1.969,-1.969,-1.969,-1.9207,-1.8496,-1.7435,-1.7312,-1.7076,-1.6552,-1.6522,-1.6522,-1.6522,-1.6522,-1.6522,-1.6522,-1.6522,-1.6522,-1.6522,-1.7034,-1.7312,-1.7312,-1.838,-1.8893,-1.8893,-1.9442,-1.969,-2.5387,0.0,0.0,0.0,0.0,0.0,0.0,0.0,0.0,0.0,0.0,0.0,0.0,0.0,0.0,0.0,0.0,0.0,0.0,0.0,0.0,0.0,0.0,0.0,0.0,0.0,0.0,0.0,0.0,0.0,0.0,-3.0028,-2.9939,-2.9796,-2.9731,-2.9625,-2.9494,-2.8877,-2.8481,-2.8249,-2.7438,-2.7474,-2.8249,-2.7371,-2.6649,-2.6101,-2.5623,-2.509,-2.4538,-2.43,-2.419,-2.419,-2.419,-2.3996,-2.3671,-2.3305,-2.2996,-2.266,-2.2371,-2.231,-2.231,-2.231,-2.231,-2.231,-2.231,-2.231,-2.2209,-2.1718,-2.1399,-2.1086,-2.0616,-2.0296,-2.0104,-2.0246,-2.0089,-1.9839,-1.9726,-1.969,-1.969,-1.969,-1.969,-1.969,-1.969,-1.969,-1.969,-1.969,-1.9369,-1.9006,-1.8612,-1.8458,-1.8066,-1.7394,-1.7312,-1.7076,-1.6552,-1.6522,-1.6522,-1.6522,-1.6522,-1.6522,-1.6522,-1.6522,-1.6522,-1.6522,-1.668,-1.6752,-1.6752,-1.7827,-1.8341,-1.838,-1.9281,-1.9435,-2.539,0.0,0.0,0.0,0.0,0.0,0.0,0.0,0.0,0.0,0.0,0.0,0.0,0.0,0.0,0.0,0.0,0.0,0.0,0.0,0.0,0.0,0.0,0.0,0.0,0.0,0.0,0.0,0.0,0.0,0.0,-2.8995,-2.8711,-2.8593,-2.8503,-2.8407,-2.8283,-2.7785,-2.7424,-2.731,-2.6502,-2.6374,-2.6814,-2.6337,-2.586,-2.5384,-2.5072,-2.4649,-2.419,-2.419,-2.419,-2.419,-2.4036,-2.3795,-2.3459,-2.3117,-2.2815,-2.2527,-2.2349,-2.231,-2.231,-2.231,-2.231,-2.231,-2.231,-2.218,-2.1928,-2.1477,-2.1039,-2.0632,-2.0193,-1.9874,-1.9747,-2.0,-1.9874,-1.969,-1.969,-1.969,-1.969,-1.969,-1.969,-1.969,-1.969,-1.969,-1.969,-1.969,-1.9244,-1.8612,-1.7867,-1.7787,-1.7585,-1.7034,-1.6993,-1.6837,-1.6522,-1.6522,-1.6522,-1.6522,-1.6522,-1.6522,-1.6522,-1.6522,-1.6522,-1.6522,-1.6522,-1.6522,-1.6522,-1.7585,-1.8106,-1.8145,-1.9207,-1.9465,0.0,0.0,0.0,0.0,0.0,0.0,0.0,0.0,0.0,0.0,0.0,0.0,0.0,0.0,0.0,0.0,0.0,0.0,0.0,0.0,0.0,0.0,0.0,0.0,0.0,0.0,0.0,0.0,0.0,0.0,0.0,-2.7416,-2.6898,-2.6861,-2.6702,-2.6612,-2.6612,-2.6539,-2.6502,-2.6484,-2.5676,-2.5293,-2.5293,-2.5293,-2.5293,-2.5256,-2.452,-2.419,-2.419,-2.419,-2.419,-2.417,-2.3816,-2.35,-2.3165,-2.2822,-2.2527,-2.231,-2.231,-2.231,-2.231,-2.231,-2.231,-2.231,-2.231,-2.1957,-2.1538,-2.1118,-2.0649,-2.0227,-1.9803,-1.969,-1.969,-1.969,-1.969,-1.969,-1.969,-1.969,-1.969,-1.969,-1.969,-1.969,-1.969,-1.969,-1.969,-1.9566,-1.9132,-1.8458,-1.7394,-1.7229,-1.7034,-1.6552,-1.6522,-1.6522,-1.6522,-1.6522,-1.6522,-1.6522,-1.6522,-1.6522,-1.6522,-1.6522,-1.6522,-1.6522,-1.6522,-1.6522,-1.6522,-1.7544,-1.8066,-1.8145,-1.9169,-1.9609,0.0,0.0,0.0,0.0,0.0,0.0,0.0,0.0,0.0,0.0,0.0,0.0,0.0,0.0,0.0,0.0,0.0,0.0,0.0,0.0,0.0,0.0,0.0,0.0,0.0,0.0,0.0,0.0,0.0,0.0,-2.7267,-2.7027,-2.6823,-2.668,-2.6615,-2.6612,-2.6612,-2.597,-2.5658,0.0,-2.4832,-2.4447,-2.4447,-2.4447,-2.4447,-2.4447,-2.4281,-2.419,-2.419,-2.419,-2.419,-2.417,-2.3816,-2.35,-2.3165,-2.2822,-2.2527,-2.231,-2.231,-2.231,-2.231,-2.231,-2.231,-2.231,-2.231,-2.1957,-2.1538,-2.1118,-2.0649,-2.0227,-1.9803,-1.969,-1.969,-1.969,-1.969,-1.969,-1.969,-1.969,-1.969,-1.969,-1.969,-1.969,-1.969,-1.969,-1.9406,-1.8574,-1.8341,-1.7867,-1.6795,-1.668,-1.6637,-1.6522,-1.6522,-1.6522,-1.6522,-1.6522,-1.6522,-1.6522,-1.6522,-1.6522,-1.6522,-1.6522,-1.6522,-1.6522,-1.6522,-1.6522,-1.6522,-1.7146,-1.7706,-1.8145,-1.8765,-1.9016,0.0,0.0,0.0,0.0,0.0,0.0,0.0,0.0,0.0,0.0,0.0,0.0,0.0,0.0,0.0,0.0,0.0,0.0,0.0,0.0,0.0,0.0,0.0,0.0,0.0,0.0,0.0,0.0,0.0,-2.6425,-2.619,-2.582,-2.5558,-2.5456,-2.5456,-2.5456,-2.5456,-2.5034,-2.4814,-2.4814,-2.4392,-2.419,-2.419,-2.419,-2.419,-2.419,-2.419,-2.419,-2.419,-2.419,-2.4094,-2.3917,-2.3588,-2.3277,-2.2923,-2.2616,-2.2426,-2.231,-2.231,-2.231,-2.231,-2.231,-2.231,-2.231,-2.231,-2.184,-2.1275,-2.1055,-2.0532,-1.9965,-1.9747,-1.969,-1.969,-1.969,-1.969,-1.969,-1.969,-1.969,-1.969,-1.969,-1.969,-1.969,-1.969,-1.9479,-1.8968,-1.7867,-1.7706,-1.7435,-1.6595,-1.6522,-1.6522,-1.6522,-1.6522,-1.6522,-1.6522,-1.6522,-1.6522,-1.6522,-1.6522,-1.6522,-1.6522,-1.6522,-1.6522,-1.6522,-1.6522,-1.6522,-1.6522,-1.7034,-1.7585,-1.8106,-1.865,-1.8994,0.0,0.0,0.0,0.0,0.0,0.0,0.0,0.0,0.0,0.0,0.0,0.0,0.0,0.0,0.0,0.0,0.0,0.0,0.0,0.0,0.0,0.0,0.0,0.0,0.0,0.0,0.0,0.0,0.0,-2.5375,-2.5201,-2.4557,-2.419,-2.419,-2.419,-2.419,-2.419,-2.419,-2.419,-2.419,-2.419,-2.419,-2.419,-2.419,-2.419,-2.419,-2.419,-2.419,-2.4208,-2.4151,-2.3937,-2.3671,-2.3277,-2.2947,-2.2686,-2.2415,-2.231,-2.231,-2.231,-2.231,-2.231,-2.231,-2.231,-2.2282,-2.2209,-2.1615,-2.0991,-2.0894,-2.0311,-1.969,-1.969,-1.969,-1.969,-1.969,-1.969,-1.969,-1.969,-1.969,-1.969,-1.969,-1.969,-1.969,-1.9566,-1.9207,-1.8535,-1.7463,-1.7312,-1.7118,-1.6552,-1.6522,-1.6522,-1.6522,-1.6522,-1.6522,-1.6522,-1.6522,-1.6522,-1.6522,-1.6522,-1.6522,-1.6522,-1.6522,-1.6522,-1.6522,-1.6522,-1.6522,-1.6522,-1.6951,-1.7422,-1.7987,-1.8496,-1.9006,0.0,0.0,0.0,0.0,0.0,0.0,0.0,0.0,0.0,0.0,0.0,0.0,0.0,0.0,0.0,0.0,0.0,0.0,0.0,0.0,0.0,0.0,0.0,0.0,0.0,0.0,0.0,0.0,-2.4505,-2.4375,-2.4355,-2.4263,-2.419,-2.419,-2.419,-2.419,-2.419,-2.419,-2.419,-2.419,-2.419,-2.419,-2.419,-2.419,-2.419,-2.419,-2.419,-2.419,-2.417,-2.3896,-2.3735,-2.3649,-2.3021,-2.2746,-2.2686,-2.2415,-2.231,-2.231,-2.231,-2.231,-2.231,-2.231,-2.231,-2.2209,-2.1823,-2.1385,-2.0926,-2.0516,-2.007,-1.969,-1.969,-1.969,-1.969,-1.969,-1.969,-1.969,-1.969,-1.969,-1.969,-1.969,-1.969,-1.9566,-1.9095,-1.8968,-1.8535,-1.7463,-1.7312,-1.7118,-1.6552,-1.6522,-1.6522,-1.6522,-1.6522,-1.6522,-1.6522,-1.6522,-1.6522,-1.6522,-1.6522,-1.6522,-1.6522,-1.6522,-1.6522,-1.6522,-1.6522,-1.6522,-1.6522,-1.6552,-1.6879,-1.7435,-1.7947,-1.8263,0.0,0.0,0.0,0.0,0.0,0.0,0.0,0.0,0.0,0.0,0.0,0.0,0.0,0.0,0.0,0.0,0.0,0.0,0.0,0.0,0.0,0.0,0.0,0.0,0.0,0.0,0.0,0.0,-2.4266,-2.419,-2.419,-2.419,-2.419,-2.419,-2.419,-2.419,-2.419,-2.419,-2.419,-2.419,-2.419,-2.419,-2.419,-2.419,-2.419,-2.419,-2.3996,-2.3917,-2.3896,-2.3566,-2.3323,-2.3117,-2.2822,-2.2625,-2.2463,-2.2349,-2.231,-2.231,-2.231,-2.231,-2.231,-2.231,-2.231,-2.2209,-2.1718,-2.1306,-2.0894,-2.0449,-2.0,-1.969,-1.969,-1.969,-1.969,-1.969,-1.969,-1.969,-1.969,-1.969,-1.9603,-1.9332,-1.9244,-1.9006,-1.8145,-1.7987,-1.7747,-1.6951,-1.6837,-1.6752,-1.6522,-1.6522,-1.6522,-1.6522,-1.6522,-1.6522,-1.6522,-1.6522,-1.6522,-1.6522,-1.6522,-1.6522,-1.6522,-1.6522,-1.6522,-1.6522,-1.6522,-1.6522,-1.6522,-1.6522,-1.6795,-1.7312,-1.7544,-1.7827,0.0,0.0,0.0,0.0,0.0,0.0,0.0,0.0,0.0,0.0,0.0,0.0,0.0,0.0,0.0,0.0,0.0,0.0,0.0,0.0,0.0,0.0,0.0,0.0,0.0,0.0,0.0,0.0,-2.419,-2.419,-2.419,-2.419,-2.419,-2.419,-2.419,-2.419,-2.419,-2.4132,-2.4074,-2.4074,-2.3996,-2.3955,-2.3955,-2.3955,-2.3955,-2.3937,-2.3774,-2.3649,-2.3544,-2.3212,-2.2923,-2.2695,-2.2608,-2.249,-2.231,-2.231,-2.231,-2.231,-2.231,-2.231,-2.231,-2.231,-2.2209,-2.2032,-2.1568,-2.1134,-2.0731,-2.0246,-1.9929,-1.969,-1.969,-1.969,-1.969,-1.969,-1.969,-1.969,-1.969,-1.969,-1.953,-1.9006,-1.8893,-1.8574,-1.7463,-1.7312,-1.7105,-1.6595,-1.6522,-1.6522,-1.6522,-1.6522,-1.6522,-1.6522,-1.6522,-1.6522,-1.6522,-1.6522,-1.6522,-1.6522,-1.6522,-1.6522,-1.6522,-1.6522,-1.6522,-1.6522,-1.6522,-1.6522,-1.6522,-1.6522,-1.671,-1.7118,-1.7229,-1.7422,0.0,0.0,0.0,0.0,0.0,0.0,0.0,0.0,0.0,0.0,0.0,0.0,0.0,0.0,0.0,0.0,0.0,0.0,0.0,0.0,0.0,0.0,0.0,0.0,0.0,0.0,0.0,0.0,-2.419,-2.419,-2.419,-2.419,-2.419,-2.419,-2.419,-2.419,-2.419,-2.3896,-2.3714,-2.3714,-2.3392,-2.3236,-2.3236,-2.3236,-2.3236,-2.3259,-2.3566,-2.3522,-2.3189,-2.2855,-2.2721,-2.2669,-2.2426,-2.231,-2.231,-2.231,-2.231,-2.231,-2.231,-2.231,-2.231,-2.231,-2.2003,-2.1568,-2.115,-2.0715,-2.0246,-1.9839,-1.9726,-1.969,-1.969,-1.969,-1.969,-1.969,-1.969,-1.969,-1.969,-1.969,-1.953,-1.9006,-1.8893,-1.8574,-1.7463,-1.7312,-1.7105,-1.6595,-1.6522,-1.6522,-1.6522,-1.6522,-1.6522,-1.6522,-1.6522,-1.6522,-1.6522,-1.6522,-1.6522,-1.6522,-1.6522,-1.6522,-1.6522,-1.6522,-1.6522,-1.6522,-1.6522,-1.6522,-1.6522,-1.6522,-1.6522,-1.6552,-1.7076,-1.7034,0.0,0.0,0.0,0.0,0.0,0.0,0.0,0.0,0.0,0.0,0.0,0.0,0.0,0.0,0.0,0.0,0.0,0.0,0.0,0.0,0.0,0.0,0.0,0.0,0.0,0.0,0.0,0.0,0.0,-2.419,-2.419,-2.419,-2.419,-2.419,-2.419,-2.419,-2.419,-2.3876,-2.3692,-2.3692,-2.3369,-2.3189,-2.3189,-2.3189,-2.3093,-2.2898,-2.3021,-2.2996,-2.2848,-2.2563,-2.2436,-2.2409,-2.2349,-2.231,-2.231,-2.231,-2.231,-2.231,-2.231,-2.231,-2.231,-2.231,-2.1974,-2.1521,-2.1118,-2.0682,-2.0227,-1.9803,-1.969,-1.969,-1.969,-1.969,-1.969,-1.969,-1.969,-1.969,-1.969,-1.969,-1.9442,-1.8574,-1.838,-1.8066,-1.6951,-1.6795,-1.671,-1.6522,-1.6522,-1.6522,-1.6522,-1.6522,-1.6522,-1.6522,-1.6522,-1.6522,-1.6522,-1.6522,-1.6522,-1.6522,-1.6522,-1.6522,-1.6522,-1.6522,-1.6522,-1.6522,-1.6522,-1.6522,-1.6522,-1.6522,-1.6522,-1.6522,-1.671,-1.668,0.0,0.0,0.0,0.0,0.0,0.0,0.0,0.0,0.0,0.0,0.0,0.0,0.0,0.0,0.0,0.0,0.0,0.0,0.0,0.0,0.0,0.0,0.0,0.0,0.0,0.0,0.0,0.0,0.0,0.0,-2.419,-2.419,-2.419,-2.419,-2.4094,-2.4016,-2.4016,-2.3692,-2.3477,-2.3369,-2.3038,-2.2908,-2.2908,-2.2908,-2.2781,-2.2563,-2.2563,-2.2563,-2.2563,-2.236,-2.231,-2.231,-2.231,-2.231,-2.231,-2.231,-2.231,-2.231,-2.231,-2.231,-2.231,-2.231,-2.1869,-2.1337,-2.1086,-2.0599,-2.0035,-1.9782,-1.969,-1.969,-1.969,-1.969,-1.969,-1.969,-1.969,-1.969,-1.969,-1.969,-1.9369,-1.8302,-1.8106,-1.7747,-1.668,-1.6522,-1.6522,-1.6522,-1.6522,-1.6522,-1.6522,-1.6522,-1.6522,-1.6522,-1.6522,-1.6522,-1.6522,-1.6522,-1.6522,-1.6522,-1.6522,-1.6522,-1.6522,-1.6522,-1.6522,-1.6522,-1.6522,-1.6522,-1.6522,-1.6522,-1.6522,-1.6522,-1.6522,-1.6321,0.0,0.0,0.0,0.0,0.0,0.0,0.0,0.0,0.0,0.0,0.0,0.0,0.0,0.0,0.0,0.0,0.0,0.0,0.0,0.0,0.0,0.0,0.0,0.0,0.0,0.0,0.0,0.0,-2.419,-2.419,-2.419,-2.419,-2.417,-2.417,-2.3837,-2.3692,-2.3692,-2.3346,-2.3021,-2.2695,-2.2426,-2.231,-2.231,-2.231,-2.231,-2.231,-2.231,-2.231,-2.231,-2.231,-2.231,-2.231,-2.231,-2.231,-2.231,-2.231,-2.231,-2.231,-2.231,-2.231,-2.231,-2.2282,-2.1691,-2.0991,-2.0991,-2.0379,-1.969,-1.969,-1.969,-1.969,-1.969,-1.969,-1.969,-1.969,-1.969,-1.969,-1.969,-1.9639,-1.9332,-1.8302,-1.8106,-1.7747,-1.668,-1.6522,-1.6522,-1.6522,-1.6522,-1.6522,-1.6522,-1.6522,-1.6522,-1.6522,-1.6522,-1.6522,-1.6522,-1.6522,-1.6522,-1.6522,-1.6522,-1.6522,-1.6522,-1.6522,-1.6522,-1.6522,-1.6522,-1.6522,-1.6522,-1.6522,-1.6522,-1.6522,-1.6497,-1.5906,-2.3167,0.0,0.0,0.0,0.0,0.0,0.0,0.0,0.0,0.0,0.0,0.0,0.0,0.0,0.0,0.0,0.0,0.0,0.0,0.0,0.0,0.0,0.0,0.0,0.0,0.0,0.0,0.0,-2.419,-2.419,-2.419,-2.3976,-2.3714,-2.3482,-2.3392,-2.3346,-2.3346,-2.3021,-2.2797,-2.2695,-2.2426,-2.231,-2.231,-2.231,-2.231,-2.231,-2.231,-2.231,-2.231,-2.231,-2.231,-2.231,-2.231,-2.231,-2.231,-2.231,-2.231,-2.231,-2.231,-2.231,-2.2237,-2.1899,-2.1446,-2.0926,-2.0583,-2.0139,-1.969,-1.969,-1.969,-1.969,-1.969,-1.969,-1.969,-1.969,-1.9406,-1.9132,-1.9132,-1.8817,-1.8458,-1.8185,-1.7787,-1.7312,-1.6637,-1.6522,-1.6522,-1.6522,-1.6522,-1.6522,-1.6522,-1.6522,-1.6522,-1.6522,-1.6522,-1.6522,-1.6522,-1.6522,-1.6522,-1.6522,-1.6522,-1.6522,-1.6522,-1.6522,-1.6522,-1.6522,-1.6522,-1.6522,-1.6522,-1.6522,-1.6522,-1.6509,-1.6107,-1.5329,0.0,0.0,0.0,0.0,0.0,0.0,0.0,-2.5512,0.0,0.0,0.0,0.0,0.0,0.0,0.0,0.0,0.0,0.0,0.0,0.0,0.0,0.0,0.0,0.0,0.0,-2.419,-2.419,-2.419,-2.419,-2.4151,-2.3996,-2.3544,-2.3277,-2.3189,-2.3069,-2.2996,-2.2996,-2.2797,-2.2634,-2.2537,-2.236,-2.231,-2.231,-2.231,-2.231,-2.231,-2.231,-2.231,-2.231,-2.231,-2.231,-2.231,-2.231,-2.231,-2.231,-2.231,-2.231,-2.2282,-2.2077,-2.2003,-2.1928,-2.1507,-2.1039,-2.0649,-2.0382,-2.0035,-1.969,-1.969,-1.969,-1.969,-1.969,-1.969,-1.9639,-1.9406,-1.9132,-1.8855,-1.8612,-1.8145,-1.7787,-1.7787,-1.7504,-1.7105,-1.6595,-1.6522,-1.6522,-1.6522,-1.6522,-1.6522,-1.6522,-1.6522,-1.6522,-1.6522,-1.6522,-1.6522,-1.6522,-1.6522,-1.6522,-1.6522,-1.6522,-1.6522,-1.6522,-1.6522,-1.6522,-1.6522,-1.6522,-1.6409,-1.617,-1.6409,-1.6396,-1.6158,-1.5618,-1.4916,0.0,0.0,0.0,0.0,0.0,0.0,-2.5313,-2.5542,0.0,0.0,0.0,0.0,0.0,0.0,0.0,0.0,0.0,0.0,0.0,0.0,0.0,0.0,0.0,0.0,-2.419,-2.417,-2.4133,-2.4133,-2.4113,-2.3937,-2.3628,-2.3021,-2.2822,-2.3087,-2.2797,-2.266,-2.266,-2.266,-2.2537,-2.231,-2.231,-2.231,-2.231,-2.231,-2.231,-2.231,-2.231,-2.231,-2.231,-2.231,-2.231,-2.231,-2.231,-2.231,-2.231,-2.231,-2.231,-2.2237,-2.1764,-2.1582,-2.1521,-2.1086,-2.0649,-2.028,-2.0246,-2.0,-1.969,-1.969,-1.969,-1.969,-1.969,-1.969,-1.9566,-1.9095,-1.8893,-1.8688,-1.8224,-1.7626,-1.7188,-1.7188,-1.7188,-1.7076,-1.6595,-1.6522,-1.6522,-1.6522,-1.6522,-1.6522,-1.6522,-1.6522,-1.6522,-1.6522,-1.6522,-1.6522,-1.6522,-1.6522,-1.6522,-1.6522,-1.6522,-1.6522,-1.6522,-1.6522,-1.6522,-1.6522,-1.6459,-1.6183,-1.5693,-1.6183,-1.6107,-1.5492,-1.5054,-1.4525,0.0,0.0,0.0,0.0,0.0,0.0,-2.5447,-2.5518,0.0,0.0,0.0,0.0,0.0,0.0,0.0,0.0,0.0,0.0,0.0,0.0,0.0,0.0,0.0,0.0,-2.419,-2.3955,-2.3795,-2.3795,-2.3544,-2.3236,-2.2923,-2.2772,-2.2625,-2.248,-2.2415,-2.2388,-2.2388,-2.2388,-2.2349,-2.231,-2.231,-2.231,-2.231,-2.231,-2.231,-2.231,-2.231,-2.231,-2.231,-2.231,-2.231,-2.231,-2.231,-2.231,-2.231,-2.231,-2.231,-2.2237,-2.1764,-2.1582,-2.146,-2.0682,-2.0382,-2.0246,-1.9909,-1.9747,-1.969,-1.969,-1.969,-1.969,-1.969,-1.969,-1.969,-1.9566,-1.8893,-1.8224,-1.8145,-1.7353,-1.668,-1.668,-1.668,-1.6637,-1.6522,-1.6522,-1.6522,-1.6522,-1.6522,-1.6522,-1.6522,-1.6522,-1.6522,-1.6522,-1.6522,-1.6522,-1.6522,-1.6522,-1.6522,-1.6522,-1.6522,-1.6522,-1.6522,-1.6522,-1.6522,-1.6522,-1.6082,-1.5806,-1.5693,-1.5806,-1.5341,-1.4412,-1.4299,-1.3946,0.0,0.0,0.0,-2.537,0.0,0.0,0.0,0.0,-2.5504,0.0,0.0,0.0,0.0,0.0,0.0,0.0,0.0,0.0,0.0,0.0,0.0,0.0,0.0,0.0,-2.3714,-2.3544,-2.3437,-2.3437,-2.3141,-2.2873,-2.2721,-2.2573,-2.2453,-2.231,-2.231,-2.231,-2.231,-2.231,-2.231,-2.231,-2.231,-2.231,-2.231,-2.231,-2.231,-2.231,-2.231,-2.231,-2.231,-2.231,-2.231,-2.231,-2.231,-2.231,-2.231,-2.231,-2.2135,-2.1899,-2.1446,-2.1134,-2.0846,-2.0227,-2.0,-1.9965,-1.9747,-1.969,-1.969,-1.969,-1.969,-1.969,-1.969,-1.969,-1.9639,-1.9369,-1.8688,-1.8027,-1.7747,-1.7076,-1.6522,-1.6522,-1.6522,-1.6522,-1.6522,-1.6522,-1.6522,-1.6522,-1.6522,-1.6522,-1.6522,-1.6522,-1.6522,-1.6522,-1.6522,-1.6522,-1.6522,-1.6522,-1.6522,-1.6522,-1.6522,-1.6522,-1.6522,-1.6522,-1.6522,-1.6522,-1.5969,-1.5567,-1.5279,-1.5054,-1.4626,-1.4085,-1.4085,-1.3795,0.0,0.0,0.0,0.0,0.0,-2.5408,0.0,0.0,0.0,-2.5524,0.0,0.0,0.0,0.0,0.0,0.0,0.0,0.0,0.0,0.0,0.0,0.0,0.0,0.0,0.0,-2.3076,-2.2954,-2.2905,-2.2574,-2.2388,-2.2388,-2.2169,-2.2049,-2.2049,-2.2106,-2.218,-2.218,-2.2237,-2.231,-2.231,-2.231,-2.231,-2.231,-2.231,-2.231,-2.231,-2.231,-2.231,-2.231,-2.231,-2.231,-2.231,-2.231,-2.231,-2.231,-2.231,-2.2061,-2.1658,-2.115,-2.0764,-2.0348,-1.9839,-1.969,-1.969,-1.969,-1.969,-1.969,-1.969,-1.969,-1.969,-1.969,-1.969,-1.9566,-1.9043,-1.8496,-1.7947,-1.7435,-1.6879,-1.6522,-1.6522,-1.6522,-1.6522,-1.6522,-1.6522,-1.6522,-1.6522,-1.6522,-1.6522,-1.6522,-1.6522,-1.6522,-1.6522,-1.6522,-1.6522,-1.6522,-1.6522,-1.6522,-1.6522,-1.6522,-1.6522,-1.6522,-1.6522,-1.6471,-1.6358,-1.5819,-1.5266,-1.4752,-1.4198,-1.3934,-1.3934,-1.3934,-1.3659,0.0,0.0,0.0,0.0,-2.5354,0.0,0.0,0.0,-2.5515,-2.558,0.0,0.0,0.0,0.0,0.0,0.0,0.0,0.0,0.0,0.0,0.0,0.0,0.0,0.0,0.0,-2.2609,-2.2096,-2.1786,-2.1413,-2.1197,-2.1197,-2.115,-2.1166,-2.1166,-2.1507,-2.1688,-2.1688,-2.2106,-2.231,-2.231,-2.231,-2.231,-2.231,-2.231,-2.231,-2.231,-2.231,-2.231,-2.231,-2.231,-2.231,-2.231,-2.231,-2.231,-2.231,-2.231,-2.2282,-2.2106,-2.1291,-2.0959,-2.0797,-1.998,-1.969,-1.969,-1.969,-1.969,-1.969,-1.969,-1.969,-1.969,-1.969,-1.969,-1.9566,-1.9043,-1.8496,-1.7947,-1.7435,-1.6879,-1.6522,-1.6522,-1.6522,-1.6522,-1.6522,-1.6522,-1.6522,-1.6522,-1.6522,-1.6522,-1.6522,-1.6522,-1.6522,-1.6522,-1.6522,-1.6522,-1.6522,-1.6522,-1.6522,-1.6522,-1.6522,-1.6522,-1.6522,-1.6522,-1.6283,-1.5806,-1.5241,-1.4727,-1.4173,-1.3596,-1.3286,-1.3286,-1.3286,-1.3261,0.0,0.0,0.0,0.0,0.0,0.0,-2.5505,0.0,-2.5562,0.0,0.0,0.0,0.0,0.0,0.0,0.0,0.0,0.0,0.0,0.0,0.0,0.0,0.0,0.0,0.0,0.0,0.0,0.0,-2.1213,-2.0991,-2.0991,-2.0991,-2.0991,-2.0991,-2.115,-2.1368,-2.1582,-2.1794,-2.2032,-2.231,-2.231,-2.231,-2.231,-2.231,-2.231,-2.231,-2.231,-2.231,-2.231,-2.231,-2.231,-2.231,-2.231,-2.231,-2.231,-2.231,-2.1974,-2.1493,-2.1134,-2.0665,-2.0189,-1.9818,-1.969,-1.969,-1.969,-1.969,-1.969,-1.969,-1.969,-1.969,-1.969,-1.9479,-1.9169,-1.8968,-1.8263,-1.7585,-1.7353,-1.6879,-1.6522,-1.6522,-1.6522,-1.6522,-1.6522,-1.6522,-1.6522,-1.6522,-1.6522,-1.6522,-1.6522,-1.6522,-1.6522,-1.6522,-1.6522,-1.6522,-1.6522,-1.6522,-1.6522,-1.6522,-1.6522,-1.6522,-1.6522,-1.6522,-1.6258,-1.5706,-1.5153,-1.4639,-1.4085,-1.3496,-1.3198,-1.3198,-1.3198,-1.3198,-2.5341,0.0,0.0,0.0,0.0,0.0,0.0,0.0,0.0,0.0,0.0,0.0,0.0,0.0,0.0,0.0,0.0,0.0,0.0,0.0,0.0,0.0,0.0,0.0,0.0,0.0,0.0,0.0,0.0,-2.0567,-2.0434,-2.0283,-2.0268,-2.0434,-2.0534,-2.0813,-2.1228,-2.1368,-2.1658,-2.2106,-2.2106,-2.218,-2.231,-2.231,-2.231,-2.231,-2.231,-2.231,-2.231,-2.231,-2.231,-2.231,-2.231,-2.2209,-2.2106,-2.2106,-2.1645,-2.0991,-2.0862,-2.0311,-1.969,-1.969,-1.969,-1.969,-1.969,-1.969,-1.969,-1.969,-1.969,-1.969,-1.953,-1.9207,-1.8817,-1.8535,-1.7867,-1.7271,-1.7118,-1.6752,-1.6522,-1.6522,-1.6522,-1.6522,-1.6522,-1.6522,-1.6522,-1.6522,-1.6522,-1.6522,-1.6522,-1.6522,-1.6522,-1.6522,-1.6522,-1.6522,-1.6522,-1.6522,-1.6522,-1.6522,-1.6522,-1.6522,-1.6522,-1.6522,-1.6258,-1.5706,-1.5153,-1.4639,-1.4085,-1.3496,-1.3198,-1.3198,-1.3198,-1.3198,0.0,0.0,0.0,-2.5341,0.0,0.0,0.0,0.0,-2.5523,0.0,0.0,0.0,0.0,0.0,0.0,0.0,0.0,0.0,0.0,0.0,0.0,0.0,0.0,0.0,0.0,0.0,0.0,0.0,0.0,0.0,-1.8991,-1.8496,-1.8444,-1.8954,-1.9405,-1.9869,-2.0348,-2.0781,-2.1213,-2.1612,-2.1612,-2.1869,-2.231,-2.231,-2.231,-2.231,-2.231,-2.231,-2.231,-2.231,-2.231,-2.231,-2.231,-2.2032,-2.1612,-2.1612,-2.1368,-2.0926,-2.0483,-2.007,-1.969,-1.969,-1.969,-1.969,-1.969,-1.969,-1.969,-1.969,-1.969,-1.9566,-1.9043,-1.8893,-1.865,-1.7585,-1.7353,-1.7146,-1.6637,-1.6522,-1.6522,-1.6522,-1.6522,-1.6522,-1.6522,-1.6522,-1.6522,-1.6522,-1.6522,-1.6522,-1.6522,-1.6522,-1.6522,-1.6522,-1.6522,-1.6522,-1.6522,-1.6522,-1.6522,-1.6522,-1.6522,-1.6522,-1.6522,-1.6522,-1.6258,-1.5706,-1.5153,-1.4639,-1.4085,-1.3496,-1.3198,-1.3198,-1.3198,-1.3198,0.0,0.0,-2.537,-2.537,0.0,0.0,0.0,0.0,0.0,0.0,0.0,0.0,0.0,0.0,0.0,0.0,0.0,0.0,0.0,0.0,0.0,0.0,0.0,0.0,0.0,0.0,0.0,0.0,0.0,0.0,0.0,-1.831,-1.7999,-1.7799,-1.8646,-1.9346,-1.9834,-2.0299,-2.0894,-2.1582,-2.1582,-2.1853,-2.231,-2.231,-2.231,-2.231,-2.231,-2.231,-2.231,-2.231,-2.231,-2.2282,-2.1974,-2.1568,-2.1244,-2.1491,-2.1165,-2.0483,-2.0035,-1.9803,-1.969,-1.969,-1.969,-1.969,-1.969,-1.969,-1.969,-1.969,-1.969,-1.9566,-1.9043,-1.865,-1.8185,-1.7463,-1.7034,-1.671,-1.6552,-1.6522,-1.6522,-1.6522,-1.6522,-1.6522,-1.6522,-1.6522,-1.6522,-1.6522,-1.6522,-1.6522,-1.6522,-1.6522,-1.6522,-1.6522,-1.6522,-1.6522,-1.6522,-1.6522,-1.6522,-1.6522,-1.6522,-1.6522,-1.6522,-1.6522,-1.6258,-1.5706,-1.5517,-1.5004,-1.4085,-1.3909,-1.3584,-1.3198,-1.3198,-1.3198,-2.5303,-2.5303,0.0,-2.5341,-2.537,0.0,-2.5447,0.0,0.0,0.0,0.0,0.0,0.0,0.0,0.0,0.0,0.0,0.0,0.0,0.0,0.0,0.0,0.0,0.0,0.0,0.0,-2.208,-2.2107,0.0,0.0,0.0,0.0,-1.7122,-1.6944,-1.7612,-1.8454,-1.9332,-1.9636,-2.0249,-2.1134,-2.1306,-2.1628,-2.2061,-2.2209,-2.231,-2.231,-2.231,-2.231,-2.2282,-2.2106,-2.2032,-2.2003,-2.1568,-2.1118,-2.0781,-2.1039,-2.0682,-2.007,-1.9782,-1.969,-1.969,-1.969,-1.969,-1.969,-1.969,-1.969,-1.969,-1.969,-1.9566,-1.9281,-1.8727,-1.8224,-1.7666,-1.7146,-1.6752,-1.6522,-1.6522,-1.6522,-1.6522,-1.6522,-1.6522,-1.6522,-1.6522,-1.6522,-1.6522,-1.6522,-1.6522,-1.6522,-1.6522,-1.6522,-1.6522,-1.6522,-1.6522,-1.6522,-1.6522,-1.6522,-1.6522,-1.6522,-1.6522,-1.6522,-1.6522,-1.6522,-1.6358,-1.5994,-1.5793,-1.5341,-1.4676,-1.4274,-1.3909,-1.3509,-1.3286,-1.3198]}]]